[[{"header":{"parameterUnit":"m.s-1","parameterCategory":1,"la1":30.6,"la2":28.766,"lo1":-90.7593,"lo2":-88.6598,"dy":0.0162,"dx":0.0183,"nx":116,"ny":114,"refTime":"2023-11-19T06:00:00:Z","depth":0,"parameterNumber":2,"parameterNumberName":"U-component_of_WINDS"},"data":[0.0,0.0,0.0,0.0,0.0,0.0,0.0,0.0,0.0,0.0,0.0,0.0,0.0,0.0,0.0,0.0,0.0,0.0,0.0,0.0,0.0,0.0,0.0,0.0,0.0,0.0,0.0,0.0,0.0,0.0,0.0,0.0,0.0,0.0,0.0,0.0,0.0,0.0,0.0,0.0,0.0,0.0,0.0,0.0,0.0,0.0,0.0,0.0,0.0,0.0,0.0,0.0,0.0,0.0,0.0,0.0,0.0,0.0,0.0,0.0,0.0,0.0,0.0,0.0,0.0,0.0,0.0,0.0,0.0,0.0,0.0,0.0,0.0,0.0,0.0,0.0,0.0,0.0,0.0,0.0,0.0,0.0,0.0,0.0,0.0,0.0,0.0,0.0,0.0,0.0,0.0,0.0,0.0,0.0,0.0,0.0,0.0,0.0,0.0,0.0,0.0,0.0,0.0,0.0,0.0,0.0,0.0,0.0,0.0,0.0,0.0,0.0,0.0,0.0,0.0,0.0,0.0,0.0,0.0,0.0,0.0,0.0,0.0,0.0,0.0,0.0,0.0,0.0,0.0,0.0,0.0,0.0,0.0,0.0,0.0,0.0,0.0,0.0,0.0,0.0,0.0,0.0,0.0,0.0,0.0,0.0,0.0,0.0,0.0,0.0,0.0,0.0,0.0,0.0,0.0,0.0,0.0,0.0,0.0,0.0,0.0,0.0,0.0,0.0,0.0,0.0,0.0,0.0,0.0,0.0,0.0,0.0,0.0,0.0,0.0,0.0,0.0,0.0,0.0,0.0,0.0,0.0,0.0,0.0,0.0,0.0,0.0,0.0,0.0,0.0,0.0,0.0,0.0,0.0,0.0,0.0,0.0,0.0,0.0,0.0,0.0,0.0,0.0,0.0,0.0,0.0,0.0,0.0,0.0,0.0,0.0,0.0,0.0,0.0,0.0,0.0,0.0,0.0,0.0,0.0,0.0,0.0,0.0,0.0,0.0,0.0,0.0,0.0,0.0,0.0,0.0,0.0,0.0,0.0,0.0,0.0,0.0,0.0,0.0,0.0,0.0,0.0,0.0,0.0,0.0,0.0,0.0,0.0,0.0,0.0,0.0,0.0,0.0,0.0,0.0,0.0,0.0,0.0,0.0,0.0,0.0,0.0,0.0,0.0,0.0,0.0,0.0,0.0,0.0,0.0,0.0,0.0,0.0,0.0,0.0,0.0,0.0,0.0,0.0,0.0,0.0,0.0,0.0,0.0,0.0,0.0,0.0,0.0,0.0,0.0,0.0,0.0,0.0,0.0,0.0,0.0,0.0,0.0,0.0,0.0,0.0,0.0,0.0,0.0,0.0,0.0,0.0,0.0,0.0,0.0,0.0,0.0,0.0,0.0,0.0,0.0,0.0,0.0,0.0,0.0,0.0,0.0,0.0,0.0,0.0,0.0,0.0,0.0,0.0,0.0,0.0,0.0,0.0,0.0,0.0,0.0,0.0,0.0,0.0,0.0,0.0,0.0,0.0,0.0,0.0,0.0,0.0,0.0,0.0,0.0,0.0,0.0,0.0,0.0,0.0,0.0,0.0,0.0,0.0,0.0,0.0,0.0,0.0,0.0,0.0,0.0,0.0,0.0,0.0,0.0,0.0,0.0,0.0,0.0,0.0,0.0,0.0,0.0,0.0,0.0,0.0,0.0,0.0,0.0,0.0,0.0,0.0,0.0,0.0,0.0,0.0,0.0,0.0,0.0,0.0,0.0,0.0,0.0,0.0,0.0,0.0,0.0,0.0,0.0,0.0,0.0,0.0,0.0,0.0,0.0,0.0,0.0,0.0,0.0,0.0,0.0,0.0,0.0,0.0,0.0,0.0,0.0,0.0,0.0,0.0,0.0,0.0,0.0,0.0,0.0,0.0,0.0,0.0,0.0,0.0,0.0,0.0,0.0,0.0,0.0,0.0,0.0,0.0,0.0,0.0,0.0,0.0,0.0,0.0,0.0,0.0,0.0,0.0,0.0,0.0,0.0,0.0,0.0,0.0,0.0,0.0,0.0,0.0,0.0,0.0,0.0,0.0,0.0,0.0,0.0,0.0,0.0,0.0,0.0,0.0,0.0,0.0,0.0,0.0,0.0,0.0,0.0,0.0,0.0,0.0,0.0,0.0,0.0,0.0,0.0,0.0,0.0,0.0,0.0,0.0,0.0,0.0,0.0,0.0,0.0,0.0,0.0,0.0,0.0,0.0,0.0,0.0,0.0,0.0,0.0,0.0,0.0,0.0,0.0,0.0,0.0,0.0,0.0,0.0,0.0,0.0,0.0,0.0,0.0,0.0,0.0,0.0,0.0,0.0,0.0,0.0,0.0,0.0,0.0,0.0,0.0,0.0,0.0,0.0,0.0,0.0,0.0,0.0,0.0,0.0,0.0,0.0,0.0,0.0,0.0,0.0,0.0,0.0,0.0,0.0,0.0,0.0,0.0,0.0,0.0,0.0,0.0,0.0,0.0,0.0,0.0,0.0,0.0,0.0,0.0,0.0,0.0,0.0,0.0,0.0,0.0,0.0,0.0,0.0,0.0,0.0,0.0,0.0,0.0,0.0,0.0,0.0,0.0,0.0,0.0,0.0,0.0,0.0,0.0,0.0,0.0,0.0,0.0,0.0,0.0,0.0,0.0,0.0,0.0,0.0,0.0,0.0,0.0,0.0,0.0,0.0,0.0,0.0,0.0,0.0,0.0,0.0,0.0,0.0,0.0,0.0,0.0,0.0,0.0,0.0,0.0,0.0,0.0,0.0,0.0,0.0,0.0,0.0,0.0,0.0,0.0,0.0,0.0,0.0,0.0,0.0,0.0,0.0,0.0,0.0,0.0,0.0,0.0,0.0,0.0,0.0,0.0,0.0,0.0,0.0,0.0,0.0,0.0,0.0,0.0,0.0,0.0,0.0,0.0,0.0,0.0,0.0,0.0,0.0,0.0,0.0,0.0,0.0,0.0,0.0,0.0,0.0,0.0,0.0,0.0,0.0,0.0,0.0,0.0,0.0,0.0,0.0,0.0,0.0,0.0,0.0,0.0,0.0,0.0,0.0,0.0,0.0,0.0,0.0,0.0,0.0,0.0,0.0,0.0,0.0,0.0,0.0,0.0,0.0,0.0,0.0,0.0,0.0,0.0,0.0,0.0,0.0,0.0,0.0,0.0,0.0,0.0,0.0,0.0,0.0,0.0,0.0,0.0,0.0,0.0,0.0,0.0,0.0,0.0,0.0,0.0,0.0,0.0,0.0,0.0,0.0,0.0,0.0,0.0,0.0,0.0,0.0,0.0,0.0,0.0,0.0,0.0,0.0,0.0,0.0,0.0,0.0,0.0,0.0,0.0,0.0,0.0,0.0,0.0,0.0,0.0,0.0,0.0,0.0,0.0,0.0,0.0,0.0,0.0,0.0,0.0,0.0,0.0,0.0,0.0,0.0,0.0,0.0,0.0,0.0,0.0,0.0,0.0,0.0,0.0,0.0,0.0,0.0,0.0,0.0,0.0,0.0,0.0,0.0,0.0,0.0,0.0,0.0,0.0,0.0,0.0,0.0,0.0,0.0,0.0,0.0,0.0,0.0,0.0,0.0,0.0,0.0,0.0,0.0,0.0,0.0,0.0,0.0,0.0,0.0,0.0,0.0,0.0,0.0,0.0,0.0,0.0,0.0,0.0,0.0,0.0,0.0,0.0,0.0,0.0,0.0,0.0,0.0,0.0,0.0,0.0,0.0,0.0,0.0,0.0,0.0,0.0,0.0,0.0,0.0,0.0,0.0,0.0,0.0,0.0,0.0,0.0,0.0,0.0,0.0,0.0,0.0,0.0,0.0,0.0,0.0,0.0,0.0,0.0,0.0,0.0,0.0,0.0,0.0,0.0,0.0,0.0,0.0,0.0,0.0,0.0,0.0,0.0,0.0,0.0,0.0,0.0,0.0,0.0,0.0,0.0,0.0,0.0,0.0,0.0,0.0,0.0,0.0,0.0,0.0,0.0,0.0,0.0,0.0,0.0,0.0,0.0,0.0,0.0,0.0,0.0,0.0,0.0,0.0,0.0,0.0,0.0,0.0,0.0,0.0,0.0,0.0,0.0,0.0,0.0,0.0,0.0,0.0,0.0,0.0,0.0,0.0,0.0,0.0,0.0,0.0,0.0,0.0,0.0,0.0,0.0,0.0,0.0,0.0,0.0,0.0,0.0,0.0,0.0,0.0,0.0,0.0,0.0,0.0,0.0,0.0,0.0,0.0,0.0,0.0,0.0,0.0,0.0,0.0,0.0,0.0,0.0,0.0,0.0,0.0,0.0,0.0,0.0,0.0,0.0,0.0,0.0,0.0,0.0,0.0,0.0,0.0,0.0,0.0,0.0,0.0,0.0,0.0,0.0,0.0,0.0,0.0,0.0,0.0,0.0,0.0,0.0,0.0,0.0,0.0,0.0,0.0,0.0,0.0,0.0,0.0,0.0,0.0,0.0,0.0,0.0,0.0,0.0,0.0,0.0,0.0,0.0,0.0,0.0,0.0,0.0,0.0,0.0,0.0,0.0,0.0,0.0,0.0,0.0,0.0,0.0,0.0,0.0,0.0,0.0,0.0,0.0,0.0,0.0,0.0,0.0,0.0,0.0,0.0,0.0,0.0,0.0,0.0,0.0,0.0,0.0,0.0,0.0,0.0,0.0,0.0,0.0,0.0,0.0,0.0,0.0,0.0,0.0,0.0,0.0,0.0,0.0,0.0,0.0,0.0,0.0,0.0,0.0,0.0,0.0,0.0,0.0,0.0,0.0,0.0,0.0,0.0,0.0,0.0,0.0,0.0,0.0,0.0,0.0,0.0,0.0,0.0,0.0,0.0,0.0,0.0,0.0,0.0,0.0,0.0,0.0,0.0,0.0,0.0,0.0,0.0,0.0,0.0,0.0,0.0,0.0,0.0,0.0,0.0,0.0,0.0,0.0,0.0,0.0,0.0,0.0,0.0,0.0,0.0,0.0,0.0,0.0,0.0,0.0,0.0,0.0,0.0,0.0,0.0,0.0,0.0,0.0,0.0,0.0,0.0,0.0,0.0,0.0,0.0,0.0,0.0,0.0,0.0,0.0,0.0,0.0,0.0,0.0,0.0,0.0,0.0,0.0,0.0,0.0,0.0,0.0,0.0,0.0,0.0,0.0,0.0,0.0,0.0,0.0,0.0,0.0,0.0,0.0,0.0,0.0,0.0,0.0,0.0,0.0,0.0,0.0,0.0,0.0,0.0,0.0,0.0,0.0,0.0,0.0,0.0,0.0,0.0,0.0,0.0,0.0,0.0,0.0,0.0,0.0,0.0,0.0,0.0,0.0,0.0,0.0,0.0,0.0,0.0,0.0,0.0,0.0,0.0,0.0,0.0,0.0,0.0,0.0,0.0,0.0,0.0,0.0,0.0,0.0,0.0,0.0,0.0,0.0,0.0,0.0,0.0,0.0,0.0,0.0,0.0,0.0,0.0,0.0,0.0,0.0,0.0,0.0,0.0,0.0,0.0,0.0,0.0,0.0,0.0,0.0,0.0,0.0,0.0,0.0,0.0,0.0,0.0,0.0,0.0,0.0,0.0,0.0,0.0,0.0,0.0,0.0,0.0,0.0,0.0,0.0,0.0,0.0,0.0,0.0,0.0,0.0,0.0,0.0,0.0,0.0,0.0,0.0,0.0,0.0,0.0,0.0,0.0,0.0,0.0,0.0,0.0,0.0,0.0,0.0,0.0,0.0,0.0,0.0,0.0,0.0,0.0,0.0,0.0,0.0,0.0,0.0,0.0,0.0,0.0,0.0,0.0,0.0,0.0,0.0,0.0,0.0,0.0,0.0,0.0,0.0,0.0,0.0,0.0,0.0,0.0,0.0,0.0,0.0,0.0,0.0,0.0,0.0,0.0,0.0,0.0,0.0,0.0,0.0,0.0,0.0,0.0,0.0,0.0,0.0,0.0,0.0,0.0,0.0,0.0,0.0,0.0,0.0,0.0,0.0,0.0,0.0,0.0,0.0,0.0,0.0,0.0,0.0,0.0,0.0,0.0,0.0,0.0,0.0,0.0,0.0,0.0,0.0,0.0,0.0,0.0,0.0,-7.1313,-7.077,0.0,0.0,0.0,0.0,0.0,0.0,0.0,0.0,0.0,0.0,0.0,0.0,0.0,0.0,0.0,0.0,0.0,0.0,0.0,0.0,0.0,0.0,0.0,0.0,0.0,0.0,0.0,0.0,0.0,0.0,0.0,0.0,0.0,0.0,0.0,0.0,0.0,-7.0492,-6.9284,-6.8427,-6.7998,-7.0141,-7.1622,-7.2479,0.0,0.0,0.0,0.0,0.0,0.0,0.0,0.0,0.0,0.0,0.0,0.0,0.0,0.0,0.0,0.0,0.0,0.0,0.0,0.0,0.0,0.0,0.0,0.0,0.0,0.0,0.0,0.0,0.0,0.0,0.0,0.0,0.0,0.0,0.0,0.0,0.0,0.0,0.0,0.0,0.0,0.0,0.0,0.0,0.0,0.0,0.0,0.0,0.0,0.0,0.0,0.0,0.0,0.0,0.0,0.0,0.0,0.0,0.0,0.0,0.0,0.0,0.0,0.0,0.0,0.0,0.0,0.0,0.0,0.0,-7.5225,-7.3523,0.0,0.0,0.0,0.0,0.0,0.0,0.0,0.0,0.0,0.0,0.0,0.0,0.0,0.0,0.0,0.0,0.0,0.0,0.0,0.0,0.0,0.0,0.0,-7.0531,-7.1466,-7.1778,-7.1661,-7.1661,0.0,0.0,0.0,0.0,0.0,0.0,0.0,-7.092,-7.0842,-7.1349,-6.9245,-6.8738,-6.9757,-7.1466,-7.2401,-7.2674,-7.1934,0.0,0.0,0.0,0.0,0.0,0.0,0.0,0.0,0.0,0.0,0.0,0.0,0.0,0.0,0.0,0.0,0.0,0.0,0.0,0.0,0.0,0.0,0.0,0.0,0.0,0.0,0.0,0.0,0.0,0.0,0.0,0.0,0.0,0.0,0.0,0.0,0.0,0.0,0.0,0.0,0.0,0.0,0.0,0.0,0.0,0.0,0.0,0.0,0.0,0.0,0.0,0.0,0.0,0.0,0.0,0.0,0.0,0.0,0.0,0.0,0.0,0.0,0.0,-8.1672,-8.2794,-8.4279,-8.3229,-8.3048,-8.341,-8.1418,-7.834,-7.479,-7.5406,0.0,0.0,0.0,0.0,0.0,0.0,0.0,0.0,0.0,0.0,0.0,0.0,0.0,0.0,0.0,0.0,0.0,0.0,0.0,0.0,0.0,-6.9484,-7.0219,-7.1661,-7.1154,-7.1037,-7.1739,0.0,0.0,0.0,0.0,0.0,-7.0726,-7.0648,-7.0258,-6.964,-6.9284,-6.9946,-7.1505,-7.3258,-7.4856,-7.6142,-7.2401,-7.205,-7.4038,0.0,0.0,0.0,0.0,0.0,0.0,0.0,0.0,0.0,0.0,0.0,0.0,0.0,0.0,0.0,0.0,0.0,0.0,0.0,0.0,0.0,0.0,0.0,0.0,0.0,0.0,0.0,0.0,0.0,0.0,0.0,0.0,0.0,0.0,0.0,0.0,0.0,0.0,0.0,0.0,0.0,-6.273,-6.273,0.0,0.0,0.0,0.0,0.0,0.0,0.0,0.0,0.0,0.0,0.0,0.0,0.0,-7.6094,-8.0114,-8.2432,-8.4098,-8.5149,-8.8589,-8.9314,-8.7648,-8.8807,-8.9024,-8.8444,-8.8118,0.0,-7.7796,-7.4537,0.0,0.0,0.0,0.0,0.0,0.0,0.0,0.0,0.0,0.0,0.0,0.0,0.0,0.0,0.0,0.0,0.0,0.0,0.0,0.0,0.0,-7.0297,-7.1154,-7.0453,-7.2284,-7.2596,-7.0531,-7.1037,0.0,0.0,0.0,-7.0224,-7.057,-7.0609,-7.0414,-7.0029,-7.1466,-7.2791,-7.3999,-7.4778,-7.6064,-7.7578,-7.4067,-7.2871,-7.3314,-7.0728,0.0,0.0,0.0,0.0,0.0,0.0,0.0,0.0,0.0,0.0,0.0,0.0,0.0,0.0,0.0,0.0,0.0,0.0,0.0,0.0,0.0,0.0,0.0,0.0,0.0,0.0,0.0,0.0,0.0,0.0,0.0,0.0,0.0,0.0,0.0,0.0,0.0,0.0,0.0,-6.3526,-6.4903,-6.2186,-6.4867,-6.5772,0.0,0.0,0.0,0.0,0.0,0.0,0.0,0.0,0.0,-7.7833,-7.9607,-8.1998,-8.5076,-8.7937,-8.9785,-9.0618,-9.3225,-9.395,-9.2935,-9.366,-9.3515,-9.2754,-9.2284,-8.9821,-8.5692,-8.0802,-7.7651,-7.5696,0.0,0.0,0.0,0.0,-7.3523,-7.4283,0.0,0.0,0.0,0.0,0.0,0.0,0.0,0.0,0.0,0.0,0.0,0.0,-6.8933,-7.1232,-7.2284,-7.1037,-7.3258,-7.3453,-7.0453,-7.0804,-7.0492,-6.9011,-6.9362,-6.9712,-6.9946,-7.057,-7.1232,-7.1895,-7.4233,-7.583,-7.6688,-7.7116,-7.8012,-7.9175,-7.6715,-7.5055,-7.3915,-7.0874,-6.8938,-6.7898,0.0,0.0,0.0,0.0,0.0,0.0,0.0,0.0,0.0,0.0,0.0,0.0,0.0,0.0,0.0,0.0,0.0,0.0,0.0,0.0,0.0,0.0,0.0,0.0,0.0,0.0,0.0,0.0,0.0,0.0,0.0,0.0,0.0,0.0,0.0,0.0,0.0,-6.5555,-6.6967,-6.2549,-6.7003,-6.8525,0.0,0.0,0.0,0.0,0.0,0.0,-7.4971,-7.7434,-8.0404,-8.4026,-8.609,-8.8372,-9.0943,-9.3334,-9.4964,-9.576,-9.6956,-9.7499,-9.7499,-9.7499,-9.7064,-9.6268,-9.5688,-9.442,-9.2247,-8.6271,-8.1925,-7.881,-7.6601,-7.5478,-7.5189,-7.5587,-7.6239,-7.7036,0.0,0.0,0.0,0.0,0.0,0.0,0.0,0.0,0.0,0.0,0.0,-6.7141,-7.1154,-7.1778,-7.2791,-7.5168,-7.3297,-7.2245,-7.2869,-6.8427,-6.6478,-6.7993,-6.7296,-6.7296,-6.811,-7.0492,-7.2947,-7.5441,-7.7233,-7.8519,-7.9337,-8.1013,-8.1831,-8.1864,-8.0612,-7.9173,-7.727,-7.1231,-6.9417,-7.0452,-6.8859,0.0,0.0,0.0,0.0,0.0,0.0,0.0,0.0,0.0,0.0,0.0,0.0,0.0,0.0,0.0,0.0,0.0,0.0,0.0,0.0,0.0,0.0,0.0,0.0,0.0,0.0,0.0,0.0,0.0,0.0,0.0,0.0,0.0,0.0,0.0,0.0,0.0,0.0,-6.5736,-7.2255,0.0,0.0,0.0,0.0,-7.2291,-7.4537,-7.7615,-8.1599,-8.4098,-8.7575,-9.2247,-9.3261,-9.5253,-9.8441,-9.8622,-9.9093,-9.9889,-9.9998,-9.9998,-9.9998,-9.9998,-9.96,-9.8803,-9.8767,-9.739,-9.4674,-8.7539,-8.4062,-8.2794,-7.8883,-7.7833,-7.8376,-7.7651,-7.7869,-7.8484,0.0,0.0,0.0,0.0,0.0,0.0,0.0,0.0,-6.6824,-6.7135,-6.8543,-7.0102,-7.1622,-7.4778,-7.6688,-7.6532,-7.6688,-7.5713,-7.3258,-7.0842,-6.9323,-6.8855,-6.8543,-6.9284,-7.1232,-7.2713,-7.4739,-7.7389,-7.9065,-8.0623,-8.2026,-8.2065,-8.2689,-8.3695,-8.1805,-8.0639,-7.967,-7.3407,-7.0022,-6.8633,-6.5765,-6.4794,0.0,0.0,0.0,0.0,0.0,0.0,0.0,0.0,0.0,0.0,0.0,0.0,0.0,0.0,0.0,0.0,0.0,0.0,0.0,0.0,0.0,0.0,0.0,0.0,0.0,0.0,0.0,0.0,0.0,0.0,0.0,0.0,0.0,0.0,0.0,0.0,0.0,-7.403,-7.881,0.0,-7.4247,-7.5152,-7.6492,-7.7289,-8.0549,-8.399,-8.7467,-9.0907,-9.3805,-9.6014,-9.739,-9.8622,-9.9781,-10.0795,-10.1193,-10.1012,-10.199,-10.1918,-10.1012,-10.1012,-10.0288,-9.8984,-9.8984,-9.7934,-9.5905,-9.2827,-8.9567,-8.6308,-8.3845,-8.2432,-8.1744,-8.1454,-8.1853,-8.2505,0.0,0.0,0.0,0.0,0.0,0.0,0.0,0.0,-6.6712,-6.6712,-6.9167,-7.1505,-7.2947,-7.696,-7.9415,-7.9181,-7.887,-7.7194,-7.3765,-7.1388,-6.9596,-6.8465,-6.9284,-7.0648,-7.2635,-7.4661,-7.6843,-7.9142,-8.0545,-8.1831,-8.2961,-8.2377,-8.2883,-8.4202,-8.2582,-8.1833,-8.1426,-7.6524,-7.2379,-6.8848,-6.5645,-6.5297,-6.6277,0.0,0.0,0.0,0.0,0.0,0.0,0.0,0.0,0.0,0.0,0.0,0.0,0.0,0.0,0.0,0.0,0.0,0.0,0.0,0.0,0.0,0.0,0.0,0.0,0.0,0.0,0.0,0.0,0.0,0.0,0.0,0.0,0.0,0.0,-7.5261,-7.9209,-7.9499,-8.4243,-8.5511,-8.0404,-8.1635,-8.3048,-8.3845,-8.7141,-9.0255,-9.2899,-9.634,-9.8585,-9.9382,-10.0686,-10.141,-10.141,-10.2388,-10.2388,-10.141,-10.2425,-10.2099,-10.0614,-10.0614,-9.9853,-9.8622,-9.8875,-9.8078,-9.6557,-9.6014,-9.3443,-8.9676,-8.8118,-8.667,-8.5438,-8.5185,-8.5257,-8.5438,0.0,0.0,0.0,0.0,0.0,0.0,0.0,-6.6712,-6.6712,-6.6712,-6.831,-7.1076,-7.5324,-7.809,-8.0701,-8.3273,-7.9532,-7.6298,-7.4583,-6.9596,-6.6751,-6.6868,-6.9245,-7.1037,-7.2011,-7.6142,-7.9142,-8.0851,-8.1675,-8.2104,-8.2104,-8.2143,-8.2572,-8.3345,-8.3148,-8.287,-8.2471,-8.0429,-7.6645,-7.1718,-6.8946,-6.8693,-6.9845,0.0,0.0,0.0,0.0,0.0,0.0,0.0,0.0,0.0,0.0,0.0,0.0,0.0,0.0,0.0,0.0,0.0,0.0,0.0,0.0,0.0,0.0,0.0,0.0,0.0,0.0,0.0,0.0,0.0,0.0,0.0,0.0,0.0,-7.1603,-7.9318,-8.4026,-8.1853,-8.8481,-9.1088,-8.5619,-8.8589,-9.1161,-9.1885,-9.4167,-9.6195,-9.7789,-10.0107,-10.1809,-10.2497,-10.3294,-10.3692,-10.362,-10.362,-10.2823,-10.1302,-10.1302,-10.0396,-9.8875,-9.8911,-9.8477,-9.7752,-9.8585,-9.8006,-9.6521,-9.6521,-9.5145,-9.2863,-9.1269,-9.011,-8.9314,-8.8517,-8.7684,-8.6887,0.0,0.0,0.0,0.0,0.0,0.0,0.0,-6.6683,-6.6712,-6.6712,-7.0375,-7.4155,-7.7233,-8.0974,-8.4052,-8.6001,-8.0545,-7.6804,-7.6337,-7.0258,-6.7803,-7.0297,-7.0531,-7.2713,-7.7272,-7.7973,-7.9415,-8.1753,-8.1987,-8.2104,-8.2104,-8.2766,-8.2844,-8.2487,-8.3498,-8.3441,-8.2561,-8.1769,-8.0169,-7.7508,-7.1166,-6.8455,-6.7949,0.0,0.0,0.0,0.0,0.0,0.0,0.0,0.0,0.0,0.0,0.0,0.0,0.0,0.0,0.0,0.0,0.0,0.0,0.0,0.0,0.0,0.0,0.0,0.0,0.0,0.0,0.0,0.0,0.0,0.0,0.0,-7.3921,-7.8195,-7.9173,-8.3881,-8.8517,-9.1921,-9.5833,-9.7173,-9.4457,-9.5724,-9.6304,-9.5362,-9.6992,-9.8441,-9.9491,-10.1302,-10.2099,-10.17,-10.3004,-10.3185,-10.2026,-10.2026,-10.0903,-9.8803,-9.8803,-9.7934,-9.6412,-9.6992,-9.6811,-9.6086,-9.6919,-9.634,-9.4855,-9.4855,-9.4131,-9.2899,-9.1885,-9.0618,-8.9314,-8.8517,-8.7358,-8.6163,0.0,0.0,0.0,0.0,0.0,0.0,0.0,-6.6931,-6.6683,-6.6712,-7.1505,-7.5519,-7.7038,-8.1364,-8.4247,-8.452,-7.9571,-7.5869,-7.4427,-7.0219,-6.866,-7.0687,-7.2362,-7.4895,-7.8363,-7.9415,-8.0623,-8.2104,-8.2104,-8.2104,-8.2104,-8.3,-8.3312,-8.3228,-8.4315,-8.4566,-8.4147,-8.3518,-8.2779,-8.1633,-7.6275,-7.3383,-7.1863,-6.8182,-6.7426,-6.8034,-6.5798,-6.5798,-6.6556,-6.4623,0.0,0.0,0.0,0.0,0.0,0.0,0.0,0.0,0.0,0.0,0.0,0.0,0.0,0.0,0.0,0.0,0.0,0.0,0.0,0.0,0.0,0.0,0.0,0.0,-7.9209,-8.4316,-8.7793,-9.0255,-9.3334,-9.7608,-9.9926,-10.0795,-9.9889,-10.0179,-9.9962,-9.8694,-9.9781,-10.0396,-10.0215,-10.17,-10.2207,-10.141,-10.2606,-10.2606,-10.141,-10.1121,-9.9998,-9.8296,-9.7608,-9.663,-9.5398,-9.5543,-9.5145,-9.442,-9.5253,-9.4891,-9.3696,-9.3696,-9.3225,-9.2465,0.0,0.0,0.0,0.0,-8.7141,-8.6308,0.0,0.0,0.0,0.0,0.0,0.0,0.0,-6.714,-6.6702,-6.6717,-7.1778,-7.5402,-7.5402,-7.9766,-8.2104,-8.0662,-7.7116,-7.3687,-7.0648,-6.9718,-6.964,-7.0414,-7.4856,-7.7467,-7.7857,-8.0857,-8.2338,-8.226,-8.226,-8.2182,-8.2104,-8.3078,-8.3897,-8.4591,-8.5317,-8.5885,-8.6209,-8.5314,-8.4736,-8.4154,-8.2505,-8.0614,-7.8234,-7.3477,-7.2886,-7.4099,-7.0043,-6.7883,-6.6859,-6.6404,0.0,0.0,0.0,0.0,0.0,0.0,0.0,0.0,0.0,0.0,0.0,0.0,0.0,0.0,0.0,0.0,0.0,0.0,0.0,0.0,0.0,0.0,0.0,0.0,-8.4424,-8.906,-9.5905,-9.7028,-9.797,-10.0215,-10.1881,-10.2787,-10.2678,-10.2678,-10.2388,-10.1592,-10.2099,-10.1809,-10.0396,-10.17,0.0,0.0,0.0,-10.2171,-10.1302,-10.0396,-9.9419,-9.8441,-9.6811,-9.5616,-9.4819,-9.4203,-9.3515,-9.2791,-9.3587,-9.3479,-9.2718,-9.2646,-9.2139,-9.1378,-9.1378,-9.098,-9.0038,-8.7756,-8.6887,-8.6778,0.0,0.0,0.0,0.0,0.0,0.0,0.0,-6.6381,-6.6707,-6.6702,-7.0736,-7.3609,-7.3609,-7.6376,-7.8402,-7.8753,-7.3726,-7.0258,-6.9601,-6.9406,-7.1739,-7.7272,-7.848,-8.035,-8.3156,-8.3858,-8.3858,-8.3156,-8.3156,-8.2805,-8.2143,-8.3702,-8.4169,-8.3734,-8.5676,-8.6117,-8.5423,-8.6354,-8.5772,-8.4307,-8.4411,-8.1852,-7.7721,-7.5848,-7.4212,-7.2507,-6.9626,-7.0119,-7.1635,-6.83,-6.8148,-6.9323,-6.883,-6.6025,0.0,0.0,0.0,0.0,0.0,0.0,0.0,0.0,0.0,0.0,0.0,0.0,0.0,0.0,0.0,0.0,0.0,0.0,0.0,-8.2939,-8.83,-9.3261,-9.7897,-9.9636,-10.0903,-10.199,-10.3511,-10.4199,-10.3584,-10.3511,-10.3185,-10.2388,-10.1918,-10.1519,-10.1193,-10.1483,-10.1592,-10.141,-10.2171,-10.1881,-10.0396,-9.8984,-9.7209,-9.5109,-9.3515,0.0,-9.1559,-9.203,-9.1849,-9.1125,-9.1921,-9.1813,-9.1016,-9.0364,-8.964,-8.8915,-8.8915,-8.8807,-8.8481,-8.6742,-8.6126,-8.609,0.0,0.0,0.0,0.0,0.0,0.0,0.0,-6.6482,-6.7052,-6.7898,-7.0995,-7.3163,-7.3163,-7.5446,-7.6454,-7.5168,-7.0726,-6.8543,-6.9874,-7.1544,-7.4778,-7.9922,-8.1403,-8.3312,-8.5884,-8.5143,-8.4715,-8.4715,-8.3819,-8.3195,-8.2766,-8.4091,-8.4402,-8.3929,-8.5794,-8.643,-8.62,-8.6764,-8.6432,-8.5568,-8.5786,-8.3915,-8.0694,-7.8736,-7.6941,-7.5236,-7.3113,-7.262,-7.2696,-7.0612,-7.0157,-7.027,-6.902,-6.72,-6.5383,0.0,0.0,0.0,0.0,0.0,0.0,0.0,0.0,0.0,0.0,0.0,0.0,0.0,0.0,-6.8597,-7.2617,0.0,-8.1853,-8.7865,-9.2899,-9.6992,-9.9817,-10.1592,-10.2714,-10.3077,-10.3801,-10.4308,-10.4308,-10.3584,-10.3004,-10.2569,-10.1881,-10.1229,-10.0795,-10.0795,-10.0795,-10.0795,-10.0795,-10.0179,-9.902,-9.739,-9.5797,-9.4203,-9.2573,-9.1595,-9.1197,-9.1197,-9.098,-9.0618,-9.1016,-9.098,-9.0545,-8.9712,-8.8915,-8.8152,-8.7754,-8.7573,-8.7467,-8.6308,-8.5909,-8.5909,0.0,0.0,0.0,0.0,0.0,0.0,0.0,-6.6694,-6.7354,-6.8858,-7.1174,-7.2638,-7.2443,-7.4288,-7.4233,-7.1076,-6.8427,-6.8349,-7.1622,-7.4583,-7.7935,-8.187,-8.4403,-8.6312,-8.7676,-8.639,-8.5962,-8.6507,-8.5066,-8.4286,-8.413,-8.4871,-8.5159,-8.5164,-8.6025,-8.6834,-8.7506,-8.7007,-8.6925,-8.7019,-8.6726,-8.5769,-8.4261,-8.1305,-7.9659,-7.863,-7.6752,-7.4288,-7.1938,-7.2299,-7.118,-6.9512,-6.8641,-6.8489,-6.8016,-6.5064,-6.4041,0.0,0.0,0.0,0.0,0.0,0.0,0.0,0.0,0.0,-6.6424,-7.0444,-7.2069,-7.4247,-7.939,-8.2686,-8.6634,-9.2718,-9.6557,-9.9346,-10.0903,-10.2207,-10.3004,-10.3004,-10.3294,-10.3692,-10.4417,-10.3185,-10.228,-10.2099,-10.1519,-10.0795,-9.9998,-10.0107,-10.0215,-10.0215,-9.9419,-9.8622,-9.7789,-9.605,-9.4746,-9.395,-9.2356,-9.1559,-9.1559,-9.0907,-9.0581,-9.0581,-9.0436,-9.0183,-8.9857,-8.9205,-8.8481,-8.772,-8.7068,-8.6815,-8.6706,-8.6126,-8.5909,-8.5909,0.0,0.0,0.0,0.0,0.0,0.0,0.0,0.0,-6.7162,-6.8096,-6.9775,-7.0605,-6.983,-7.0006,-6.9362,-6.7452,-6.7642,-7.0258,-7.5908,-7.7389,-8.0545,-8.6235,-8.8261,-8.9313,-8.9508,-8.9313,-8.8884,-8.8222,-8.8027,-8.752,-8.678,-8.6858,-8.7319,-8.7992,-8.6871,-8.7254,-8.8615,-8.7329,-8.7269,-8.788,-8.6955,-8.6494,-8.5939,-8.2538,-8.0663,-7.9516,-7.7021,-7.3568,-7.0384,-7.192,-7.0763,-6.9096,-7.118,-7.0346,-6.8319,-6.6779,-6.3778,-6.0895,-6.0577,-5.9748,-5.9941,-6.4142,-6.3599,-6.4222,0.0,0.0,-7.3849,-7.7869,-7.9897,-8.1998,-8.5511,-8.7575,-9.0364,-9.5362,-9.7173,-9.8513,-10.0107,-10.0505,-10.0614,-10.0614,-10.1881,-10.2787,-10.2787,-10.2099,-10.1193,-10.0505,-10.0396,-9.9998,-9.9165,-9.9817,-10.0215,-10.0215,-9.9419,-9.8622,-9.7789,-9.5507,-9.395,-9.3117,-9.1487,-9.0726,-9.0726,-9.0654,-9.0581,-9.0545,-8.9821,-8.8734,-8.743,-8.7322,-8.6851,-8.6163,-8.6054,-8.6018,-8.6018,-8.5909,-8.5909,-8.5909,0.0,0.0,0.0,0.0,0.0,0.0,0.0,0.0,0.0,-6.7295,-6.8784,-6.9692,-6.9341,-6.9309,-6.9011,-6.8271,-6.7608,-6.979,-7.5869,-7.7973,-8.1675,-8.7676,-8.9625,-9.0794,-9.13,-9.0326,-8.9865,-9.0002,-8.9008,-8.8352,-8.802,-8.7956,-8.8055,-8.8261,-8.7987,-8.8446,-8.9353,-8.8596,-8.8492,-8.8721,-8.7839,-8.6597,-8.4935,-8.1935,-7.8427,-7.4943,-7.3744,-7.1503,0.0,-6.83,-6.7996,-6.7996,-6.8565,-6.8337,-6.7505,-6.5483,-6.3784,-6.2375,-6.1282,-6.1981,-6.3437,-6.517,-6.6931,-6.9647,-7.508,-7.6492,-7.7977,-8.2468,-8.4642,-8.6742,-8.9929,-9.2211,-9.4384,-9.6883,-9.8767,-9.9817,-9.9527,-9.9093,-9.8115,-9.6231,-9.6593,-9.7934,-10.0288,-9.8911,-9.797,-9.8078,-9.8549,-9.8658,-9.8332,-9.9527,-9.9998,-9.9527,-9.873,-9.7463,-9.5724,-9.4239,-9.2863,-9.1595,-9.0907,-9.0581,-9.0581,-9.0581,-9.0328,-8.9857,-8.906,-8.8046,-8.7032,-8.7032,-8.6561,-8.5909,-8.5909,-8.5909,-8.5909,-8.5909,-8.5909,-8.5909,0.0,0.0,0.0,0.0,0.0,0.0,0.0,0.0,0.0,0.0,-6.7858,-6.8492,-6.8245,-6.8646,-6.8855,-6.8582,-6.7881,-6.9673,-7.4973,-7.7935,-8.1987,-8.7559,-8.9703,-9.1261,-9.2391,-9.1151,-9.0821,-9.1469,-9.021,-8.9625,-8.9637,-8.9339,-8.9224,-8.9274,-8.9132,-8.9508,-9.023,-8.9419,-8.9281,-8.9561,-8.8262,-8.6352,-8.3907,-8.0125,-7.5567,-7.1166,-7.076,-6.8429,-6.5399,-6.4509,-6.4547,-6.5078,-6.5609,-6.6367,-6.6614,-6.4422,-6.3369,-6.2832,-6.2382,-6.4057,-6.6326,-6.7781,-7.1106,-7.4899,-7.8195,-8.0006,-8.2251,-8.6634,-8.8444,-9.0038,-9.2827,-9.4565,-9.6014,-9.7245,-9.8767,-9.9419,-9.8477,-9.7245,-9.5435,-9.2682,-9.1559,-9.2284,-9.5398,-9.5109,-9.5145,-9.6195,-9.6811,-9.7318,-9.7789,-9.8911,-9.9382,-9.902,-9.8006,-9.6521,-9.4565,-9.3515,-9.232,-9.0943,-9.069,-9.0581,-9.0581,-9.0364,-8.9712,-8.8698,-8.8118,-8.743,-8.6706,-8.6706,-8.6271,-8.5583,-8.5583,-8.5583,-8.5547,-8.533,-8.5511,-8.5873,0.0,0.0,0.0,0.0,0.0,0.0,0.0,0.0,0.0,0.0,0.0,0.0,0.0,-6.7024,-6.7681,-6.6868,-6.8271,-7.0726,-7.4194,-7.7623,-8.1481,-8.5884,-8.8495,-9.0638,-9.2352,-9.2347,-9.2321,-9.2366,-9.2357,-9.2357,-9.2288,-9.143,-9.1483,-9.2182,-9.0256,-9.014,-9.1325,-8.936,-8.9323,-9.0364,-8.7842,-8.5817,-8.3563,-7.6914,-7.2681,-7.0213,-6.9239,-6.4115,-5.8311,-6.1418,-6.0909,-5.9658,-6.3676,-6.5495,-6.5877,-6.4574,-6.2164,-6.055,-6.3358,-6.4619,-6.6653,-7.2973,-7.5963,-7.881,-8.4352,-8.6199,-8.7684,-9.0943,-9.1668,-9.2211,-9.3877,-9.3587,-9.3877,-9.6231,-9.6014,-9.5833,-9.6557,-9.4638,-9.2537,-9.0871,-8.7974,-8.6452,-8.7358,-9.0871,-9.3732,-9.529,-9.5435,-9.6123,-9.7716,-9.7861,-9.8223,-9.8984,-9.7463,-9.6231,-9.5362,-9.3805,-9.2573,-9.174,-9.098,-9.0581,-9.0581,-8.9785,-8.8589,-8.7104,-8.7068,-8.6634,-8.5945,-8.5945,-8.5475,-8.475,-8.475,-8.475,-8.4642,-8.3845,-8.4569,-8.5801,0.0,0.0,0.0,0.0,0.0,0.0,0.0,0.0,0.0,0.0,0.0,0.0,0.0,0.0,0.0,0.0,-6.8427,-6.9907,-7.3297,-7.5713,-7.8402,-8.1558,-8.4715,-8.6949,-8.8137,-8.928,-9.0434,-9.1603,-9.1637,-9.19,-9.2474,-9.2099,-9.2113,-9.2345,-9.1471,-9.1329,-9.1653,-9.0049,-8.8986,-8.8113,-8.4825,-8.2149,-7.9513,-7.3819,-6.9049,-6.5199,0.0,-6.1048,-5.8289,-5.7642,-5.727,-5.727,-5.8672,-6.0075,-6.1195,-6.1324,-6.2219,-6.3578,-6.5362,-6.887,-7.3112,-7.7684,-8.0959,-8.4135,-8.8118,-8.9205,-8.9857,-9.1487,-8.9712,-8.8046,-8.8589,-8.8481,-8.8879,-9.0726,-9.261,-9.3913,-9.4167,-9.3515,-9.1233,-8.6452,-8.638,0.0,0.0,-8.5764,0.0,-9.1197,-9.2392,-9.3479,-9.4565,-9.6123,-9.663,-9.5833,-9.529,-9.4384,-9.3008,-9.2465,-9.1813,-9.098,-9.0183,-8.9531,-8.8988,-8.8191,-8.7539,-8.6996,-8.6489,-8.6126,-8.5873,-8.533,-8.5257,-8.5402,-8.4316,-8.4207,-8.4678,-8.4388,-8.4642,-8.5076,0.0,0.0,0.0,0.0,0.0,0.0,0.0,0.0,0.0,0.0,0.0,0.0,0.0,0.0,0.0,0.0,0.0,-6.9518,-7.205,-7.3804,-7.5791,-7.8051,-8.0896,-8.2824,-8.3672,-8.4813,-8.5776,-8.6636,-8.7252,-8.7828,-8.837,-8.8935,-8.9526,-9.0106,-8.9574,-8.943,-8.9514,-8.7977,-8.6454,-8.4731,-8.1444,-7.8359,-7.5195,-7.0113,-6.5796,0.0,-5.9716,-5.8623,-5.803,-5.567,-5.5489,-5.6247,-5.655,-5.7763,-5.9393,-6.0795,-6.3372,-6.6501,-6.9655,-7.4206,-7.8954,-8.2838,-8.5683,-8.8101,-9.0153,-9.0147,-8.964,-8.9314,-8.6344,-8.3591,-8.3012,-8.2179,-8.2432,-8.4859,-8.6996,-8.8915,-9.0618,-9.04,-8.8626,-8.4786,-8.5221,-8.4786,0.0,0.0,0.0,-8.8698,-9.0726,-9.2139,-9.2972,-9.4746,-9.529,-9.4239,-9.395,-9.3153,-9.1813,-9.1813,-9.1414,-9.0581,-8.9785,-8.8988,-8.8152,-8.7394,-8.6887,-8.6597,-8.6126,-8.5909,-8.5837,-8.504,-8.4823,-8.4895,-8.3591,-8.3374,-8.3809,-8.3519,-8.3772,-8.4316,0.0,0.0,0.0,0.0,0.0,0.0,0.0,0.0,0.0,0.0,0.0,0.0,0.0,0.0,0.0,0.0,0.0,0.0,-7.0414,-7.2011,-7.3609,-7.5168,-7.6999,-7.8336,-7.9104,-7.9252,-7.9002,-7.8285,-7.9906,-8.0722,-8.0739,-8.2417,-8.4035,-8.5504,-8.4685,-8.4589,-8.4962,-8.3233,-8.1732,-8.0262,-7.7692,-7.4551,-7.091,-6.5964,-6.3045,-6.1158,-5.7682,-5.6978,-5.7405,-5.5624,-5.5602,-5.6474,-5.7232,-5.8672,-6.0568,-6.3183,-6.5798,-6.9285,-7.5918,-8.0269,-8.3924,-8.8134,-8.9827,-9.0521,-9.0528,-8.9172,-8.7249,-8.4823,-8.1635,-7.8774,0.0,0.0,-7.4935,-7.8955,-7.9861,-8.1744,-8.6416,-8.5909,-8.5257,-8.5837,-8.4642,0.0,0.0,-8.2903,0.0,-8.7899,-9.0292,-9.1921,-9.2791,-9.3624,-9.4094,-9.4094,-9.3298,-9.2537,-9.1813,-9.1776,-9.1306,-9.0473,-8.9712,-8.8915,-8.8043,-8.7322,-8.6561,-8.5909,-8.5909,-8.5873,-8.5764,-8.5004,-8.4207,-8.341,-8.2577,-8.2287,-8.2179,-8.1491,-8.2179,-8.3591,0.0,0.0,0.0,0.0,0.0,0.0,0.0,0.0,0.0,0.0,0.0,0.0,0.0,0.0,0.0,0.0,0.0,0.0,-6.866,-6.9673,-6.9907,-6.905,-7.1856,-7.3285,-7.2899,-7.4815,-7.601,-7.6471,-7.6906,-7.7443,-7.8086,-7.8515,-7.8928,-7.9281,-7.9047,-7.906,-7.9066,-7.7804,-7.6312,-7.4612,-7.1647,-6.9547,-6.7774,-6.3781,-6.1975,-6.1234,-5.833,-5.7853,-5.8356,-5.718,-5.7346,-5.8104,-5.8293,-6.034,-6.341,-6.7162,-7.0953,-7.5084,-8.0542,-8.4569,-8.7932,-9.0863,-9.1042,-9.0336,-8.9788,-8.6611,-8.2939,-7.9933,-7.4899,-7.0372,-6.8162,-6.8706,0.0,-7.479,-7.9462,0.0,-8.7394,-8.9096,0.0,-8.6235,-8.7068,-8.7213,-8.5438,-8.5112,0.0,-8.8007,-8.8263,-8.8879,-9.0255,-9.1668,-9.2428,-9.2428,-9.1632,-9.1414,-9.1813,-9.1197,-9.0219,-8.8843,-8.8626,-8.7793,-8.6489,-8.6271,-8.609,-8.5909,-8.5909,-8.5547,-8.4968,-8.4786,-8.4207,-8.341,-8.2577,-8.2287,-8.2324,-8.2722,-8.3157,-8.37,0.0,0.0,0.0,0.0,0.0,0.0,0.0,0.0,0.0,0.0,0.0,0.0,0.0,0.0,0.0,0.0,0.0,0.0,0.0,-6.8115,-6.7569,-6.6205,-6.7959,-6.8802,-6.8386,-6.9436,-7.0586,-7.1834,-7.148,-7.1943,-7.314,-7.314,-7.3559,-7.4199,-7.3734,-7.3743,-7.402,-7.2585,-7.1201,0.0,0.0,-6.5599,-6.4501,-6.2011,-6.1058,-6.0852,-5.9364,-5.9033,0.0,0.0,0.0,-6.0492,-6.1591,-6.4471,-6.83,-7.2469,0.0,-8.039,-8.5052,-8.8583,-9.1137,-9.2241,-9.1653,-8.9909,-8.6427,-8.302,-7.9038,-7.3406,-6.8597,-6.4649,-6.2223,-6.3164,-6.5844,0.0,0.0,0.0,-8.5982,-8.8408,-8.9133,0.0,-8.9205,0.0,-8.7611,-8.743,-8.7937,-8.9169,-8.8553,-8.8626,-8.9857,-9.1125,-9.1813,-9.1813,-9.1016,-9.0835,-9.1269,-9.0473,-8.9785,-8.9241,-8.8191,-8.743,-8.6887,-8.6199,-8.5909,-8.5909,-8.5909,-8.5619,-8.5185,-8.4859,-8.4207,-8.341,-8.2577,-8.207,-8.1817,-8.2287,-8.2432,-8.2613,0.0,0.0,0.0,0.0,0.0,0.0,0.0,0.0,0.0,0.0,0.0,0.0,0.0,0.0,0.0,0.0,0.0,0.0,0.0,0.0,-6.6011,-6.527,-6.5348,-6.5333,-6.5145,-6.4521,-6.4967,-6.6483,-6.5546,-6.5897,-6.742,-6.7303,-6.8075,-6.9462,-6.8539,-6.8522,-6.9149,-6.7639,-6.6407,-6.5419,-6.3796,-6.2583,-6.163,0.0,-6.0422,-6.0408,-6.0323,-6.0038,0.0,0.0,-6.2328,-6.3638,-6.6043,-6.9835,-7.4232,-7.8403,-8.1815,-8.5151,-8.9222,-9.2013,-9.3617,-9.288,-9.164,-8.8895,-8.2277,-7.8891,-7.4835,-6.6497,-6.2875,-6.0484,-5.8058,-5.8637,-6.1353,-6.7221,0.0,-7.6674,-8.4135,-8.6344,-8.7756,-8.935,-9.0799,-9.1125,-8.9821,-8.9531,-8.9785,-9.069,-8.9929,-8.9748,-9.0545,-9.1269,-9.1704,-9.1813,-9.1233,-9.0871,-9.0762,-8.9966,-8.9857,-9.04,-8.8227,-8.7464,-8.7971,-8.6561,-8.5909,-8.5909,-8.5909,-8.5837,-8.5692,-8.5112,-8.4243,-8.3265,-8.2686,-8.1961,-8.1273,-8.1273,-8.1346,-8.1527,0.0,0.0,0.0,0.0,0.0,0.0,0.0,0.0,0.0,0.0,-6.5936,-6.66,0.0,0.0,0.0,0.0,0.0,0.0,0.0,0.0,0.0,-6.4335,-6.5036,-6.4748,-6.3389,-6.3897,-6.4382,-6.4728,-6.3164,-6.2891,-6.3867,-6.3164,-6.2967,-6.3235,-6.3071,-6.3059,-6.3194,-6.2824,-6.2474,-6.2119,-6.1625,-6.1222,-6.0873,-6.0531,0.0,0.0,-6.0323,0.0,0.0,0.0,-6.5863,-6.7863,-6.9795,-7.416,-7.9426,-8.3709,-8.6351,-8.8667,-9.2038,-9.3808,-9.4566,-9.3783,-9.0367,-8.5964,-8.1017,-7.4968,0.0,0.0,-5.8709,-5.6319,-5.3965,-5.6319,-6.0883,-6.7836,-7.2327,-7.7869,-8.6416,-8.779,-8.8589,0.0,-9.0654,-9.0943,-9.1342,-9.0183,0.0,0.0,-9.0219,-8.9748,-9.0545,-9.0726,-9.1125,-9.1776,-9.232,-9.2247,-9.1595,-9.0799,-9.011,-8.9603,-8.8517,-8.7718,-8.7213,-8.6308,-8.5909,-8.5909,-8.5909,-8.5511,-8.4931,-8.5475,-8.4424,-8.2541,-8.3084,-8.2794,-8.207,-8.207,-8.2505,-8.3193,0.0,0.0,0.0,0.0,0.0,0.0,0.0,0.0,-6.3774,-6.5978,-6.7381,-6.7498,-6.578,0.0,0.0,0.0,0.0,0.0,0.0,0.0,0.0,0.0,0.0,0.0,-6.3569,-6.3526,-6.3978,-6.4913,0.0,-6.2376,-6.3633,-6.2306,-6.1718,-6.1718,-6.1648,-6.1588,-6.1573,-6.1461,-6.1331,-6.1174,-6.0983,-6.0828,-6.0681,0.0,0.0,0.0,0.0,0.0,0.0,0.0,-6.6045,-6.9451,-7.3402,-7.8631,-8.3965,-8.7247,-8.9763,-9.1938,-9.3807,-9.5034,-9.5284,-9.3117,-8.9156,-8.4012,-7.7184,0.0,0.0,-5.8908,-5.689,-5.5822,-5.4085,-5.6319,0.0,-6.5229,-6.838,-7.3378,-8.2613,-8.4243,0.0,-8.9531,-9.1088,-9.1668,0.0,-9.0473,-9.073,-9.2445,-9.0987,-9.0545,-9.1776,-9.2247,-9.2284,-9.1813,-9.2175,-9.1994,-9.1197,-9.0364,-9.0002,-9.0002,-8.8372,-8.7573,-8.7611,-8.6416,-8.5909,-8.5909,-8.5909,-8.5692,-8.533,-8.5728,-8.4968,-8.3591,-8.3953,-8.3627,-8.2867,-8.2432,-8.2794,-8.3555,0.0,0.0,0.0,0.0,0.0,0.0,0.0,-6.3944,-6.4992,-6.7971,-6.8825,-6.82,-6.5858,-6.5312,-6.4716,0.0,0.0,0.0,0.0,0.0,0.0,0.0,0.0,0.0,0.0,0.0,0.0,-6.5214,-6.287,0.0,0.0,0.0,0.0,0.0,-6.1588,-6.156,-6.1513,-6.1331,-6.1097,0.0,0.0,-6.0612,0.0,0.0,0.0,0.0,0.0,0.0,0.0,0.0,-6.4851,-6.8828,-7.4199,-8.0502,-8.6301,-8.8129,-9.1087,-9.3897,-9.4551,-9.5613,-9.5734,-9.2383,-8.7807,-8.1972,-7.38,-6.8631,0.0,-5.7011,-5.6081,-5.6159,-5.5182,-5.6575,-5.9035,0.0,-6.4424,-6.87,-7.8303,-8.0512,-8.3121,0.0,-9.1125,0.0,-9.0726,-9.0762,0.0,-9.2852,-9.2006,-9.1849,-9.2935,-9.395,-9.3732,-9.2102,-9.2066,-9.1668,-9.0871,-9.0038,-8.9966,-9.0581,-8.8517,-8.7793,-8.8116,-8.6778,-8.6054,-8.5909,-8.5909,-8.5909,-8.5909,-8.5909,-8.5438,-8.4678,-8.4678,-8.4316,-8.3664,-8.2831,-8.3048,-8.3736,0.0,0.0,0.0,0.0,0.0,0.0,0.0,-6.3074,-6.4614,-6.8747,-6.8669,-6.7537,-6.578,-6.6873,-6.6165,0.0,0.0,0.0,0.0,0.0,0.0,0.0,0.0,0.0,0.0,0.0,0.0,-6.4314,-6.2557,0.0,0.0,0.0,0.0,0.0,0.0,-6.1671,-6.1668,-6.1456,0.0,0.0,0.0,0.0,0.0,0.0,0.0,0.0,0.0,0.0,0.0,0.0,0.0,-6.5245,-6.8874,-7.6521,-8.417,-8.4415,0.0,0.0,-9.3739,-9.5267,-9.5852,-9.2459,-8.6083,-7.9143,-7.3411,0.0,-6.021,-5.6772,-5.5818,-5.5588,-5.5456,-5.5895,-5.7732,-6.244,-6.4037,-6.8021,0.0,0.0,0.0,0.0,0.0,0.0,-9.0618,-9.1269,-9.174,-9.1926,-9.3153,-9.3624,-9.3044,-9.4457,-9.4529,-9.2935,-9.2899,-9.2501,-9.1704,-9.0871,-9.0545,-9.0581,-8.964,-8.8843,-8.8152,-8.7322,-8.6525,-8.5909,-8.5909,-8.5909,-8.5909,-8.5909,-8.5438,-8.4678,-8.4678,-8.4642,-8.4497,-8.3664,-8.3881,-8.4569,0.0,0.0,0.0,0.0,0.0,0.0,0.0,-6.2458,-6.3711,-6.8039,-6.923,-6.9215,-6.8005,-6.8474,-6.6712,0.0,0.0,0.0,0.0,0.0,0.0,0.0,0.0,0.0,0.0,0.0,-6.3167,-6.2623,-6.1956,0.0,0.0,0.0,0.0,0.0,0.0,-6.166,-6.1576,-6.1328,0.0,0.0,0.0,0.0,0.0,0.0,0.0,0.0,0.0,0.0,-5.921,0.0,0.0,0.0,-6.2853,-6.8253,0.0,0.0,-8.5693,-8.9838,-9.252,-9.4594,-9.5226,-9.1844,-8.4915,-7.7627,-7.2869,0.0,-5.9685,-5.7148,-5.6627,-5.6594,-5.6418,-5.6171,-5.684,-5.9412,-5.8827,-6.0943,-6.9163,0.0,0.0,0.0,-8.5587,0.0,0.0,0.0,-9.2034,-9.2667,-9.475,-9.5668,-9.4827,-9.469,-9.4167,-9.3044,-9.2537,-9.1885,-9.1088,-9.0762,-9.0581,-9.0581,-8.9314,-8.8517,-8.8152,-8.6923,-8.6199,-8.5909,-8.5909,-8.5909,-8.5909,-8.5909,-8.5692,-8.5402,-8.5402,-8.5402,-8.533,-8.4497,-8.4714,-8.533,0.0,0.0,0.0,0.0,0.0,-5.8408,-6.1897,-6.2162,-6.347,-6.7578,-6.9161,-6.9684,-6.9098,-6.8122,-6.5895,-6.1903,0.0,0.0,0.0,0.0,0.0,0.0,0.0,0.0,0.0,0.0,-6.2457,-6.1595,-6.1595,-6.1615,0.0,0.0,-6.1718,-6.1718,0.0,0.0,0.0,0.0,0.0,0.0,0.0,0.0,0.0,0.0,0.0,0.0,0.0,0.0,0.0,0.0,0.0,0.0,0.0,0.0,0.0,0.0,-8.1175,-8.637,-8.9452,-9.234,-9.3726,-9.0631,-8.3524,-7.6209,-7.213,-6.5191,-5.9101,-5.7526,-5.7221,-5.7302,-5.7306,-5.6742,-5.6502,-5.7251,-5.5944,-5.7072,-6.3547,-6.5232,0.0,0.0,0.0,-8.3883,0.0,-9.0806,-9.303,-9.4031,-9.5753,-9.6563,-9.6137,-9.4713,-9.367,-9.309,-9.251,-9.1712,-9.0618,-9.0581,-9.0581,-9.0581,-8.9205,-8.8444,-8.8152,-8.6851,-8.6126,-8.5909,-8.5909,-8.5909,-8.5909,-8.5909,-8.5909,-8.5909,-8.5909,-8.5909,-8.5837,-8.5257,-8.5402,-8.5801,0.0,0.0,0.0,0.0,0.0,0.0,0.0,-6.2287,-6.414,-6.7655,-6.8107,-6.8122,-6.8122,-6.5077,-6.3399,-6.4182,0.0,0.0,0.0,0.0,0.0,0.0,0.0,0.0,0.0,0.0,-6.2469,-6.1595,-6.1595,-6.1615,-6.1718,-6.1718,-6.1718,-6.1718,0.0,0.0,0.0,0.0,0.0,0.0,0.0,0.0,-6.0422,0.0,0.0,0.0,0.0,0.0,0.0,0.0,0.0,0.0,0.0,-5.7963,-5.912,0.0,-7.4458,-8.3199,-8.3997,-8.7951,-9.1243,-8.8759,-8.1767,-7.4604,-7.1121,-6.3856,-5.7801,-5.7639,-5.7261,-5.7209,-5.7951,-5.7367,-5.6816,-5.689,-5.7294,-5.8969,-6.3027,-6.6464,0.0,0.0,0.0,-7.8765,-8.4244,-9.0634,-9.4867,-9.5907,-9.5818,0.0,-9.6375,-9.4445,-9.3332,-9.3296,-9.326,-9.2417,-9.0618,-9.0581,-9.0581,-9.0581,-8.9785,-8.8988,-8.8152,-8.7394,-8.6597,-8.5909,-8.5909,-8.5909,-8.5909,-8.5909,-8.5909,-8.5909,-8.5909,-8.5909,-8.5909,-8.5873,-8.5873,-8.5909,0.0,0.0,0.0,0.0,0.0,0.0,0.0,-5.8754,-6.0184,-6.2451,-6.3862,-6.5077,-6.6249,-6.4375,-6.336,-6.4221,0.0,0.0,0.0,0.0,0.0,0.0,0.0,0.0,0.0,0.0,-6.2149,-6.2508,-6.2508,-6.2528,-6.2602,-6.2602,-6.2251,-6.1705,-6.1705,-6.1509,0.0,0.0,0.0,0.0,0.0,-5.9933,-5.9529,0.0,0.0,0.0,0.0,0.0,0.0,0.0,0.0,0.0,0.0,0.0,0.0,-5.9526,-6.5879,-7.3361,-7.6479,-7.9361,-8.1156,-7.9818,-7.4851,-6.9884,-6.8209,-6.2671,-5.7846,-5.7818,-5.74,-5.7154,-5.7489,-5.721,-5.7544,-5.9397,-5.852,-5.8677,0.0,0.0,0.0,-7.3836,-8.1953,-8.8202,0.0,0.0,-9.5429,-9.5218,-9.5611,-9.5881,-9.58,-9.4862,-9.4041,-9.3534,-9.2441,-9.1523,-9.0819,-9.0819,-9.0486,-8.9748,-8.8951,-8.8191,-8.7319,-8.6597,-8.6126,-8.5909,-8.5909,-8.5909,-8.5909,-8.5909,-8.5909,-8.5909,-8.5909,-8.5909,-8.5909,-8.5909,-8.5909,-8.5909,0.0,0.0,0.0,0.0,0.0,0.0,0.0,-5.6897,-5.81,-5.9207,-6.062,-6.2306,-6.4375,-6.2462,-6.1915,-6.4104,0.0,0.0,0.0,0.0,0.0,0.0,0.0,0.0,-6.1615,-6.1615,-6.2196,-6.3397,-6.3709,-6.3881,-6.395,-6.4268,-6.3647,-6.2164,-6.1751,-6.1276,0.0,0.0,0.0,0.0,-6.0418,-6.0188,-5.9606,0.0,0.0,0.0,0.0,0.0,0.0,0.0,0.0,0.0,0.0,0.0,0.0,0.0,-6.0179,-6.5108,-6.9655,-7.2826,-7.4622,-7.3781,-6.9999,-6.6369,-6.5872,-6.1669,-5.7987,-5.8266,-5.783,-5.74,-5.7423,-5.6975,-5.7076,-5.8639,-5.7824,-5.7753,0.0,0.0,0.0,-7.4263,0.0,0.0,0.0,-9.334,-9.485,-9.426,-9.4777,-9.5047,-9.4918,-9.4283,-9.3764,-9.3408,-9.2381,-9.1389,-9.0577,-9.05,-8.9947,-8.9069,-8.8193,-8.7464,-8.6996,-8.6235,-8.5909,-8.5909,-8.5909,-8.5909,0.0,-8.5909,-8.5909,-8.5909,-8.5909,-8.5909,-8.5909,-8.5909,-8.5909,-8.5909,0.0,0.0,0.0,0.0,0.0,0.0,0.0,0.0,0.0,0.0,-5.8425,-5.9846,-6.2267,-5.9651,-5.9378,0.0,0.0,0.0,0.0,0.0,0.0,0.0,0.0,0.0,-6.1598,-6.1595,-6.2442,-6.4177,-6.5074,-6.5511,-6.5609,-6.6408,-6.5478,-6.3059,-6.1903,-6.0921,-6.0061,-5.9639,-5.9364,-5.9361,-6.0047,-6.0283,0.0,0.0,0.0,0.0,0.0,0.0,0.0,0.0,0.0,0.0,0.0,0.0,0.0,0.0,0.0,0.0,0.0,-6.763,-7.0495,-6.9731,-6.6598,-6.3747,-6.3747,-6.0676,0.0,-5.8668,-5.829,-5.7769,-5.7654,-5.6687,-5.5875,-5.5765,-5.5974,-5.6631,-5.8065,-6.3392,0.0,0.0,-8.0868,0.0,-8.4932,-9.0138,-9.3425,-9.3227,-9.3386,-9.3621,-9.3813,-9.2927,-9.2529,-9.2831,-9.2719,-9.1799,-9.0039,-8.9778,-8.9264,-8.8426,-8.7473,-8.6996,-8.6923,-8.6199,-8.5909,0.0,-8.5909,-8.5909,-8.5909,-8.5909,-8.5909,-8.5909,-8.5909,-8.5909,-8.5909,-8.5909,-8.5909,-8.5909,0.0,0.0,0.0,0.0,0.0,0.0,0.0,0.0,0.0,0.0,-5.7019,-5.7426,-5.805,-5.7387,-5.7543,0.0,0.0,0.0,0.0,0.0,0.0,0.0,0.0,0.0,-6.1598,-6.1595,-6.2434,-6.4111,-6.5007,-6.5757,-6.6408,-6.6662,-6.5776,-6.3861,-6.2247,-6.0619,-5.9031,-5.8845,-5.8597,-5.85,-5.93,-5.9153,0.0,0.0,0.0,0.0,-5.9109,-5.8765,0.0,0.0,0.0,0.0,0.0,0.0,0.0,0.0,-5.6243,-5.7008,-5.7619,0.0,-6.1096,-6.0905,-6.0102,-5.9376,0.0,-5.8077,-5.6969,-5.7147,-5.7032,-5.7071,-5.7718,-5.6844,-5.6749,-5.8896,-5.8222,-5.8229,-6.0428,-6.8311,0.0,-8.1563,-8.6502,-8.8902,-8.7732,-9.0534,-9.2427,-9.2387,-9.2584,-9.2487,-9.213,-9.2458,-9.1912,-9.0299,-9.0813,-9.0814,-9.0227,-8.9569,-8.869,-8.759,-8.7333,-8.6858,-8.6163,-8.5982,-8.5909,-8.5909,-8.5909,-8.5909,-8.5909,-8.5909,-8.5909,-8.5909,-8.5909,-8.5909,-8.5909,-8.5909,-8.5909,-8.5909,0.0,0.0,0.0,0.0,0.0,0.0,0.0,0.0,0.0,0.0,0.0,0.0,0.0,0.0,0.0,0.0,0.0,0.0,0.0,0.0,0.0,0.0,0.0,-6.1663,-6.1648,-6.163,-6.2625,-6.4757,-6.5567,-6.6425,-6.7296,-6.7758,-6.644,-6.3503,-6.0978,-5.9005,-5.758,-5.78,-5.8035,-5.8284,-5.9007,0.0,0.0,0.0,0.0,0.0,-5.9415,-5.8651,0.0,-5.9224,-5.8689,-5.7351,0.0,0.0,0.0,0.0,-5.6243,-5.6434,-5.5632,-5.632,-5.7313,-5.7313,-5.7313,-5.739,-5.781,-5.7237,-5.6702,-5.7044,-5.6841,-5.674,-5.7197,-5.6439,-5.6367,-5.8123,-5.8298,-5.9947,-6.504,0.0,-7.7463,-8.3569,-8.6648,-8.8394,0.0,-8.9775,-9.0645,-9.0852,-9.0875,-9.0883,-9.081,-9.0958,-9.0521,-8.9419,-8.9124,-8.9053,-8.9312,-8.8728,-8.7888,-8.6865,-8.6753,-8.6204,-8.5366,-8.5728,-8.5692,-8.5366,-8.5728,-8.5909,-8.5909,-8.5909,-8.5909,-8.5909,-8.5909,-8.5909,-8.5909,-8.5909,-8.5909,-8.5909,0.0,0.0,0.0,0.0,0.0,0.0,0.0,0.0,0.0,0.0,0.0,0.0,0.0,0.0,0.0,0.0,0.0,0.0,0.0,0.0,0.0,0.0,0.0,-6.178,-6.1894,-6.1708,-6.2828,-6.5297,-6.6373,-6.7339,-6.8232,-6.9167,-6.711,-6.2567,-5.9547,-5.7474,-5.6281,-5.6931,-5.7594,-5.8287,-5.8859,0.0,0.0,0.0,0.0,0.0,0.0,0.0,0.0,-5.8574,-5.7886,-5.6549,-5.7428,0.0,0.0,0.0,0.0,0.0,-5.5899,-5.6358,-5.6893,-5.6511,-5.6511,-5.674,-5.739,-5.6931,-5.6574,-5.7232,-5.6853,-5.6459,-5.6494,-5.6114,-5.5998,-5.6588,-5.8424,-6.2617,-7.0598,-7.3616,-7.7275,-8.3417,-8.4932,0.0,-8.7991,-8.8691,-8.9201,-8.9534,-8.9457,-8.9569,-8.9966,-8.9715,-8.9422,-8.9198,-8.7912,-8.7399,-8.7839,-8.7375,-8.6793,-8.6028,-8.5881,-8.5441,-8.4714,-8.5511,-8.5475,-8.475,-8.5547,0.0,-8.5728,-8.5837,-8.5909,-8.5909,-8.5909,-8.5909,-8.5909,-8.5909,-8.5909,-8.5909,0.0,0.0,0.0,0.0,0.0,0.0,0.0,0.0,0.0,0.0,0.0,0.0,0.0,0.0,0.0,0.0,0.0,0.0,0.0,0.0,0.0,-6.0549,-6.1327,-6.2061,-6.2795,-6.2086,-6.2581,-6.44,-6.6744,-6.8292,-6.9124,-7.0013,-6.7333,-6.1755,-6.0534,-5.8685,-5.6503,-5.7003,-5.7295,-5.7568,-5.8654,0.0,0.0,0.0,0.0,0.0,0.0,0.0,0.0,-5.8803,-5.7542,-5.5747,-5.6549,0.0,0.0,0.0,0.0,0.0,-5.716,-5.8116,-5.823,-5.6129,-5.6091,-5.6473,-5.5899,-5.567,-5.5632,-5.5734,-5.5657,-5.5785,-5.6459,-5.7122,-5.7867,-5.9033,-6.2932,-6.8343,-7.5483,-7.7875,-8.0084,-8.3181,0.0,-8.7688,-8.6794,-8.8741,-9.0175,-9.041,-9.0667,-9.0551,-9.004,-9.085,-9.0446,-8.8463,-8.8133,-8.7435,-8.6187,-8.5422,-8.4847,-8.4387,-8.5008,-8.5082,-8.4714,-8.5511,-8.5475,-8.475,-8.5547,-8.5511,-8.4931,-8.5619,-8.5909,-8.5909,-8.5909,-8.5909,-8.5909,-8.5909,-8.5909,-8.5982,0.0,0.0,0.0,0.0,0.0,0.0,0.0,0.0,0.0,0.0,0.0,0.0,0.0,0.0,0.0,0.0,0.0,0.0,0.0,0.0,0.0,-6.0354,-6.1252,-6.2106,-6.2962,-6.3491,-6.5045,-6.7712,-6.938,-7.0856,-7.2053,-6.8699,-6.5191,-6.1573,-5.9313,-5.7626,-5.6503,-5.6603,-5.7155,-5.7972,0.0,0.0,0.0,0.0,0.0,0.0,0.0,0.0,0.0,0.0,-5.7084,-5.5479,-5.5823,0.0,0.0,0.0,0.0,0.0,-5.6358,-5.7122,-5.7466,-5.632,-5.7008,-5.7734,-5.6931,-5.6052,-5.567,-5.6549,-5.6396,-5.6434,-5.7734,-5.9033,-6.1129,-6.4899,-6.9,-7.2897,-7.6402,-7.8677,-8.0615,0.0,0.0,-8.6705,-8.6744,-8.8215,-8.9299,-8.9707,-8.9021,-8.8609,-8.8572,-8.8133,-8.7399,-8.6297,-8.6261,-8.5673,-8.4499,-8.4031,-8.3827,-8.3987,-8.4173,-8.3956,-8.341,-8.4243,-8.4135,-8.3446,-8.4714,-8.504,-8.475,-8.5583,-8.5909,-8.5909,-8.5909,-8.5909,-8.5909,-8.5909,-8.6416,-8.7213,0.0,0.0,0.0,0.0,0.0,0.0,0.0,0.0,0.0,0.0,0.0,0.0,0.0,0.0,0.0,0.0,0.0,0.0,0.0,0.0,-5.9104,-5.9768,-6.1017,-6.2579,-6.4453,-6.5367,-6.7709,-7.1597,-7.2675,-7.3754,-7.4644,-6.8347,-6.4287,-6.2155,-5.8868,-5.7304,-5.7102,-5.6899,-5.7593,-5.887,0.0,0.0,0.0,0.0,0.0,0.0,0.0,0.0,0.0,0.0,0.0,0.0,0.0,0.0,0.0,-5.5403,-5.5403,-5.5479,-5.5899,-5.6434,-5.6893,-5.6893,-5.7734,-5.8574,-5.8727,-5.7619,-5.7084,-5.8994,-5.8689,-5.8421,-5.9491,-6.1554,-6.4879,-7.0381,-7.4191,-7.688,-7.7987,-7.9802,-8.1419,-8.2348,-8.4088,-8.5636,-8.6715,-8.7656,-8.8354,-8.8678,-8.7582,-8.7048,-8.7386,-8.5919,-8.5052,-8.4903,-8.4866,-8.4355,-8.3368,-8.3129,-8.3176,-8.3439,-8.3338,-8.294,-8.236,-8.312,-8.3048,-8.236,-8.399,-8.4569,-8.4497,-8.5475,-8.5909,-8.5909,-8.5909,-8.6018,-8.6126,-8.5945,-8.6887,-8.8188,0.0,0.0,0.0,0.0,0.0,0.0,0.0,0.0,0.0,0.0,0.0,0.0,0.0,0.0,0.0,0.0,0.0,0.0,0.0,0.0,-5.7933,-5.7972,-6.0354,-6.3984,-6.8825,-6.7459,-6.9215,-7.433,-7.595,-7.6349,-7.5533,-7.1039,-6.7179,-6.3904,-6.1276,-5.9687,-5.8897,-5.8686,-5.9132,-5.9957,-5.9505,0.0,0.0,0.0,0.0,0.0,0.0,0.0,0.0,0.0,0.0,0.0,0.0,0.0,-5.5403,-5.5403,-5.5403,-5.5747,-5.7313,-5.7772,-5.781,-5.781,-5.7275,-5.7581,-6.0637,-6.0676,-6.0752,-6.325,-6.3045,-6.2242,-6.1554,-6.4726,-6.8852,-7.3208,-7.6997,-8.0288,-8.2897,0.0,-8.3948,-8.411,-8.5201,-8.5946,-8.5975,-8.7548,-8.8361,-8.7824,-8.7985,-8.7861,-8.7427,-8.6882,-8.6271,-8.571,-8.571,-8.4872,-8.3129,-8.2922,-8.2454,-8.1761,-8.2354,-8.254,-8.236,-8.312,-8.3048,-8.236,-8.399,-8.4279,-8.37,-8.5257,-8.5909,-8.5909,-8.5909,-8.6308,-8.6851,-8.6163,-8.6887,-8.8188,0.0,0.0,0.0,0.0,0.0,0.0,0.0,0.0,0.0,0.0,0.0,0.0,0.0,0.0,0.0,0.0,0.0,0.0,0.0,-5.7348,-5.805,-5.8597,-6.008,-6.3047,-6.7693,-6.9255,-7.2573,-7.7765,-7.7866,-7.6353,-7.3227,-6.8392,-6.4567,-6.1642,-5.9116,-5.7801,-5.7496,-5.7385,-5.8116,-5.9287,-5.9056,-5.9707,0.0,0.0,0.0,0.0,0.0,0.0,0.0,0.0,-5.6778,-5.5403,-5.5403,-5.5403,-5.5403,-5.5403,-5.5403,-5.5556,-5.6167,-5.6702,-5.7084,-5.7084,-5.7237,-5.8154,-6.0943,-6.1363,-6.2166,-6.5773,-6.6254,-6.6063,-6.6292,-6.8929,-7.2291,-7.5959,-7.9496,-8.2336,-8.3977,-8.4545,-8.4683,-8.4386,-8.5336,-8.6047,-8.6229,-8.7193,-8.7763,-8.7528,-8.6851,-8.6415,-8.6344,-8.5081,-8.4289,-8.411,-8.411,-8.3563,-8.2361,-8.2565,-8.2244,-8.1479,-8.2104,-8.2106,-8.1563,-8.2396,-8.2287,-8.1635,-8.3265,-8.3772,-8.3591,-8.5221,-8.5909,-8.5909,-8.5909,-8.6344,-8.6996,-8.6706,-8.7611,-8.8951,0.0,0.0,0.0,0.0,0.0,0.0,0.0,0.0,0.0,0.0,0.0,0.0,0.0,0.0,0.0,0.0,0.0,0.0,-5.6606,-5.7113,-5.7699,-5.8285,-5.9378,-6.1759,-6.5507,-6.9528,-7.3978,-7.8897,-7.8526,-7.6154,-7.1785,-6.7447,-6.4285,-6.2215,-5.9369,-5.8406,-5.8893,-5.8035,-5.8316,-5.9314,-5.9171,-5.9693,0.0,0.0,0.0,0.0,0.0,0.0,0.0,0.0,-5.6549,-5.5403,-5.5403,-5.5403,-5.5403,-5.5403,-5.5021,-5.46,-5.46,-5.4791,-5.5135,-5.567,-5.6664,-5.8498,-6.2357,-6.3427,-6.4955,-6.9693,-6.9846,-6.9349,-7.0228,-7.1833,-7.4087,-7.7449,-8.0812,-8.3346,-8.4368,-8.4506,-8.4309,-8.3731,-8.4452,-8.5085,-8.521,-8.6065,-8.6606,-8.6606,-8.5348,-8.4749,-8.5218,-8.3411,-8.2528,-8.292,-8.298,-8.2479,-8.1352,-8.2206,-8.2066,-8.0942,-8.1852,-8.1889,-8.1128,-8.1672,-8.1635,-8.1201,-8.2794,-8.3483,-8.3591,-8.5221,-8.5909,-8.5909,-8.5909,-8.6344,-8.7032,-8.7032,-8.801,-8.9386,0.0,0.0,0.0,0.0,0.0,0.0,0.0,0.0,0.0,0.0,0.0,0.0,0.0,0.0,0.0,0.0,0.0,0.0,-5.6606,-5.6606,-5.6606,-5.6606,-5.8207,-6.0315,-6.2891,-6.8005,-7.2729,-7.7062,-7.7848,-7.6019,-7.178,-6.9177,-6.7486,-6.6478,-6.3127,-6.2556,-6.3982,-6.137,-6.0329,-6.0382,-6.0171,-5.9963,-5.9769,0.0,0.0,0.0,0.0,0.0,0.0,0.0,-5.6052,-5.5403,-5.5403,-5.5403,-5.5403,-5.5403,-5.418,-5.2843,-5.2843,-5.2231,-5.2028,-5.3722,-5.5403,-5.8421,-6.5184,-6.7324,-6.9578,-7.5501,-7.4049,-7.1985,-7.2864,-7.3017,-7.4125,-7.7449,-8.0812,-8.3346,-8.433,-8.3805,-8.2949,-8.2109,-8.2515,-8.2837,-8.2709,-8.4026,-8.4901,-8.4901,-8.3514,-8.3136,-8.4129,-8.2251,-8.155,-8.2548,-8.2718,-8.1947,-8.0212,-8.1775,-8.1669,-7.9933,-8.1527,-8.1853,-8.1128,-8.1128,-8.1128,-8.1201,-8.2794,-8.3483,-8.3627,-8.5221,-8.5909,-8.5909,-8.5909,-8.6344,-8.7032,-8.7032,-8.801,-8.9386,0.0,0.0,0.0,0.0,0.0,0.0,0.0,0.0,0.0,0.0,0.0,0.0,0.0,0.0,0.0,0.0,0.0,0.0,-5.6606,-5.6606,-5.6606,-5.6606,-5.7621,-5.8558,-5.9339,-6.3243,-6.8273,-7.435,-7.3357,-7.068,-6.6473,-6.5631,-6.4179,-6.2192,-6.2405,-6.1478,-5.9693,-5.9459,-5.9385,-5.9467,-6.0005,-6.0022,-5.9732,0.0,0.0,0.0,0.0,0.0,0.0,0.0,0.0,0.0,-5.5416,-5.5785,-5.6129,-5.5556,-5.5441,-5.5326,-5.4791,-5.4027,-5.3913,-5.6205,-5.8039,-6.0728,-6.6292,-6.8203,-7.0648,-7.7182,-7.6761,-7.531,-7.5539,-7.5119,-7.5462,-7.764,-7.9818,-8.1709,-8.3058,-8.2756,-8.2336,-8.2292,-8.2171,-8.2195,-8.2473,-8.29,-8.3119,-8.3119,-8.2717,-8.2718,-8.3201,-8.214,-8.1811,-8.2443,-8.1355,-8.0568,-8.0212,-7.9965,-7.9895,-7.9897,-8.0368,-8.0766,-8.1128,-8.1672,-8.1925,-8.1998,-8.3048,-8.3809,-8.4424,-8.5475,-8.5909,-8.5909,-8.5909,-8.6344,-8.7104,-8.7648,-8.8517,-8.9459,0.0,0.0,0.0,0.0,0.0,0.0,0.0,0.0,0.0,0.0,-5.5825,-5.6606,0.0,0.0,0.0,0.0,0.0,0.0,0.0,-5.6606,-5.6606,-5.6606,-5.7074,-5.7972,-5.9339,-6.1759,-6.4838,-6.8616,-6.86,-6.6709,-6.321,-6.5216,-6.5158,-6.3439,-6.5519,-6.4549,-6.1318,-6.1123,-6.0426,-5.9572,-6.037,-6.032,-5.9758,0.0,0.0,0.0,0.0,0.0,0.0,0.0,0.0,0.0,-5.5415,-5.5747,-5.59,-5.4728,-5.4256,-5.3913,-5.311,-5.2766,-5.3454,-5.7008,-5.9644,-6.2968,-6.9043,-7.1871,-7.4545,-7.9321,-7.8634,-7.7411,-7.8099,-7.6991,0.0,-7.8252,-7.9627,-8.0774,-8.1586,-8.1452,-8.1208,-8.0921,-8.0946,-8.0975,-8.0899,-8.1489,-8.1755,-8.1414,-8.1679,-8.1968,-8.2127,-8.1457,-8.127,-8.1659,-8.0444,-7.9425,-7.8656,-7.8698,-7.8629,-7.8484,-7.9136,-7.9861,-8.0658,-8.1454,-8.1998,-8.236,-8.3483,-8.4424,-8.5221,-8.5692,-8.5909,-8.5909,-8.5909,-8.6163,-8.6706,-8.779,-8.8517,-8.9096,0.0,0.0,0.0,0.0,0.0,0.0,0.0,0.0,0.0,0.0,-5.5513,-5.6606,0.0,0.0,0.0,0.0,0.0,0.0,0.0,0.0,-5.6606,-5.6606,-5.6684,-5.8168,-6.1288,-6.211,-6.211,-6.1249,-6.3851,-6.3875,-6.1481,-6.6638,-6.8603,-6.7881,-7.0336,-6.9557,-6.6244,-6.4413,-6.2274,-6.0213,-6.0933,-6.0628,-5.9722,-5.9505,0.0,0.0,0.0,0.0,0.0,0.0,0.0,0.0,-5.5413,-5.5389,-5.5108,-5.3517,-5.1849,-5.0397,-4.9824,-5.013,-5.1888,-5.7046,-6.1096,-6.5681,-7.2826,-7.6838,-7.9551,-8.1308,0.0,-7.8596,-8.02,-7.8481,-7.7335,-7.8901,-7.978,-8.0201,-8.0007,-7.9967,-7.9619,-7.8614,-7.9177,-7.9367,-7.8571,-7.986,-8.0466,-7.9708,-8.0352,-8.0769,-8.0791,-8.0259,-8.0013,-8.0199,-7.9547,-7.8268,-7.6203,-7.7579,-7.7579,-7.6203,-7.776,-7.8955,-7.9825,-8.0621,-8.1527,-8.2468,-8.4026,-8.5149,-8.5909,-8.5909,-8.5909,-8.5909,-8.5909,-8.5945,-8.6163,-8.7575,-8.8152,-8.8553,0.0,0.0,0.0,0.0,0.0,0.0,0.0,0.0,0.0,0.0,0.0,0.0,0.0,0.0,0.0,0.0,0.0,0.0,0.0,0.0,-5.6606,-5.6606,-5.7192,-5.7894,-5.8636,-5.8831,-5.8519,-5.7699,-6.0927,-6.1543,-5.9742,-6.4852,-6.6819,-6.6117,-6.8008,-6.6907,-6.3556,-6.114,-5.9693,-5.914,-6.0111,-5.9714,-5.8585,-5.8731,-5.7544,0.0,0.0,0.0,0.0,0.0,0.0,0.0,-5.5425,-5.5389,-5.5338,-5.4957,-5.3607,-5.2499,-5.3722,-5.3683,0.0,-6.0408,-6.6369,-7.1756,-7.5348,-7.6723,-7.7946,-8.0277,-7.9818,-7.9321,-8.0315,-7.8978,-7.7831,-7.8213,-7.8404,-7.8464,-7.8351,-7.8275,-7.81,-7.7769,-7.7876,-7.7851,-7.7699,-7.7965,-7.8116,-7.7965,-7.8116,-7.8234,-7.828,-7.8111,-7.7942,-7.7771,-7.6968,-7.6162,-7.537,-7.508,-7.508,-7.537,-7.6348,-7.7579,-7.8992,-7.9788,-8.1273,-8.3301,-8.4279,-8.5149,-8.5909,-8.5909,-8.5909,-8.5909,-8.5909,-8.6271,-8.6815,-8.7141,-8.8082,-8.9205,0.0,0.0,0.0,0.0,0.0,0.0,0.0,0.0,0.0,0.0,0.0,0.0,0.0,0.0,0.0,0.0,0.0,0.0,0.0,0.0,-5.6606,-5.6606,-5.7387,-5.7621,-5.7231,-5.7582,-5.7426,-5.6606,-5.8395,-5.9405,-5.9826,-6.4123,-6.6326,-6.6789,-6.8476,-6.7107,-6.3375,-6.1197,-5.9732,-5.8904,-5.9281,-5.901,-5.8404,-5.8384,-5.7187,-5.5485,-5.552,0.0,0.0,0.0,0.0,0.0,0.0,0.0,-5.4774,-5.4331,-5.3249,-5.2346,-5.2805,0.0,0.0,-6.4153,0.0,-7.4622,-7.6303,-7.6379,-7.6723,-7.8863,-7.8978,-7.8825,-7.9245,-7.8596,-7.7755,-7.6914,-7.7144,-7.7069,-7.6177,-7.6294,-7.6464,-7.6328,-7.6245,-7.6221,-7.6221,-7.6562,-7.6621,-7.6303,-7.7303,-7.7666,-7.6954,-7.736,-7.7236,-7.6378,-7.568,-7.4838,-7.3957,-7.3921,-7.3921,-7.3957,-7.479,-7.6203,-7.8195,-8.0151,-8.1744,-8.2976,-8.4171,-8.4931,-8.5366,-8.5728,-8.5909,-8.5909,-8.5909,-8.6126,-8.6525,-8.6887,-8.7793,-8.8879,0.0,0.0,0.0,0.0,0.0,0.0,0.0,0.0,0.0,0.0,0.0,0.0,0.0,0.0,0.0,0.0,0.0,0.0,0.0,0.0,0.0,-5.6606,-5.7231,-5.727,-5.6606,-5.7231,-5.727,-5.6606,-5.6606,-5.8124,-6.1119,-6.3943,-6.6186,-6.7851,-6.8841,-6.7282,-6.3826,-6.1491,-5.9845,-5.8771,-5.8467,-5.8335,-5.8282,-5.8033,-5.6913,-5.5535,-5.5535,-5.5535,-5.5547,-5.5577,0.0,0.0,0.0,0.0,-5.4154,-5.3357,-5.2291,-5.1326,-5.1047,0.0,-5.9529,-6.7286,-7.2138,0.0,-7.6265,-7.5959,-7.5883,-7.7296,-7.7564,-7.7602,-7.7755,-7.7678,-7.7067,-7.5539,-7.5844,-7.5712,-7.4135,-7.4408,-7.4714,-7.4638,-7.452,-7.4516,-7.4667,-7.516,-7.5276,-7.4787,-7.6452,-7.6983,-7.57,-7.6526,-7.6479,-7.5134,-7.4718,-7.3859,-7.2509,-7.316,-7.316,-7.2509,-7.3595,-7.5297,-7.7579,-8.0513,-8.2106,-8.2541,-8.3772,-8.4497,-8.4931,-8.5475,-8.5764,-8.5909,-8.5909,-8.5909,-8.5982,-8.6597,-8.743,-8.8336,0.0,0.0,0.0,0.0,0.0,0.0,0.0,0.0,0.0,0.0,-5.3444,-5.4029,0.0,0.0,0.0,0.0,0.0,0.0,0.0,0.0,0.0,-5.6606,-5.6684,-5.6723,-5.6606,-5.6723,-5.6723,-5.6606,-5.6606,-5.9065,-6.3787,-6.42,-6.5319,-6.6879,-6.4829,-6.3612,-6.2758,-5.8038,-5.6626,-5.7564,-5.7651,-5.745,-5.7059,-5.7174,-5.6554,-5.5604,-5.5604,-5.5604,-5.5615,-5.5671,-5.566,0.0,0.0,0.0,-5.4326,-5.4096,-5.2365,-5.1002,0.0,0.0,-6.3197,0.0,-7.1259,-7.3743,0.0,0.0,-7.5539,0.0,-7.5806,-7.6036,-7.6761,-7.6303,-7.5501,-7.4545,-7.4469,-7.4201,-7.3267,-7.3072,-7.304,-7.3021,-7.2851,-7.2999,-7.372,-7.3227,-7.3133,-7.374,-7.3436,-7.3172,-7.3042,-7.3757,-7.3694,-7.2596,-7.3123,-7.2834,-7.1675,-7.1784,-7.1784,-7.1712,-7.3921,-7.5841,-7.7543,-7.939,-8.1346,-8.3301,-8.2831,-8.3809,-8.5692,-8.5112,-8.5257,-8.5909,-8.5909,-8.5909,-8.5909,-8.6018,-8.6959,-8.8188,0.0,0.0,0.0,0.0,0.0,0.0,0.0,0.0,0.0,0.0,0.0,-5.2741,0.0,0.0,0.0,0.0,0.0,0.0,0.0,0.0,0.0,-5.5162,-5.5123,-5.5357,-5.5864,-5.5864,-5.6098,-5.6606,-5.6606,-5.8987,-6.3594,-6.4057,-6.5959,-6.8798,-6.4723,-6.2652,-6.196,-5.7707,-5.5974,-5.6113,-5.6574,-5.656,-5.6308,-5.6298,-5.6032,-5.5615,-5.5615,-5.5593,-5.5531,-5.5638,-5.5638,-5.5626,-5.566,0.0,0.0,0.0,-5.3457,-5.308,-5.5581,-5.8459,-6.1898,0.0,-6.9349,-7.145,-7.359,0.0,-7.424,-7.466,-7.4393,-7.4354,-7.5157,-7.5004,-7.4354,-7.3017,-7.3208,-7.3246,-7.2367,-7.2172,-7.2236,-7.2693,-7.2186,-7.2301,-7.3571,-7.2925,-7.2793,-7.3687,-7.2965,-7.2491,-7.2623,-7.2619,-7.2228,-7.1392,-7.1865,-7.1745,-7.091,-7.1277,-7.1494,-7.1531,-7.3957,-7.5732,-7.6891,-7.8955,-8.073,-8.2179,-8.2251,-8.3157,-8.4569,-8.4642,-8.5149,-8.5909,-8.5909,-8.5909,-8.5909,-8.5909,-8.6597,-8.7573,0.0,0.0,0.0,0.0,0.0,0.0,0.0,0.0,0.0,0.0,0.0,0.0,0.0,0.0,0.0,0.0,0.0,0.0,0.0,0.0,0.0,-5.4029,-5.4225,-5.4615,-5.5281,-5.532,-5.5747,-5.6606,-5.6606,-5.9143,-6.3984,-6.4179,-6.6946,-7.1423,-6.6219,-6.3332,-6.2134,-5.8604,-5.6925,-5.6612,-5.5987,-5.5676,-5.5537,-5.542,-5.5374,-5.533,-5.5561,-5.5566,-5.5558,-5.5615,-5.5626,-5.5588,-5.5462,-5.4951,0.0,0.0,0.0,0.0,0.0,0.0,-5.9185,-6.3427,-6.6025,-6.8279,0.0,0.0,-7.2559,0.0,-7.3093,-7.2788,-7.317,-7.359,-7.3361,-7.1642,-7.1909,-7.1947,-7.0877,-7.0663,-7.0823,-7.145,-7.0816,-7.0896,-7.2396,-7.1674,-7.1522,-7.2528,-7.175,-7.1293,-7.1459,-7.1408,-7.1046,-7.0239,-7.1046,-7.1174,-7.0403,-7.1132,-7.1494,-7.1531,-7.4115,-7.581,-7.6647,-7.9013,-8.0575,-8.134,-8.178,-8.2686,-8.3845,-8.4207,-8.4968,-8.5909,-8.5909,-8.5909,-8.5909,-8.5909,-8.638,-8.7104,0.0,0.0,0.0,0.0,0.0,0.0,0.0,0.0,0.0,0.0,0.0,0.0,-5.1453,-5.1453,-5.1804,-5.2704,-5.2782,0.0,0.0,0.0,0.0,-5.4029,-5.4771,0.0,-5.532,-5.532,-5.5747,-5.6606,-5.6606,-6.0041,-6.6561,-6.5002,-6.7888,-7.4095,-6.8903,-6.5702,-6.3943,-6.0293,-5.962,-6.0592,-5.6467,-5.4687,-5.457,-5.4559,-5.4549,-5.4664,-5.5434,-5.566,-5.5626,-5.5682,-5.566,-5.5473,-5.4759,-5.4549,-5.4154,0.0,0.0,0.0,0.0,-5.3709,0.0,-5.7886,0.0,0.0,0.0,0.0,0.0,-7.1642,-7.1811,-7.1527,-7.0763,-7.1947,-7.2482,-7.0763,-7.0533,-6.996,-6.8317,-6.7981,-6.7935,-6.8057,-6.7797,-6.8014,-6.8977,-6.8203,-6.8033,-6.8977,-6.8256,-6.7832,-6.8041,-6.9479,-6.9776,-6.8651,-7.0871,-7.1525,-7.0403,-7.1132,-7.1494,-7.1531,-7.458,-7.646,-7.7335,-7.9658,-8.1167,-8.1941,-8.1375,-8.2468,-8.4569,-8.3845,-8.4497,-8.5909,-8.5909,-8.5909,-8.5909,-8.5909,-8.638,-8.7032,0.0,0.0,0.0,0.0,0.0,0.0,0.0,0.0,0.0,0.0,0.0,0.0,0.0,-5.2741,-5.3171,-5.3522,-5.4068,0.0,0.0,0.0,0.0,-5.4029,-5.4303,-5.4732,-5.5281,-5.532,-5.5747,-5.6606,-5.6606,-5.8675,-6.2696,-6.3204,-6.5077,-6.7888,-6.6017,-6.4531,-6.3201,-5.9003,-5.7225,-5.7062,-5.5358,-5.463,-5.4395,-5.328,-5.3164,-5.3626,-5.3356,-5.3962,-5.4912,-5.4934,-5.5269,-5.5605,-5.5357,-5.528,-5.5115,0.0,0.0,0.0,0.0,0.0,0.0,-5.6511,-5.8383,-6.0332,-6.2853,-6.4993,-6.6789,-6.8203,-6.8508,-6.8547,-6.8776,-6.9311,-6.9502,-6.889,-6.8356,-6.8012,-6.7897,-6.7849,-6.7817,-6.7849,-6.7757,-6.8015,-6.8832,-6.8078,-6.7908,-6.887,-6.7631,-6.7114,-6.779,-6.8395,-6.8577,-6.8236,-7.0104,-7.1057,-7.0829,-7.1669,-7.2357,-7.2868,-7.5388,-7.7262,-7.866,-8.0519,-8.182,-8.2604,-8.1941,-8.2242,-8.3157,-8.341,-8.4135,-8.5185,-8.5692,-8.5909,-8.5909,-8.5909,-8.6054,-8.638,0.0,0.0,0.0,0.0,0.0,0.0,0.0,0.0,0.0,-5.1804,0.0,0.0,0.0,0.0,-5.4108,-5.442,-5.4693,-5.4732,-5.4459,-5.4966,-5.5044,-5.4459,-5.4732,-5.5123,-5.5708,-5.5747,-5.602,-5.6606,-5.6606,-5.805,-6.0861,-6.172,-6.3047,-6.4687,-6.3516,-6.3477,-6.4057,-6.0374,-5.8476,-5.7715,-5.5526,-5.4911,-5.5203,-5.4049,-5.4164,-5.4857,-5.4538,-5.5011,-5.5626,-5.478,-5.4857,-5.5203,-5.4626,-5.4434,-5.4423,-5.4331,0.0,0.0,-5.346,0.0,0.0,0.0,0.0,-5.6855,-5.9338,0.0,-6.2968,-6.4649,-6.5222,-6.5605,-6.6101,-6.5757,-6.5643,-6.6537,-6.6216,-6.6063,-6.656,-6.6621,-6.672,-6.7018,-6.7,-6.7164,-6.7714,-6.7174,-6.7059,-6.7714,-6.6723,0.0,-6.6962,-6.7331,-6.7821,-6.856,-6.9782,-7.0746,-7.1433,-7.2059,-7.2757,-7.3499,-7.5936,-7.7867,-7.9274,-8.1186,-8.2501,-8.3255,-8.2634,-8.2545,-8.2954,-8.3048,-8.3847,-8.5046,-8.537,-8.5656,-8.5909,-8.5909,-8.5909,-8.5982,0.0,0.0,0.0,0.0,0.0,0.0,0.0,0.0,-5.1765,-5.2626,0.0,0.0,0.0,0.0,0.0,-5.5318,-5.4615,-5.4459,-5.5279,-5.5357,-5.5357,-5.5357,0.0,0.0,-5.6606,-5.6606,-5.6606,-5.6606,-5.6606,-5.8285,-6.1522,-6.0705,-6.2149,-6.5273,-6.1915,-6.2696,-6.6478,-6.4443,-6.3592,-6.3136,-5.6995,-5.5511,-5.706,-5.6945,-5.7434,-5.8319,-5.9088,-5.8896,-5.7896,-5.5395,-5.4549,-5.4318,-5.2538,-5.2,-5.1951,-5.1949,-5.2423,0.0,0.0,0.0,0.0,0.0,0.0,0.0,-5.5899,0.0,-5.9453,-6.1096,-6.2166,-6.2777,-6.2777,-6.1478,-6.1148,-6.3632,-6.4053,-6.4053,-6.4091,-6.4016,-6.4291,-6.5207,-6.5236,-6.521,-6.529,-6.5226,-6.5248,-6.529,-6.529,-6.5321,-6.5413,-6.6254,-6.7554,-6.9415,-6.9941,-7.0771,-7.21,-7.2327,-7.2752,-7.3324,-7.6368,-7.8226,-7.9128,-8.1545,-8.3122,-8.3859,-8.3246,-8.347,-8.4123,-8.2849,-8.3588,-8.5534,-8.4937,-8.5185,-8.5909,-8.5909,-8.5909,-8.5909,0.0,0.0,0.0,0.0,0.0,0.0,-5.2468,-5.2897,-5.3366,0.0,0.0,0.0,-5.4927,-5.602,-5.684,-5.7074,-5.6879,-5.6606,-5.6255,-5.6255,-5.6255,-5.6255,-5.6489,-5.6606,-5.6606,-5.6606,-5.6606,-5.6606,-5.6606,-5.7074,-5.8011,-5.8363,-5.9378,-6.09,-6.0549,-6.1056,-6.1988,-5.9366,-5.9226,-6.0455,-5.6212,-5.6242,-5.8473,-5.5395,-5.5164,-5.6357,-5.6011,-5.6934,-5.8011,-5.6011,-5.6203,-5.6934,-5.5203,-5.4241,-5.3895,-5.4462,-5.387,-5.3201,-5.3759,0.0,0.0,0.0,0.0,0.0,-5.2957,-5.4295,-5.5976,-5.7619,-5.8689,-5.9453,-6.0064,-5.9759,-5.9491,-5.9606,-6.0141,-6.0714,-6.1363,-6.1922,-6.2595,-6.3503,-6.4123,-6.4719,-6.5307,-6.5368,-6.5352,0.0,-6.5383,-6.5383,-6.5413,-6.6789,-6.8046,-6.9102,-7.055,-7.1456,-7.1824,-7.2953,-7.4237,-7.5606,-7.6889,-7.8586,-8.0553,-8.121,-8.2307,-8.3644,-8.3021,-8.3509,-8.4606,-8.344,-8.3636,-8.4728,-8.4719,-8.5185,-8.5909,-8.5909,-8.5909,-8.5909,0.0,0.0,0.0,0.0,0.0,-5.4654,-5.3444,-5.399,-5.4537,0.0,0.0,0.0,-5.6801,-5.8402,-5.8987,-5.7894,-5.7816,-5.7465,-5.6645,-5.6606,-5.6606,-5.6606,-5.6606,-5.6606,-5.6606,-5.6606,-5.6606,-5.6606,-5.6606,-5.6606,-5.6606,-5.7074,-5.7582,-5.8089,-5.8597,-5.878,-5.8595,-5.6848,-5.7324,-5.9116,-5.6945,-5.7665,-5.9858,-5.8088,-5.8242,-5.9358,-5.8896,-5.9665,-6.0512,-5.7703,-5.6742,-5.6395,-5.4664,-5.428,-5.4587,-5.5049,-5.4709,-5.4222,-5.4664,-5.4146,0.0,-5.3658,0.0,0.0,-5.2117,-5.2308,-5.2881,0.0,-5.4906,-5.5517,-5.632,-5.6473,-5.632,-5.5861,-5.6473,-5.781,-6.0064,-6.1096,-6.1936,-6.2815,-6.335,-6.3962,-6.4802,-6.4879,-6.5031,-6.5375,-6.5413,-6.5413,-6.5413,-6.6674,-6.7767,-6.8521,-7.0024,-7.1244,-7.2142,-7.3091,-7.4342,-7.5862,-7.6911,-7.8344,-8.0087,-8.0769,-8.1831,-8.3119,-8.3081,-8.3583,-8.4315,-8.4143,-8.433,-8.4792,-8.4635,-8.5118,-8.5909,-8.5909,-8.5909,-8.5909,0.0,0.0,0.0,-5.5528,-5.6098,-5.6098,-5.4654,-5.5083,-5.563,0.0,-5.6645,-5.7777,-5.9378,-6.082,-6.0744,-5.8285,-5.8011,-5.7543,-5.6645,-5.6606,-5.6606,-5.6606,-5.6606,-5.6606,-5.6606,-5.6606,-5.6606,-5.6606,-5.6606,-5.6606,-5.6606,-5.6606,-5.6606,-5.6606,-5.6606,0.0,-5.632,-5.6292,0.0,-5.8305,-5.8394,-5.9611,-6.152,-6.2909,-6.3948,-6.4626,-6.4602,-6.4589,-6.3974,-5.9935,-5.6934,-5.4626,-5.2846,-5.3395,-5.4626,-5.4626,-5.5094,-5.5615,-5.5508,-5.4951,-5.4661,-5.6015,-5.4065,0.0,-5.2652,-5.1582,-5.0703,-5.1582,-5.1658,-5.1849,-5.2652,-5.2805,-5.2805,-5.2805,-5.3531,-5.5441,-5.93,-6.0599,-6.1516,-6.2395,-6.2662,-6.3083,-6.3976,-6.4038,-6.4344,-6.507,-6.5222,-6.5261,-6.5261,-6.6178,-6.7018,-6.7744,-6.8941,-7.0593,-7.2632,-7.2917,-7.372,-7.5169,-7.6586,-7.7737,-7.8647,-8.0125,-8.1376,-8.2437,-8.3157,-8.3574,-8.3817,-8.4796,-8.5274,-8.5324,-8.4801,-8.5078,-8.5909,-8.5909,-8.5909,-8.5909,0.0,0.0,0.0,-5.6229,-5.6489,-5.6684,-5.6996,-5.7192,-5.7816,-5.9222,-6.0159,-6.1095,-6.2149,-6.1915,-6.1213,-6.0002,-5.9261,-5.8207,-5.6684,-5.6606,-5.6606,-5.6606,-5.6606,-5.6606,-5.6606,-5.6606,-5.6606,-5.6606,-5.6606,-5.6606,-5.6606,-5.6606,-5.6606,-5.6606,-5.6606,-5.656,-5.6587,0.0,0.0,-5.6013,-5.8327,-6.161,-6.5002,-6.452,-6.454,-6.4809,-6.4674,-6.4589,-6.4166,-6.1281,-5.9088,-5.7242,-5.5511,-5.5203,-5.5472,-5.5472,-5.5588,-5.5682,-5.5615,-5.5443,-5.5143,-5.4776,-5.4141,0.0,-5.2919,-5.204,-5.1582,0.0,-5.204,-5.1849,-5.2652,-5.2805,-5.2805,-5.2805,-5.3531,-5.4639,-5.6167,-5.7657,-5.8918,-5.9759,-6.1019,-6.2204,-6.3083,-6.3159,-6.3236,-6.3388,-6.4038,-6.442,-6.442,-6.5872,-6.6789,-6.6942,-6.9032,-7.0695,-7.1811,-7.3023,-7.4444,-7.6042,-7.6262,-7.7131,-7.8609,-7.895,-8.0277,-8.2399,-8.2551,-8.3385,-8.465,-8.486,-8.514,-8.5399,-8.5427,-8.5624,-8.5909,-8.5909,-8.5909,-8.5909,0.0,0.0,0.0,0.0,-5.7543,-5.7972,-5.8402,-5.8831,-5.9573,-6.0861,-6.2891,-6.4101,-6.3672,-6.3243,-6.211,-5.9924,-5.8948,-5.7933,-5.6684,-5.6606,-5.6606,-5.6606,-5.6606,-5.6606,-5.6606,-5.6606,-5.6606,-5.6606,-5.6606,-5.6606,-5.6606,-5.6606,-5.6138,-5.5357,-5.6216,-5.6138,0.0,0.0,-5.736,-5.722,-5.991,0.0,-6.3779,-6.4987,-6.5799,-6.6191,-6.5645,-6.4876,-6.3648,-6.0596,-5.9281,-5.8434,-5.5895,-5.5665,-5.6368,-5.6368,-5.6049,-5.5692,-5.5638,-5.5593,-5.5431,-5.4915,-5.4484,0.0,0.0,-5.2193,-5.1582,-5.1544,-5.0894,-5.0474,-5.0856,0.0,-5.1097,-5.1505,-5.227,-5.3301,-5.4562,-5.5861,-5.6969,-5.7772,-5.8574,-5.9797,-6.1478,-6.1631,-6.2013,-6.2853,-6.3312,-6.3732,-6.4167,-6.4993,-6.5834,-6.6674,-6.8269,-6.9933,-7.1613,-7.277,-7.4143,-7.5818,-7.608,-7.6834,-7.8049,-7.8441,-7.9746,-8.1755,-8.221,-8.3081,-8.4332,-8.5166,-8.5207,-8.4866,-8.5371,-8.5463,-8.533,-8.5764,-8.5909,-8.5909,-5.6352,0.0,0.0,0.0,0.0,-5.8948,-5.93,-5.9651,-6.0315,-6.1522,-6.4531,-6.6053,-6.4687,-6.426,-6.3047,-6.0588,-5.8636,-5.7582,-5.7582,-5.6801,-5.6333,-5.6333,-5.6528,-5.6528,-5.6333,-5.6528,-5.6606,-5.6606,-5.6606,-5.6606,-5.6606,-5.6606,-5.5864,-5.4537,-5.5777,-5.5694,0.0,0.0,0.0,-5.8866,0.0,-6.227,-6.2082,-6.5312,-6.6912,-6.7291,-6.64,-6.5084,-6.3313,-5.9963,-5.9353,-5.9435,-5.6242,-5.6165,-5.7253,-5.7253,-5.6742,-5.6192,-5.6148,-5.6356,-5.6476,-5.605,-5.5554,-5.4879,0.0,0.0,0.0,0.0,0.0,0.0,0.0,0.0,0.0,0.0,0.0,0.0,0.0,-5.3989,0.0,-5.6434,-5.632,-5.7046,-5.9428,-5.9529,-6.0064,-6.1554,-6.2013,-6.2548,-6.3441,-6.377,-6.4649,-6.6178,-6.698,-6.8623,-7.1183,-7.2113,-7.3413,-7.5091,-7.5742,-7.648,-7.7296,-7.8049,-7.9313,-8.0921,-8.1944,-8.2876,-8.3726,-8.5087,-8.5016,-8.4079,-8.5193,-8.5254,-8.4786,-8.5583,-8.5909,-8.5909,-5.6243,-5.6411,0.0,0.0,0.0,0.0,0.0,0.0,-5.8948,-6.1366,-6.4062,-6.5663,-6.5468,-6.4062,-6.3594,-6.4765,-5.9885,-5.7972,-6.0937,-5.7543,-5.5435,-5.5435,-5.6177,-5.6255,-5.5474,-5.6216,-5.6606,-5.6606,-5.6606,-5.6606,-5.6606,-5.6606,-5.6489,-5.6252,-5.5581,-5.5974,0.0,0.0,-5.7009,0.0,-6.1524,-6.3226,0.0,-6.6507,-6.7118,-6.6596,-6.5581,-6.4989,-6.428,0.0,-6.119,-6.1331,0.0,-5.8011,-5.8165,-5.8165,0.0,0.0,-5.8,-5.9042,-5.9751,-5.8181,-5.8234,-5.8208,-5.6537,0.0,-5.3798,-5.3683,0.0,0.0,0.0,0.0,0.0,0.0,0.0,0.0,-5.0703,-5.0818,-5.2308,-5.6129,-5.5288,-5.5097,-5.6855,-5.6396,-5.6358,-5.7237,-5.8689,-5.9911,-6.0804,-6.2242,-6.3503,-6.4473,-6.5261,-6.6904,-6.9464,-7.0968,-7.2574,-7.4252,-7.498,-7.5703,-7.646,-7.7237,-7.8525,-8.0125,-8.1717,-8.2876,-8.3627,-8.3979,-8.374,-8.3366,-8.5564,-8.5732,-8.4786,-8.5583,-8.5909,-8.5909,-5.6321,-5.6038,0.0,0.0,0.0,0.0,0.0,0.0,-6.3243,-6.3867,-6.6639,-6.8357,-6.7849,-6.6249,-6.5116,-6.4882,-6.1603,-5.9534,-5.9456,-5.7309,-5.6059,-5.6059,-5.6411,-5.645,-5.6059,-5.6411,-5.6606,-5.6606,-5.6606,-5.6606,-5.6606,-5.6606,-5.6059,-5.5081,-5.5179,0.0,-5.4749,0.0,-5.7372,0.0,0.0,-6.3152,0.0,-6.5654,-6.5936,-6.5145,-6.4109,-6.363,-6.305,0.0,-6.0362,0.0,0.0,0.0,0.0,-5.8319,0.0,0.0,0.0,0.0,-6.0234,-5.7973,-5.8359,-5.8732,-5.6448,-5.5351,-5.4727,-5.4193,0.0,0.0,0.0,0.0,0.0,0.0,-5.162,0.0,0.0,0.0,-5.0627,0.0,0.0,0.0,-5.4982,-5.5288,-5.5556,-5.5861,-5.7008,-5.823,-5.9568,-6.079,-6.2051,-6.3388,-6.4726,-6.6369,-6.8432,-7.0577,-7.2508,-7.4188,-7.492,-7.5666,-7.6387,-7.7126,-7.8639,-8.0656,-8.1869,-8.3119,-8.4324,-8.4042,-8.3535,-8.3121,-8.4717,-8.4806,-8.4135,-8.5438,-8.5909,-8.5909,-5.6302,0.0,0.0,0.0,0.0,0.0,0.0,0.0,-6.4999,-6.4882,-6.7264,-6.8981,-6.902,-6.7927,-6.7068,-6.6795,-6.4336,-6.2071,-6.0393,-5.8402,-5.6879,-5.5942,-5.6333,-5.6372,-5.5903,-5.6372,-5.6606,-5.6606,-5.6606,-5.6606,-5.6606,-5.6606,-5.5903,-5.473,-5.5343,-5.496,-5.4052,0.0,-5.8006,-5.8624,-6.1504,-6.2774,-6.3164,-6.4687,-6.4687,-6.3865,-6.3113,-6.2697,-6.2182,-5.9979,-6.0104,-6.0781,-5.8715,-5.8319,-5.8627,0.0,0.0,0.0,-5.8588,0.0,-6.1219,-5.8391,-5.8753,-5.9092,-5.6395,-5.6116,-5.6053,-5.4728,-5.5021,0.0,0.0,0.0,0.0,0.0,0.0,-5.2079,0.0,0.0,0.0,0.0,0.0,0.0,0.0,-5.4065,-5.46,-5.4371,-5.5326,-5.6664,-5.8345,-5.9224,-6.0561,-6.2471,-6.3962,-6.5643,-6.7553,-7.0075,-7.2176,-7.3896,-7.4895,-7.5606,-7.6123,-7.7149,-7.8646,-8.0553,-8.1903,-8.3285,-8.456,-8.413,-8.3563,-8.3084,-8.3807,-8.3872,-8.3664,-8.5293,-8.5909,-8.5909,-5.6171,-5.6484,0.0,0.0,0.0,0.0,0.0,0.0,-6.1213,-6.2852,-6.3906,-6.5429,-6.7888,-6.8083,-6.9411,-7.2729,-6.8396,-6.578,-6.6483,-6.1798,-5.7543,-5.4225,-5.5708,-5.5825,-5.4108,-5.5747,-5.6606,-5.6606,-5.6606,-5.6606,-5.6606,-5.6606,-5.6567,-5.6526,-5.6393,-5.6741,-5.7468,-5.7645,-5.8655,-6.0209,-6.1306,-6.2267,-6.3086,0.0,-6.3789,-6.3047,-6.3006,0.0,0.0,-6.1412,-6.1533,-6.1908,-6.0973,0.0,0.0,0.0,0.0,0.0,0.0,-6.2143,-6.3873,-6.0471,-6.022,-6.01,-5.7287,-5.7915,-5.8386,-5.5874,-5.7275,-5.8192,-5.5747,0.0,0.0,-5.4065,0.0,0.0,0.0,0.0,0.0,0.0,0.0,0.0,0.0,-5.1926,-5.2575,-5.1761,-5.3263,-5.4906,-5.6587,-5.7504,-5.9109,-6.1554,-6.251,-6.4191,-6.6713,-6.9196,-7.1336,-7.3055,-7.4698,-7.5448,-7.5396,-7.7055,-7.8218,-7.9129,-8.1583,-8.3139,-8.3861,-8.4015,-8.3672,-8.3047,-8.3181,-8.336,-8.3664,-8.5293,-8.5909,-8.5909,0.0,0.0,0.0,0.0,0.0,0.0,0.0,-6.1993,-6.4882,-6.7732,-7.0309,-7.2885,-7.5501,-7.5774,-7.5774,-7.5813,-7.269,-6.984,-6.7771,-6.3906,-6.1174,-6.0002,-5.9417,-5.8558,-5.7387,-5.7933,-5.7699,-5.6606,-5.6612,-5.6612,-5.6606,-5.6612,-5.6612,-5.6565,-5.5965,-5.6088,0.0,0.0,0.0,0.0,0.0,-6.375,-6.5351,0.0,-6.254,-6.1369,-6.1915,-6.1623,-6.1039,-6.1318,-6.1433,-6.1372,-6.0519,-6.045,-6.0683,-6.0683,-6.1272,-6.1987,-6.2354,-6.4061,-6.4821,-6.0903,-6.0948,-6.0941,-5.6963,-5.7769,-5.8638,-5.5963,-5.7378,-5.8345,-5.5874,0.0,0.0,0.0,0.0,0.0,0.0,0.0,0.0,0.0,0.0,0.0,0.0,0.0,-5.1047,-5.0779,-5.1276,-5.2308,-5.3989,-5.5479,-5.739,-5.9873,-6.1325,-6.3274,-6.5796,-6.889,-7.1259,-7.3017,-7.4698,-7.5409,-7.5358,-7.7036,-7.8542,-7.9852,-8.1748,-8.3036,-8.3823,-8.3916,-8.3253,-8.2201,-8.2923,-8.3324,-8.3627,-8.4714,-8.5438,-8.5909,-5.6872,0.0,0.0,0.0,-5.684,-5.7699,-5.9651,-6.3399,-6.7146,-7.0309,-7.3666,-7.6906,-7.9834,-8.0146,-7.9717,-7.8585,-7.6984,-7.39,-6.8903,-6.7068,-6.5116,-6.2657,-6.1759,-6.0783,-5.9573,-5.9261,-5.8285,-5.661,-5.6891,-5.6891,-5.6612,-5.6618,-5.6616,-5.6606,0.0,-5.6277,-5.6556,-5.8078,-5.8814,0.0,0.0,-6.3516,0.0,0.0,-6.1954,-6.1681,0.0,-6.0545,-6.0278,-6.0862,-6.1106,-6.1116,-6.0572,-6.085,-6.1317,-6.1317,-6.2101,-6.3047,-6.3366,-6.4649,-6.5148,-6.1816,-6.1758,-6.1485,-5.7553,-5.8582,-5.9504,-5.6496,-5.7647,-5.8488,0.0,0.0,0.0,0.0,0.0,0.0,0.0,-5.2805,0.0,0.0,0.0,0.0,0.0,0.0,-5.1353,-4.9557,-5.0512,-5.1658,0.0,-5.4448,-5.6549,-5.9019,-6.1019,-6.3006,-6.4955,-6.8585,-7.1107,-7.2559,-7.4545,-7.5445,-7.5412,-7.7129,-7.8618,-7.9971,-8.1568,-8.2665,-8.3454,-8.3767,-8.3018,-8.1784,-8.2733,-8.3273,-8.3591,-8.4388,-8.5221,-8.5909,-5.7668,-5.7816,-5.7621,-5.6918,-5.7387,-5.8207,-5.9143,-6.3633,-6.7927,-7.066,-7.4017,-7.7492,-8.0927,-8.1278,-8.1239,-8.12,-8.1044,-7.7765,-7.0348,-7.1245,-6.9137,-6.2576,-6.293,-6.2501,-6.0744,-5.9768,-5.8445,-5.6738,-5.7404,-5.7365,-5.6582,-5.6582,-5.6616,-5.6645,-5.7426,0.0,-5.6801,-5.93,-5.9885,-5.9297,-6.1015,-6.1757,-6.1718,-6.0705,-6.1915,-6.3711,-6.0315,-5.9534,-6.0088,-6.0126,-6.0606,-6.1175,-6.1175,-6.1291,-6.1454,-6.1454,-6.2627,-6.382,-6.3161,-6.4154,-6.4968,-6.3302,-6.2708,-6.1857,-5.9142,-6.0316,-6.1006,-5.7618,0.0,0.0,0.0,0.0,0.0,0.0,0.0,0.0,0.0,0.0,-5.3913,0.0,0.0,0.0,0.0,-5.3301,-5.3098,-4.8361,-5.0818,-5.2614,0.0,-5.4333,-5.6434,-5.8942,-6.1478,-6.3236,-6.4244,-6.8356,-7.0877,-7.1794,-7.4295,-7.5518,-7.5556,-7.7258,-7.8481,-7.9378,-8.1079,-8.2109,-8.2707,-8.3485,-8.2971,-8.1702,-8.2623,-8.3157,-8.3591,-8.446,-8.5221,-8.5909,-5.7896,-5.8324,-5.8909,-5.9339,-5.9065,-5.9495,-6.1681,-6.5819,-7.0348,-7.4876,-7.9014,-8.2606,-8.5456,-8.5182,-8.4519,-8.3894,-8.1513,-7.8897,-7.6242,-7.4134,-7.2182,-7.0384,-6.8669,-6.6951,-6.5194,-6.3095,-6.0835,-5.8455,-5.7413,-5.679,-5.6591,0.0,-5.6587,0.0,0.0,0.0,-5.7582,-5.887,-5.969,-6.0159,-6.1249,-6.2462,-6.3321,0.0,-6.0666,-6.2071,-5.9885,-5.8822,-5.8535,-5.9159,-5.9931,-6.062,-6.062,-6.1946,-6.351,-6.351,-6.4719,-6.5971,-6.5836,-6.6073,-6.5992,-6.4317,-6.3774,-6.3055,-6.0965,-6.1805,-6.2213,-5.9314,-5.9549,-5.9549,-5.7258,-5.6036,0.0,0.0,0.0,0.0,0.0,0.0,0.0,-5.6549,0.0,0.0,-5.3263,-5.1658,-5.0703,-5.0627,-4.9671,-4.9901,-5.1811,0.0,-5.4906,-5.8116,-6.0064,-6.2357,-6.507,-6.8623,-7.1145,-7.2673,-7.4584,-7.5518,-7.5556,-7.7258,-7.8481,-7.9398,-8.0965,-8.1687,-8.1794,-8.2547,-8.2044,-8.0885,-8.1702,-8.2642,-8.3664,-8.5076,-8.5728,-8.5909,-5.8441,-5.969,-6.1095,-6.1954,-6.2618,-6.3399,-6.4492,-6.7342,-7.0972,-7.5384,-7.9405,-8.2528,-8.4401,-8.5143,-8.5026,-8.3816,-8.1942,-7.9678,-7.6867,-7.5969,-7.4876,-7.3354,-7.1909,-7.0113,-6.7966,-6.4696,-6.1737,-5.9086,-5.7416,-5.6597,-5.6593,0.0,0.0,0.0,0.0,-5.7465,-5.7855,-5.8714,-5.9807,-6.0978,-6.1095,-6.1486,0.0,-5.9846,-5.9456,-5.9807,-5.848,-5.7933,-5.7855,-5.8363,-5.9378,-6.0393,-6.0393,-6.1915,-6.3711,-6.3711,-6.4687,-6.5704,-6.5704,-6.5704,-6.5463,-6.4421,-6.4023,-6.3417,-6.1524,-6.1717,-6.1647,-5.9361,-5.8969,-5.8599,-5.7163,-5.611,0.0,0.0,0.0,0.0,0.0,0.0,0.0,0.0,-5.5288,0.0,-5.4639,-5.227,-5.0512,-4.9965,-4.9622,-4.9927,0.0,0.0,-5.46,-5.7237,-6.0408,-6.2968,-6.484,-6.9311,-7.1833,-7.2444,-7.4507,-7.5518,-7.5556,-7.6838,-7.7908,-7.8787,-7.9648,-8.0334,-8.0918,-8.133,-8.1245,-8.1037,-8.2348,-8.3151,-8.3664,-8.5293,-8.5909,-8.5909,-5.9573,-6.1603,-6.3594,-6.4336,-6.6561,-6.8161,-6.7849,-6.9372,-7.1675,-7.4798,-7.8194,-8.0654,-8.1435,-8.3269,-8.3894,-8.245,-8.1981,-7.9873,-7.5305,-7.7023,-7.6906,-7.3939,-7.3588,-7.23,-6.9801,-6.5438,-6.1933,-5.9443,-5.7535,-5.6597,-5.6594,0.0,0.0,0.0,0.0,0.0,0.0,-5.8597,-5.9805,-6.1132,-6.0471,-5.9729,-5.8948,-5.8948,-5.8402,-5.7543,-5.684,-5.7035,-5.7621,-5.7621,-5.8714,-6.008,-6.0198,-6.1447,-6.2852,-6.2969,-6.3633,-6.4299,-6.4299,-6.4299,-6.4247,-6.4068,-6.3914,-6.3371,-6.1759,-6.1067,-6.0396,-5.8934,-5.7742,-5.6962,-5.6917,0.0,0.0,0.0,0.0,0.0,-5.567,0.0,0.0,0.0,0.0,0.0,-5.525,-5.3607,-5.1353,-4.8678,-5.0321,0.0,0.0,0.0,-5.4906,-5.6702,-6.1478,-6.432,-6.4855,-7.0151,-7.2597,-7.2215,-7.4448,-7.5518,-7.5556,-7.6341,-7.7105,-7.7831,-7.7928,-7.8771,-8.0043,-8.0137,-8.0674,-8.1623,-8.3535,-8.3949,-8.3664,-8.5293,-8.5909,-8.5909,-6.2032,-6.3828,0.0,0.0,-6.7498,-7.0074,-7.2729,-7.5227,-7.7296,-7.8624,-8.1786,-8.3972,-8.4128,-8.3308,-8.2606,-8.2332,-8.0341,-7.8702,-7.7765,-7.7453,-7.7062,-7.6477,-7.5071,-7.3432,-7.1597,-6.6657,-6.315,-6.1238,-5.8121,-5.6599,-5.6598,-5.6589,0.0,0.0,0.0,0.0,-5.7816,-5.7972,0.0,-5.8519,-5.9104,-5.8792,-5.8011,-5.8011,-5.7504,-5.6801,-5.6645,-5.6684,-5.6801,-5.6801,-5.7465,-5.8363,-5.9104,-6.051,-6.2071,-6.2774,-6.3633,-6.4299,-6.4299,-6.4299,-6.4297,-6.4247,-6.4008,-6.3704,-6.3371,-6.2017,-6.0704,-6.0435,-5.8561,-5.7011,-5.6962,-5.618,0.0,0.0,0.0,0.0,-5.6511,0.0,0.0,0.0,0.0,-5.5785,0.0,-5.2575,-5.1085,-5.1849,-5.1047,-5.0779,0.0,0.0,-5.5212,0.0,-6.1211,-6.4802,0.0,0.0,-7.2902,-7.483,-7.5289,-7.5518,-7.5556,-7.6341,-7.6761,-7.6953,-7.7568,-7.8332,-7.9167,-7.9789,-8.066,-8.1797,-8.3135,-8.3593,-8.3664,-8.5293,-8.5909,-8.5909,-6.5234,0.0,0.0,0.0,-7.1324,-7.3744,-7.675,-7.9014,-7.9912,-7.8546,-7.9795,-8.081,-8.081,-8.1317,-8.1435,-8.1005,-7.9405,-7.8194,-7.7765,-7.7335,-7.7101,-7.7101,-7.5852,-7.4173,-7.2065,-6.6932,-6.3659,-6.2371,-5.8042,-5.6403,-5.7261,-5.6825,-5.6584,0.0,0.0,-5.805,0.0,0.0,0.0,-5.848,-5.8441,-5.7933,-5.7231,-5.7621,-5.7309,-5.6606,-5.6606,-5.6606,-5.6606,-5.6606,-5.7113,-5.7933,-5.8831,-6.0002,-6.1213,-6.2071,-6.2618,-6.2969,-6.2969,-6.2969,-6.2923,-6.2854,-6.2737,-6.26,-6.2489,-6.1346,-6.0159,-5.9696,-5.8561,-5.7654,-5.7631,-5.7193,-5.6675,-5.6167,-5.711,-5.7466,-5.6167,0.0,-5.7504,0.0,0.0,0.0,0.0,0.0,0.0,0.0,0.0,-5.1391,-5.0971,0.0,-5.5326,0.0,0.0,0.0,-6.7897,0.0,-7.359,-7.4813,-7.5271,-7.5518,-7.5518,-7.5883,-7.6303,-7.6685,-7.6649,-7.7493,-7.8995,-8.0242,-8.1118,-8.1888,-8.3408,-8.4027,-8.4243,-8.5475,-8.5909,-8.5909,-6.7896,-6.883,0.0,0.0,-7.5272,-7.726,-7.9137,-8.1047,-8.1317,-7.8546,-7.8038,-7.7921,-7.7921,-7.9444,-8.0185,-7.9483,-7.8624,-7.7843,-7.714,-7.7101,-7.7023,-7.6828,-7.6164,-7.4528,-7.1797,-6.7205,-6.4167,-6.2725,-5.8277,-5.6637,-5.761,-5.7101,-5.6782,0.0,0.0,0.0,0.0,0.0,-5.7935,-5.8519,-5.7816,-5.7153,-5.6684,-5.7309,-5.7153,-5.6606,-5.6606,-5.6606,-5.6606,-5.6606,-5.7035,-5.7738,-5.8753,-5.9573,-6.0276,-6.1174,-6.1562,-6.164,-6.1483,-6.1562,-6.1668,-6.1576,-6.1504,-6.1461,-6.1259,-6.0483,-5.96,-5.8867,-5.8487,-5.8296,-5.82,-5.8141,-5.7812,-5.6881,-5.7379,-5.7313,-5.5645,0.0,0.0,0.0,0.0,0.0,-5.5632,0.0,0.0,0.0,-5.2614,-5.2346,-5.0665,-5.3645,-5.5479,0.0,0.0,-6.591,-6.7477,0.0,-7.4049,-7.4736,-7.5233,-7.5518,-7.5518,-7.5518,-7.5844,-7.6418,-7.575,-7.6864,-7.9318,-8.0999,-8.1933,-8.2487,-8.406,-8.4711,-8.4786,-8.5583,-8.5909,-8.5909,0.0,0.0,0.0,0.0,0.0,-7.9137,-7.8603,-8.0663,-8.2176,-8.1864,-8.1122,-8.0615,-8.0615,-7.9444,-7.8624,-7.8546,-7.7726,-7.7179,-7.7101,-7.7101,-7.675,-7.5969,-7.5855,-7.4257,-7.0872,-6.8107,-6.5069,-6.1832,-5.9802,-5.8123,-5.6755,-5.7454,-5.7373,0.0,0.0,0.0,-5.6815,-5.6737,-5.677,-5.684,-5.6762,-5.6684,-5.6606,-5.6684,-5.6684,-5.6606,-5.6606,-5.6606,-5.6606,-5.6606,-5.6645,-5.6996,-5.8595,-5.9141,-5.9378,-6.0276,-6.1095,-6.1522,-6.0744,-6.1095,-6.1718,-6.1674,-6.1588,-6.1461,-6.1259,-6.0483,-5.9717,-5.9474,-5.883,-5.8296,-5.82,-5.8141,-5.7824,-5.6942,-5.7405,0.0,0.0,0.0,-5.6014,-5.4409,0.0,0.0,-5.3339,-5.5823,0.0,0.0,-5.3492,-5.3263,-5.1582,-5.3989,-5.5747,-5.6473,-6.1569,-6.6139,-7.0037,-7.1298,-7.3437,-7.6456,-7.5806,-7.5518,-7.5518,-7.5518,-7.5556,-7.5577,-7.5412,-7.7132,-8.0192,-8.1963,-8.3238,-8.4153,-8.5161,-8.5223,-8.4786,-8.5583,-8.5909,-8.5909,-7.2292,-7.3379,-7.4859,-7.7245,-7.8364,-7.9329,-8.0545,-8.1164,-8.1317,-8.081,-8.0888,-8.1008,-8.1017,-7.9449,-7.8395,-7.8401,-7.7614,-7.7101,-7.7101,-7.7101,-7.6711,-7.5855,-7.5353,-7.3954,-7.1538,-6.8466,-6.5698,0.0,-6.1013,-5.9334,-5.8162,-5.7965,-5.7418,-5.6597,-5.6594,-5.6589,-5.6582,-5.6582,-5.6616,-5.6606,-5.6606,-5.6606,-5.6606,-5.6606,-5.6606,-5.6606,-5.6606,-5.6606,-5.6684,-5.7153,-5.7309,-5.7426,-5.8128,-5.9026,-5.9963,-6.0315,-6.1017,-6.1601,-6.1252,-6.1444,-6.1718,-6.1718,-6.1663,-6.1432,-6.0755,-6.0242,-5.9885,-5.9727,-5.9727,-5.9769,-5.9784,-5.9662,-5.9319,-5.8437,-5.8476,0.0,0.0,0.0,0.0,-5.3658,0.0,-5.4536,0.0,-5.4524,0.0,0.0,0.0,-5.4868,-5.3187,-5.5517,-5.7046,-5.7351,0.0,-6.6216,-6.8852,-7.1259,-7.3667,-7.5959,-7.5653,-7.5518,-7.5518,-7.5518,-7.5768,-7.6227,-7.6615,-7.7893,-7.98,-8.1429,-8.2429,-8.3049,-8.4419,-8.4821,-8.4786,-8.5583,-8.5909,-8.5909,-7.5032,-7.5571,-7.6659,-7.9551,-7.9772,-7.9993,-8.1323,-8.1008,-8.0381,-7.9795,-7.999,-8.023,-8.0238,-7.8903,-7.8005,-7.8013,-7.7458,-7.7101,-7.7101,-7.6867,-7.632,-7.5462,-7.4889,0.0,-7.2049,-6.9134,-6.6911,-6.5467,-6.2577,-6.0624,-5.953,-5.8163,-5.7342,-5.6952,-5.6715,-5.6594,-5.6585,-5.6585,-5.6618,-5.6606,-5.6606,-5.6606,-5.6645,-5.6879,-5.6801,-5.6645,-5.7153,-5.7153,-5.7074,-5.7894,-5.8363,-5.8558,-5.8558,-5.9417,-6.0393,-6.0393,-6.1017,-6.164,-6.1408,-6.1483,-6.164,-6.1369,-6.1522,-6.1426,-6.039,-6.0442,-6.0708,-6.05,-6.0867,-6.1089,-6.0858,-6.0673,-6.0316,-5.9459,-5.8987,0.0,0.0,-5.7353,0.0,-5.4256,-5.4739,-5.4727,-5.3314,-5.418,0.0,0.0,0.0,-5.5823,-5.4906,-5.6778,0.0,0.0,0.0,0.0,-6.8241,-7.1183,-7.359,-7.5518,-7.5518,-7.5518,-7.5518,-7.573,-7.615,-7.6761,-7.7797,-7.8922,-8.0163,-8.1701,-8.2623,-8.3237,-8.4595,-8.5067,-8.5112,-8.5692,-8.5909,-8.5909,-7.6483,-7.7804,-7.8894,-8.0699,-8.1695,-8.1672,-8.0009,-7.9726,-7.9717,-7.9717,-7.8975,-7.8429,-7.8432,-7.7648,-7.7101,-7.7101,-7.7101,-7.7101,-7.7101,-7.6281,-7.5423,0.0,0.0,-7.3768,-7.2058,-7.0267,-6.8983,-6.8164,0.0,0.0,-6.0312,-5.7812,-5.707,-5.7851,-5.6992,-5.66,-5.6593,-5.6593,-5.6584,-5.6606,-5.6606,-5.6606,-5.6684,-5.7465,-5.7309,-5.684,-5.8478,-5.8519,-5.7933,-5.8792,-5.9651,-6.0354,-6.0354,-6.0393,-6.0393,-6.0393,-6.1017,-6.1522,-6.0666,-6.1056,-6.1483,-6.0627,-6.1056,-6.1413,-6.0274,-6.1296,-6.2399,-6.2128,-6.2062,-6.1831,-6.0973,-6.0673,-6.0329,-5.9521,-5.8566,0.0,0.0,-5.7251,0.0,-5.6652,-5.7366,-5.6855,-5.4333,-5.5594,0.0,0.0,0.0,0.0,0.0,0.0,0.0,-5.9057,-6.2433,0.0,-6.9158,-7.0877,-7.2996,-7.5518,-7.5518,-7.5518,-7.5556,-7.6303,-7.6685,-7.68,-7.8519,-8.0238,-8.1901,-8.3425,-8.4699,-8.5748,-8.6468,-8.6417,-8.5873,-8.5909,-8.5909,-8.6018,-7.699,-7.8312,-7.9283,-7.9241,-8.0436,-8.0813,-7.9062,-7.8822,-7.8585,-7.7999,-7.7687,-7.7492,-7.7492,-7.7257,-7.7104,0.0,-7.7107,-7.7101,0.0,-7.6281,-7.5428,-7.4616,-7.4588,-7.4051,-7.2925,-7.1757,-7.0195,-6.8203,-6.6484,-6.4453,-6.2148,-6.0742,-5.9922,-5.957,-5.8749,-5.8356,-5.8272,-5.7681,-5.7439,-5.7387,-5.6801,-5.6606,-5.6684,-5.7504,-5.7621,-5.7504,-5.8011,-5.8402,-5.8714,-5.9024,-5.969,-6.051,-6.1095,-6.1291,-6.1174,-6.0588,-6.1017,-6.164,-6.1369,-6.1483,-6.164,-6.1369,-6.1417,-6.1426,-6.0916,-6.1965,-6.2888,-6.224,-6.2551,-6.2666,-6.182,-6.1144,-6.0379,-5.9472,-5.9524,0.0,-5.8106,0.0,-5.8603,-5.6817,-5.7417,-5.6945,-5.4333,-5.5135,0.0,0.0,0.0,0.0,0.0,0.0,0.0,0.0,-6.4955,0.0,-6.9999,-7.2253,-7.4125,-7.5518,-7.5518,-7.5768,-7.6341,-7.657,-7.7335,-7.8519,-7.9627,-8.0698,-8.1766,-8.3323,-8.396,-8.4046,-8.5351,-8.5508,-8.5149,-8.5692,-8.6235,-8.6706,-7.8083,-7.9248,-8.002,-7.9465,-8.0002,-8.0029,-7.8624,-7.8116,-7.7726,-7.7179,-7.7101,-7.7101,-7.7101,-7.7101,-7.7104,-7.7115,-7.7107,-7.7101,-7.7101,-7.6281,-7.5431,-7.4621,-7.4281,-7.4016,-7.3786,-7.2304,-7.1211,-7.0586,-6.8125,-6.5898,-6.3945,-6.207,-6.1094,-6.0859,-5.9726,-5.9177,-5.9053,-5.8503,-5.8103,-5.7777,-5.7621,-5.7348,-5.7192,-5.8324,-5.8558,-5.8363,-5.9026,-5.9417,-5.9651,-5.9961,-6.0432,-6.0978,-6.1522,-6.1718,-6.1601,-6.1056,-6.1252,-6.1718,-6.1718,-6.1952,-6.211,-6.1796,-6.2122,-6.2565,-6.2633,-6.3265,-6.3666,-6.3128,-6.3166,-6.3051,-6.2255,-6.131,-6.0531,-5.9906,-5.9958,-5.9779,-5.9012,0.0,-5.9509,0.0,0.0,-5.8029,-5.5785,-5.5747,-5.6002,0.0,0.0,0.0,0.0,0.0,-6.0752,-6.3312,-6.633,-6.8852,-7.0877,-7.3093,-7.4622,-7.5518,-7.5518,-7.5921,-7.6723,-7.7029,-7.7946,-7.9378,-8.0506,-8.1423,-8.2243,-8.3458,-8.3847,-8.3777,-8.4942,-8.514,-8.4786,-8.5583,-8.6199,-8.667,-7.9527,-8.0336,-8.0907,-8.091,-8.0272,-7.9483,-7.8546,-7.7726,-7.7179,-7.7101,-7.7101,-7.7101,-7.7101,-7.7101,-7.7101,-7.7101,-7.7101,-7.7101,-7.7101,-7.6284,-7.5431,-7.4623,-7.389,-7.3821,-7.4568,-7.2265,-7.2148,-7.4414,-6.9492,-6.664,-6.5703,-6.2383,-6.125,-6.1914,-6.0195,-5.9412,-5.9366,-5.9249,-5.8733,-5.805,-5.8792,-5.8597,-5.805,-5.9768,-5.9885,-5.9414,-6.1015,-6.1134,-6.0588,-6.1369,-6.164,-6.1718,-6.1718,-6.1718,-6.1718,-6.1718,-6.1718,-6.1718,-6.1718,-6.2345,-6.2813,-6.1991,-6.3081,-6.4485,-6.4888,-6.484,-6.4666,-6.4628,-6.3897,-6.3089,-6.232,-6.1322,-6.0621,-6.0621,-5.9868,-5.9588,-6.038,-5.9753,-5.9523,-6.0403,0.0,-5.98,-5.8221,-5.7353,-5.6588,0.0,0.0,0.0,0.0,0.0,-6.1836,-6.4397,-6.6865,-6.9349,-7.1833,-7.3476,-7.4736,-7.5594,-7.5594,-7.6036,-7.6914,-7.7717,-7.8596,-7.9569,-8.1194,-8.234,-8.3123,-8.3882,-8.4344,-8.4637,-8.5246,-8.5202,-8.4859,-8.5619,-8.5909,-8.6199,-7.9397,-7.986,-8.0007,-7.9999,-8.0384,-8.0185,-7.8624,-7.8233,-7.7843,-7.7179,-7.7101,-7.7101,-7.7101,-7.7101,-7.7101,-7.7101,-7.7101,-7.7101,-7.7101,-7.6292,-7.5443,-7.4634,-7.5032,-7.5076,-7.4609,-7.4648,-7.3984,-7.2617,-7.0117,-6.8437,-6.7539,-6.6055,-6.5117,-6.4609,-6.2887,-6.2102,-6.1983,-6.0641,-5.9968,-5.9729,-5.93,-5.8987,-5.8909,-6.0002,-6.0276,-6.0159,-6.0549,-6.1017,-6.133,-6.0861,-6.1134,-6.1718,-6.1718,-6.1718,-6.1718,-6.1718,-6.1718,-6.1718,-6.1718,-6.2345,-6.2969,-6.2735,-6.3817,-6.4739,-6.4119,-6.4812,-6.5397,-6.4743,-6.3897,-6.3231,-6.3051,-6.1269,-5.9784,-5.9737,-5.9521,-5.9407,-5.9537,-5.9344,-5.9509,0.0,-6.0439,-6.0083,-5.9025,-5.877,-5.8872,0.0,0.0,-5.9026,-6.1989,-6.2943,-6.4494,-6.6957,-6.9464,-7.168,-7.359,-7.466,-7.5577,-7.6418,-7.6418,-7.722,-7.869,-7.8901,-7.978,-8.127,-8.2264,-8.3142,-8.3882,-8.4656,-8.507,-8.5246,-8.5358,-8.5474,-8.5619,-8.5837,-8.6271,-8.6887,-7.9426,-8.0007,-8.0428,-8.081,-8.0966,-8.0696,-7.9728,-7.926,-7.883,-7.8362,-7.7932,-7.7695,-7.7687,-7.7335,-7.7101,-7.7101,-7.7101,-7.7104,-7.7112,-7.6649,-7.6035,-7.5227,-7.566,-7.5663,-7.5195,-7.5273,-7.4414,-7.2578,-7.0898,-6.9609,-6.8789,-6.75,-6.6445,-6.5508,-6.3786,-6.3,-6.2919,-6.1579,-6.0749,-6.0393,-6.0315,-6.0041,-5.9807,-6.0666,-6.0978,-6.0978,-6.0978,-6.1291,-6.164,-6.1134,-6.133,-6.1757,-6.2189,-6.2306,-6.2384,-6.2774,-6.2618,-6.2384,-6.2774,-6.3516,-6.4297,-6.4648,-6.5187,-6.5514,-6.4959,-6.5396,-6.5782,-6.5282,-6.4512,-6.3782,-6.3346,-6.155,-6.0077,-6.0042,-5.9696,-5.9418,-5.9256,-5.923,-5.9536,-6.0307,-6.0477,-6.0455,-6.0418,-6.0482,-6.0751,-6.1211,-6.0738,0.0,-6.4112,-6.58,-6.7113,-6.802,-7.0461,-7.2587,-7.427,-7.5115,-7.5883,-7.6685,-7.6685,-7.7602,-7.9302,-7.9302,-8.02,-8.1843,-8.2646,-8.3467,-8.4228,-8.494,-8.5328,-8.5479,-8.541,-8.5562,-8.5846,-8.5878,-8.638,-8.7141,-7.9658,-8.0389,-8.1122,-8.2137,-8.1708,-8.1167,-8.1024,-8.0361,-7.9853,-7.9738,-7.8957,-7.8406,-7.8392,-7.7609,-7.7101,-7.7101,-7.7101,-7.7107,-7.7083,-7.7085,-7.6743,-7.5934,-7.6013,-7.6014,-7.5898,-7.5039,-7.4258,-7.3515,-7.1758,-7.0469,-6.9648,-6.8047,-6.6836,-6.5937,-6.4178,-6.3394,-6.335,-6.2326,-6.1456,-6.0861,-6.1447,-6.1252,-6.0666,-6.1408,-6.1718,-6.1718,-6.1718,-6.1796,-6.1913,-6.1913,-6.1991,-6.2228,-6.2969,-6.3204,-6.336,-6.4258,-6.3984,-6.3516,-6.4143,-6.4921,-6.578,-6.66,-6.6566,-6.6344,-6.6314,-6.6118,-6.5909,-6.591,-6.5205,-6.4359,-6.3628,-6.1897,-6.0666,-6.0781,-5.9858,-5.9131,-5.9126,0.0,-5.9601,-6.0349,-6.0696,-6.1184,-6.194,-6.2235,-6.2426,-6.2567,-6.3271,-6.4411,-6.6096,-6.8416,-6.9491,-6.8987,-7.1068,-7.2997,-7.4741,-7.5362,-7.615,-7.7105,-7.722,-7.8061,-7.9493,-7.976,-8.0621,-8.2034,-8.2837,-8.3677,-8.4536,-8.5114,-8.5501,-8.5662,-8.5587,-8.5678,-8.5862,-8.5882,-8.638,-8.7141,-8.0344,-8.0305,-8.042,-8.202,-8.2176,-8.187,-8.1102,-8.09,-8.0545,-7.9814,-7.8947,-7.8392,-7.8392,-7.7609,-7.7101,-7.7101,-7.7101,-7.7107,-7.7083,-7.7093,-7.6749,-7.5934,-7.6601,-7.664,-7.5937,-7.5039,-7.4531,-7.4414,-7.2656,-7.1367,-7.0508,-6.9492,-6.8594,-6.7734,-6.5972,-6.5186,-6.5107,-6.349,-6.2737,-6.254,-6.1954,-6.1601,-6.1522,-6.164,-6.1718,-6.1718,-6.1718,-6.2189,-6.2813,-6.2813,-6.3282,-6.3906,-6.4065,-6.4104,-6.4258,-6.5155,-6.5312,-6.5077,-6.4455,-6.4921,-6.578,-6.66,-6.6693,-6.6501,-6.6344,-6.6194,-6.6041,-6.5909,-6.5205,-6.4551,-6.4436,-6.182,-5.9935,-6.0666,-5.8858,-5.7604,-5.8304,0.0,-5.9676,-6.0482,-6.1876,-6.281,-6.2977,-6.3732,-6.4475,-6.514,-6.5346,-6.6408,-6.8775,-6.998,-7.1238,-7.2626,-7.3545,-7.4762,-7.6321,-7.6456,-7.7296,-7.8919,-7.9589,-8.0047,-8.0353,-8.1767,-8.2569,-8.2837,-8.3715,-8.4556,-8.5377,-8.5952,-8.6312,-8.6503,-8.6437,-8.656,-8.6669,-8.61,-8.638,-8.7141,-8.0657,-8.0663,-8.0782,-8.2071,-8.2313,-8.2166,-8.1745,-8.1699,-8.1383,-8.0528,-7.9621,-7.8906,-7.8432,-7.7609,-7.7101,-7.7101,-7.7101,-7.7112,-7.7091,-7.7096,-7.6946,-7.6601,-7.6992,-7.6992,-7.6601,-7.5742,-7.5078,-7.4609,-7.332,-7.1992,-7.0703,-7.0273,-6.9414,-6.8125,-6.687,-6.6046,-6.5537,-6.423,-6.3711,-6.3633,-6.2735,-6.2384,-6.2345,-6.1874,-6.1991,-6.2384,-6.2384,-6.2969,-6.3711,-6.3711,-6.4297,-6.5077,-6.5507,-6.5975,-6.6522,-6.7381,-6.7303,-6.6756,-6.5897,-6.6288,-6.6912,-6.6834,-6.6705,-6.6563,-6.6344,-6.6212,-6.6046,-6.5921,-6.559,-6.5166,-6.4705,-6.2551,-6.1166,-6.2012,-5.9665,-5.8143,-5.9353,-5.9456,-5.9854,-6.1173,-6.2414,-6.3719,-6.5102,-6.5667,-6.6308,-6.7153,-6.7653,-6.8575,-7.0151,-7.1535,-7.2818,-7.4115,-7.4781,-7.5403,-7.6105,-7.6512,-7.7335,-7.8596,-7.9436,-8.0315,-8.1232,-8.1996,-8.2837,-8.3715,-8.4136,-8.4747,-8.5568,-8.6142,-8.6738,-8.7217,-8.7144,-8.7278,-8.7354,-8.6677,-8.6974,-8.7681,-8.0819,-8.0983,-8.1263,-8.2154,-8.2281,-8.2292,-8.2297,-8.2292,-8.1974,-8.1117,-8.0248,-7.9379,-7.851,-7.7609,-7.7101,-7.7101,-7.7104,-7.7117,-7.7097,-7.71,-7.7144,-7.7187,-7.7187,-7.7187,-7.7187,-7.6367,-7.5586,-7.4883,-7.3828,-7.2617,-7.1289,-7.0898,-7.0,-6.875,-6.7886,-6.6982,-6.612,-6.5245,-6.4767,-6.4531,-6.3633,-6.3282,-6.3243,-6.2579,-6.2735,-6.3282,-6.3282,-6.3867,-6.4648,-6.4807,-6.5468,-6.6327,-6.7146,-6.7849,-6.8513,-6.9215,-6.9059,-6.8513,-6.7654,-6.7888,-6.8239,-6.7576,-6.7188,-6.6912,-6.6711,-6.6431,-6.6177,-6.5978,-6.6112,-6.5972,-6.5063,-6.3705,-6.282,-6.3243,0.0,-5.9308,-6.0568,-6.0671,-6.1082,-6.2375,-6.3643,-6.5167,-6.7126,-6.7564,-6.8052,-6.8936,-6.9783,-7.0706,-7.1745,-7.3053,-7.4168,-7.4976,-7.548,-7.5836,-7.6174,-7.6738,-7.7526,-7.8596,-7.9474,-8.0544,-8.1805,-8.1996,-8.2875,-8.4289,-8.4289,-8.4747,-8.5568,-8.6371,-8.71,-8.7718,-8.7848,-8.791,-8.7836,-8.7341,-8.7596,-8.8224,-8.0834,-8.0996,-8.127,-8.2143,-8.2308,-8.2315,-8.2318,-8.2305,-8.199,-8.1105,-8.0236,-7.9366,-7.8507,-7.7609,-7.7101,-7.7101,-7.7115,-7.7087,-7.7097,-7.7143,-7.7186,-7.7187,-7.7187,-7.7187,-7.7187,-7.6367,-7.5859,-7.5781,-7.4101,-7.3242,-7.3086,-7.1445,-7.0624,-7.0467,-6.9602,-6.8735,-6.7867,-6.6998,-6.617,-6.5429,-6.457,-6.4182,-6.4182,-6.4143,-6.4143,-6.4182,-6.4182,-6.4765,-6.5624,-6.6366,-6.7185,-6.8083,-6.8942,-6.9255,-6.9333,-6.9372,-6.9918,-7.0309,-6.945,-6.9255,-6.9294,-6.9215,-6.8588,-6.7943,-6.7818,-6.7158,-6.6458,-6.6167,-6.6735,-6.6979,-6.5986,-6.5051,-6.4166,-6.3423,0.0,0.0,-6.0781,-6.2781,-6.4269,-6.4385,-6.6538,-6.8077,-6.8269,-6.9052,-6.986,-7.0667,-7.1514,-7.2706,-7.4322,-7.4553,-7.5014,-7.5861,-7.5787,-7.641,-7.7896,-7.7905,-7.871,-8.0315,-8.1194,-8.169,-8.1843,-8.2569,-8.341,-8.4289,-8.4289,-8.4747,-8.5606,-8.7019,-8.7633,-8.7756,-8.8527,-8.8434,-8.791,-8.7931,-8.8034,-8.8297,-8.1734,-8.1822,-8.1904,-8.2232,-8.2285,-8.2293,-8.2289,-8.2315,-8.1995,-8.1105,-8.0704,-8.0185,-7.9287,-7.8897,-7.8702,-7.8702,-7.8716,-7.8493,-7.7957,-7.7924,-7.7733,-7.7226,-7.7187,-7.7187,-7.7187,-7.6875,-7.6445,-7.5898,-7.5234,-7.4648,-7.4062,-7.289,-7.2031,-7.1484,-7.0619,-6.9714,-6.8851,-6.7976,-6.742,-6.7068,-6.6209,-6.5861,-6.5861,-6.5861,-6.5861,-6.5861,-6.5861,-6.6405,-6.7185,-6.7498,-6.8552,-6.9762,-7.0113,-7.0582,-7.1011,-7.1011,-7.1636,-7.226,-7.1909,-7.1011,-7.0074,-6.9528,-6.9137,-6.8889,-6.8729,-6.8432,-6.8154,-6.7906,-6.8088,-6.8335,-6.8381,-6.7266,-6.6526,-6.7154,0.0,-6.3512,-6.4551,-6.5089,-6.559,-6.609,-6.7475,-6.8629,-6.9167,-6.9975,-7.0783,-7.1629,-7.2976,-7.4014,-7.4668,-7.5207,-7.5668,-7.5976,-7.6309,-7.6788,-7.7407,-7.8323,-7.913,-7.978,-8.1156,-8.2073,-8.2569,-8.341,-8.425,-8.5053,-8.5053,-8.5511,-8.637,-8.7323,-8.8036,-8.8562,-8.9212,-8.8814,-8.7941,-8.8433,-8.8431,-8.8297,-8.229,-8.2296,-8.2299,-8.2318,-8.2289,-8.2295,-8.2289,-8.2281,-8.2003,-8.1105,-8.0985,-8.0665,-7.9795,-7.9681,-7.9684,-7.9717,-7.9694,-7.9317,-7.8463,-7.8159,-7.7773,-7.7226,-7.7187,-7.7187,-7.7187,-7.7187,-7.6914,-7.6328,-7.6015,-7.5586,-7.5,-7.4101,-7.3242,-7.2382,-7.1791,-7.0886,-6.975,-6.9186,-6.8747,-6.8474,-6.7849,-6.7615,-6.7615,-6.7615,-6.7615,-6.7615,-6.7615,-6.8005,-6.8552,-6.8825,-6.9879,-7.1167,-7.1441,-7.2104,-7.2807,-7.2807,-7.3197,-7.3666,-7.3666,-7.2807,-7.1753,-7.1167,-7.0816,-7.0531,-7.0173,-6.9883,-6.9621,-6.9422,-6.9589,-6.9927,-7.0331,-6.9613,-6.9248,-7.0027,-6.8155,-6.6974,-6.8129,-6.8052,-6.809,-6.8629,-6.9475,-7.0244,-7.086,-7.1398,-7.2052,-7.2937,-7.4053,-7.4822,-7.5091,-7.5668,-7.613,-7.6399,-7.7038,-7.7648,-7.8185,-7.8933,-7.9454,-7.9665,-8.1117,-8.2225,-8.3028,-8.3601,-8.448,-8.5511,-8.5511,-8.6008,-8.6867,-8.7786,-8.8499,-8.9086,-8.9631,-8.9194,-8.8302,-8.8809,-8.8777,-8.8571,-8.2302,-8.2301,-8.2299,-8.2318,-8.2313,-8.2313,-8.2313,-8.2313,-8.2003,-8.1105,-8.0998,-8.0684,-7.9798,-7.9731,-7.9733,-7.9717,-7.9703,-7.9324,-7.8464,-7.7654,-7.7187,-7.7187,-7.7187,-7.7187,-7.7187,-7.7187,-7.7187,-7.7187,-7.6328,-7.5898,-7.5898,-7.5039,-7.414,-7.3317,-7.3312,-7.2328,-7.0718,-7.0704,-7.0191,-6.9411,-6.9411,-6.9411,-6.9411,-6.9411,-6.9411,-6.9411,-6.9411,-6.9411,-6.9567,-7.0426,-7.1285,-7.2182,-7.3041,-7.3861,-7.4486,-7.4486,-7.4486,-7.4525,-7.4525,-7.4525,-7.4525,-7.4486,-7.39,-7.308,-7.2221,-7.1363,-7.0681,-7.0484,-7.1121,-7.1671,-7.1544,-7.2085,-7.2242,-7.1352,-7.1055,-7.0937,-7.0937,-7.1668,-7.2206,-7.2206,-7.2976,-7.3514,-7.3514,-7.3514,-7.386,-7.463,-7.4707,-7.5091,-7.5976,-7.6015,-7.6438,-7.7284,-7.796,-7.9088,-8.0754,-7.9813,-7.9704,-8.0544,-8.1385,-8.2225,-8.299,-8.3028,-8.3945,-8.5511,-8.5511,-8.6008,-8.6943,-8.8481,-8.9125,-8.918,-8.9771,-8.9591,-8.8989,-8.8994,-8.9082,-8.9238,-8.3077,-8.3193,-8.3384,-8.3945,-8.3596,-8.3211,-8.3161,-8.2659,-8.2198,-8.1964,-8.1896,-8.182,-8.1569,-8.15,-8.1504,-8.153,-8.0962,-7.9996,-7.8553,-7.7656,-7.7187,-7.7187,-7.7187,-7.7187,-7.7187,-7.7187,-7.7187,-7.7187,-7.6952,-7.6796,-7.6797,-7.5937,-7.5351,-7.5078,-7.3861,-7.3347,-7.3343,-7.2115,-7.1441,-7.1206,-7.1206,-7.0855,-7.0387,-7.0972,-7.0855,-7.0309,-7.0309,-7.0699,-7.1245,-7.1519,-7.2573,-7.3783,-7.4056,-7.433,-7.4486,-7.4486,-7.4915,-7.5423,-7.5423,-7.5852,-7.6047,-7.4798,-7.433,-7.4056,-7.3822,-7.3549,-7.3348,-7.3289,-7.3481,-7.3805,-7.4287,-7.3939,-7.3607,-7.3839,-7.3202,-7.2706,-7.2706,-7.2937,-7.3129,-7.3129,-7.336,-7.3514,-7.3514,-7.4014,-7.4437,-7.4668,-7.5822,-7.663,-7.6899,-7.7438,-7.7831,-7.8077,-7.8771,-7.9378,-7.9807,-8.0638,-8.1461,-8.2264,-8.3142,-8.3677,-8.3945,-8.4518,-8.5015,-8.555,-8.6161,-8.6925,-8.7804,-8.871,-8.9468,-9.0018,-8.9999,-8.9591,-8.8989,-8.8994,-8.9082,-8.9165,-8.343,-8.3582,-8.3849,-8.4648,-8.4101,-8.3555,-8.3552,-8.2823,-8.2283,-8.2283,-8.2295,-8.2297,-8.2285,-8.2292,-8.2293,-8.2285,-8.1515,-8.0428,-7.9062,-7.8164,-7.7578,-7.7226,-7.7187,-7.7187,-7.7187,-7.7187,-7.7187,-7.7187,-7.7187,-7.7187,-7.7187,-7.664,-7.6211,-7.5859,-7.4801,-7.4445,-7.4524,-7.349,-7.2817,-7.2542,-7.2849,-7.2495,-7.1831,-7.2651,-7.2651,-7.2182,-7.2182,-7.2534,-7.3002,-7.3002,-7.39,-7.5071,-7.5423,-7.554,-7.554,-7.554,-7.5891,-7.632,-7.632,-7.6711,-7.6867,-7.5774,-7.554,-7.5423,-7.5071,-7.4993,-7.4993,-7.4993,-7.4993,-7.5248,-7.5931,-7.5478,-7.5148,-7.5476,-7.4938,-7.4476,-7.4476,-7.4476,-7.4476,-7.4476,-7.4476,-7.4476,-7.4476,-7.4938,-7.5361,-7.5707,-7.7015,-7.7746,-7.7746,-7.8246,-7.8654,-7.8938,-7.9309,-7.98,-8.0437,-8.1651,-8.234,-8.2531,-8.3715,-8.4289,-8.4327,-8.5129,-8.5702,-8.6084,-8.6925,-8.7804,-8.8644,-8.9363,-8.9991,-9.0465,-9.0205,-8.9825,-8.9388,-8.8809,-8.8984,-8.9406,-8.3668,-8.3818,-8.4083,-8.4893,-8.4294,-8.3744,-8.3794,-8.3066,-8.2526,-8.2526,-8.2536,-8.2499,-8.2412,-8.2417,-8.2379,-8.2295,-8.1517,-8.0623,-7.9765,-7.9023,-7.8203,-7.7344,-7.7305,-7.7265,-7.7187,-7.7187,-7.7187,-7.7187,-7.7187,-7.7187,-7.7187,-7.7187,-7.6797,-7.6015,-7.5936,-7.5505,-7.4841,-7.4749,-7.4232,-7.3607,-7.4335,-7.4134,-7.351,-7.4212,-7.4486,-7.4486,-7.4486,-7.4564,-7.4642,-7.472,-7.5266,-7.6047,-7.6867,-7.7101,-7.7101,-7.7101,-7.7101,-7.7101,-7.7101,-7.7101,-7.7101,-7.7104,-7.7104,-7.6909,-7.6089,-7.5933,-7.5933,-7.5933,-7.5933,-7.6106,-7.671,-7.6692,-7.6507,-7.6327,-7.6133,-7.6015,-7.6092,-7.6053,-7.6015,-7.6092,-7.6053,-7.6015,-7.6015,-7.6053,-7.6438,-7.7246,-7.813,-7.8631,-7.8631,-7.8669,-7.9092,-7.9885,-7.9725,-8.0409,-8.2002,-8.2682,-8.2703,-8.2034,-8.3639,-8.4441,-8.4556,-8.5282,-8.6084,-8.6963,-8.7842,-8.8606,-8.937,-9.0249,-9.0593,-9.0572,-9.0295,-9.0205,-9.0029,-8.8521,-8.8858,-8.9794,-8.542,-8.5561,-8.5816,-8.6672,-8.6122,-8.5534,-8.5579,-8.4809,-8.4275,-8.4321,-8.433,-8.4099,-8.3394,-8.3319,-8.3046,-8.2379,-8.148,-8.0623,-7.9765,-7.953,-7.9062,-7.8242,-7.8203,-7.789,-7.7226,-7.7187,-7.7187,-7.7187,-7.7187,-7.7187,-7.7187,-7.7187,-7.7109,-7.6875,-7.621,-7.6169,-7.6598,-7.5843,-7.5443,-7.5284,-7.5467,-7.4993,-7.4251,-7.4447,-7.4486,-7.4486,-7.4486,-7.4954,-7.5618,-7.632,-7.6672,-7.6867,-7.7023,-7.7101,-7.7101,-7.7101,-7.7101,-7.7101,-7.7101,-7.7101,-7.7104,-7.7115,-7.7117,-7.7037,-7.687,-7.6828,-7.6828,-7.6828,-7.6828,-7.6805,-7.6788,-7.6692,-7.6507,-7.6327,-7.6133,-7.6245,-7.6899,-7.6438,-7.6245,-7.6938,-7.6399,-7.6015,-7.6015,-7.663,-7.7092,-7.7284,-7.8669,-7.9515,-7.9515,-8.0169,-8.0561,-8.0651,-8.0603,-8.1018,-8.1895,-8.2758,-8.3333,-8.3754,-8.4785,-8.5588,-8.6275,-8.6467,-8.7001,-8.7842,-8.8683,-8.9141,-8.937,-9.0249,-9.0593,-9.0572,-9.0295,-9.0205,-9.0075,-8.9071,-8.8921,-8.9234,-8.5924,-8.6105,-8.6363,-8.7251,-8.6666,-8.608,-8.608,-8.5398,-8.4864,-8.4907,-8.4918,-8.4726,-8.4257,-8.4218,-8.4023,-8.3593,-8.2732,-8.1873,-8.1015,-8.0546,-7.996,-7.9101,-7.8711,-7.8281,-7.7812,-7.7421,-7.7187,-7.7187,-7.7187,-7.7187,-7.7187,-7.7187,-7.7187,-7.7187,-7.6718,-7.6757,-7.7186,-7.6672,-7.6235,-7.5878,-7.6258,-7.5899,-7.5188,-7.5579,-7.5735,-7.5735,-7.5735,-7.6047,-7.6477,-7.6945,-7.7101,-7.7101,-7.7101,-7.7101,-7.7101,-7.7101,-7.7101,-7.7101,-7.7101,-7.7107,-7.7193,-7.7629,-7.7712,-7.7716,-7.771,-7.7708,-7.7822,-7.8245,-7.8323,-7.8132,-7.741,-7.7221,-7.6944,-7.6276,-7.6423,-7.6784,-7.7246,-7.6899,-7.6784,-7.7246,-7.6899,-7.6784,-7.7169,-7.7592,-7.8054,-7.8477,-7.9708,-8.0439,-8.0439,-8.1208,-8.1462,-8.1029,-8.1766,-8.2105,-8.2058,-8.3177,-8.3964,-8.4366,-8.5149,-8.5741,-8.6199,-8.6599,-8.7269,-8.8148,-8.895,-8.9561,-8.9982,-9.0402,-9.0593,-9.0572,-9.0362,-9.0273,-9.0098,-8.9284,-8.8772,-8.8652,-8.6199,-8.6305,-8.6564,-8.7251,-8.6783,-8.6314,-8.6314,-8.5752,-8.5337,-8.5338,-8.5348,-8.5273,-8.5156,-8.5,-8.4844,-8.4687,-8.4021,-8.324,-8.2344,-8.1601,-8.0781,-7.9726,-7.9062,-7.8555,-7.8281,-7.7578,-7.7187,-7.7187,-7.7187,-7.7187,-7.7187,-7.7187,-7.7187,-7.7187,-7.7187,-7.7187,-7.7187,-7.7186,-7.6791,-7.6162,-7.6855,-7.6688,-7.6092,-7.6828,-7.7101,-7.7101,-7.7101,-7.7101,-7.7101,-7.7101,-7.7101,-7.7101,-7.7101,-7.7101,-7.7101,-7.7101,-7.7101,-7.7101,-7.7101,-7.7112,-7.7319,-7.818,-7.8383,-7.8467,-7.8781,-7.8741,-7.8814,-7.9547,-7.9701,-7.9346,-7.8217,-7.8017,-7.769,-7.6616,-7.7015,-7.7553,-7.7707,-7.7592,-7.7553,-7.7707,-7.7592,-7.7746,-7.8438,-7.8631,-7.9092,-7.9977,-8.0823,-8.1323,-8.1323,-8.2093,-8.2131,-8.1323,-8.2721,-8.3226,-8.2616,-8.3824,-8.4575,-8.4825,-8.5436,-8.5817,-8.597,-8.6849,-8.7689,-8.8568,-8.9218,-8.9944,-9.0593,-9.0593,-9.0593,-9.0572,-9.0427,-9.034,-9.0121,-8.9287,-8.878,-8.8701,-8.7213,-8.7236,-8.7251,-8.7368,-8.729,-8.7212,-8.7212,-8.7149,-8.7047,-8.7057,-8.7064,-8.6795,-8.6093,-8.5351,-8.4607,-8.3825,-8.3665,-8.3236,-8.2344,-8.2187,-8.1405,-7.9765,-7.9609,-7.8867,-7.7422,-7.7265,-7.7187,-7.7187,-7.7187,-7.7187,-7.7187,-7.7187,-7.7187,-7.7187,-7.7187,-7.7187,-7.7187,-7.7186,-7.7145,-7.7026,-7.7091,-7.7044,-7.6924,-7.7068,-7.7101,-7.7101,-7.7101,-7.7101,-7.7101,-7.7101,-7.7101,-7.7101,-7.7101,-7.7101,-7.7101,-7.7101,-7.7101,-7.7101,-7.7101,-7.7112,-7.7319,-7.8188,-7.839,-7.8786,-8.0312,-8.0074,-7.9559,-7.9675,-7.9707,-7.9544,-7.9026,-7.8928,-7.8765,-7.8233,-7.8246,-7.8592,-7.9361,-7.8823,-7.8631,-7.9361,-7.8784,-7.8361,-7.8477,-7.9169,-7.9977,-8.0862,-8.167,-8.2131,-8.2131,-8.2939,-8.3016,-8.217,-8.3093,-8.3852,-8.4345,-8.4509,-8.5244,-8.6547,-8.6583,-8.704,-8.7766,-8.8606,-8.9447,-9.0287,-9.0402,-9.0478,-9.0593,-9.0593,-9.0593,-9.0572,-9.0427,-9.0383,-9.0235,-8.9338,-8.978,-9.0692,-8.6783,-8.7077,-8.7404,-8.7404,-8.7404,-8.7404,-8.7404,-8.7381,-8.7397,-8.7408,-8.7415,-8.7264,-8.6953,-8.6559,-8.5971,-8.5116,-8.4603,-8.3977,-8.3086,-8.2578,-8.1953,-8.1172,-8.0234,-7.9336,-7.8594,-7.7695,-7.7187,-7.7187,-7.7187,-7.7187,-7.7187,-7.7187,-7.7187,-7.7187,-7.7187,-7.7187,-7.7187,-7.7187,-7.7186,-7.7184,-7.718,-7.7132,-7.7083,-7.7115,-7.711,-7.7101,-7.7101,-7.7101,-7.7101,-7.7101,-7.7101,-7.7179,-7.7687,-7.7843,-7.7921,-7.8429,-7.8546,-7.8549,-7.8557,-7.8567,-7.8774,-7.9641,-7.9841,-8.0195,-8.1445,-8.1796,-8.1755,-8.124,-8.1158,-8.0882,-7.9983,-7.9813,-7.9541,-7.8619,-7.9323,-8.0092,-8.0477,-8.0208,-7.99,-7.9823,-7.9015,-7.8861,-7.9862,-8.0285,-8.0862,-8.1708,-8.2554,-8.2824,-8.2324,-8.3593,-8.3708,-8.2324,-8.4055,-8.4962,-8.4796,-8.512,-8.5856,-8.7006,-8.7349,-8.7727,-8.811,-8.895,-8.9523,-8.9905,-9.0402,-9.0593,-9.0593,-9.0593,-9.0593,-9.0572,-9.053,-9.0405,-9.025,-8.9752,-8.9974,-9.0434]},{"header":{"parameterUnit":"m.s-1","parameterCategory":1,"la1":30.6,"la2":28.766,"lo1":-90.7593,"lo2":-88.6598,"dy":0.0162,"dx":0.0183,"nx":116,"ny":114,"refTime":"2023-11-19T06:00:00:Z","depth":0,"parameterNumber":3,"parameterNumberName":"V-component_of_WINDS"},"data":[0.0,0.0,0.0,0.0,0.0,0.0,0.0,0.0,0.0,0.0,0.0,0.0,0.0,0.0,0.0,0.0,0.0,0.0,0.0,0.0,0.0,0.0,0.0,0.0,0.0,0.0,0.0,0.0,0.0,0.0,0.0,0.0,0.0,0.0,0.0,0.0,0.0,0.0,0.0,0.0,0.0,0.0,0.0,0.0,0.0,0.0,0.0,0.0,0.0,0.0,0.0,0.0,0.0,0.0,0.0,0.0,0.0,0.0,0.0,0.0,0.0,0.0,0.0,0.0,0.0,0.0,0.0,0.0,0.0,0.0,0.0,0.0,0.0,0.0,0.0,0.0,0.0,0.0,0.0,0.0,0.0,0.0,0.0,0.0,0.0,0.0,0.0,0.0,0.0,0.0,0.0,0.0,0.0,0.0,0.0,0.0,0.0,0.0,0.0,0.0,0.0,0.0,0.0,0.0,0.0,0.0,0.0,0.0,0.0,0.0,0.0,0.0,0.0,0.0,0.0,0.0,0.0,0.0,0.0,0.0,0.0,0.0,0.0,0.0,0.0,0.0,0.0,0.0,0.0,0.0,0.0,0.0,0.0,0.0,0.0,0.0,0.0,0.0,0.0,0.0,0.0,0.0,0.0,0.0,0.0,0.0,0.0,0.0,0.0,0.0,0.0,0.0,0.0,0.0,0.0,0.0,0.0,0.0,0.0,0.0,0.0,0.0,0.0,0.0,0.0,0.0,0.0,0.0,0.0,0.0,0.0,0.0,0.0,0.0,0.0,0.0,0.0,0.0,0.0,0.0,0.0,0.0,0.0,0.0,0.0,0.0,0.0,0.0,0.0,0.0,0.0,0.0,0.0,0.0,0.0,0.0,0.0,0.0,0.0,0.0,0.0,0.0,0.0,0.0,0.0,0.0,0.0,0.0,0.0,0.0,0.0,0.0,0.0,0.0,0.0,0.0,0.0,0.0,0.0,0.0,0.0,0.0,0.0,0.0,0.0,0.0,0.0,0.0,0.0,0.0,0.0,0.0,0.0,0.0,0.0,0.0,0.0,0.0,0.0,0.0,0.0,0.0,0.0,0.0,0.0,0.0,0.0,0.0,0.0,0.0,0.0,0.0,0.0,0.0,0.0,0.0,0.0,0.0,0.0,0.0,0.0,0.0,0.0,0.0,0.0,0.0,0.0,0.0,0.0,0.0,0.0,0.0,0.0,0.0,0.0,0.0,0.0,0.0,0.0,0.0,0.0,0.0,0.0,0.0,0.0,0.0,0.0,0.0,0.0,0.0,0.0,0.0,0.0,0.0,0.0,0.0,0.0,0.0,0.0,0.0,0.0,0.0,0.0,0.0,0.0,0.0,0.0,0.0,0.0,0.0,0.0,0.0,0.0,0.0,0.0,0.0,0.0,0.0,0.0,0.0,0.0,0.0,0.0,0.0,0.0,0.0,0.0,0.0,0.0,0.0,0.0,0.0,0.0,0.0,0.0,0.0,0.0,0.0,0.0,0.0,0.0,0.0,0.0,0.0,0.0,0.0,0.0,0.0,0.0,0.0,0.0,0.0,0.0,0.0,0.0,0.0,0.0,0.0,0.0,0.0,0.0,0.0,0.0,0.0,0.0,0.0,0.0,0.0,0.0,0.0,0.0,0.0,0.0,0.0,0.0,0.0,0.0,0.0,0.0,0.0,0.0,0.0,0.0,0.0,0.0,0.0,0.0,0.0,0.0,0.0,0.0,0.0,0.0,0.0,0.0,0.0,0.0,0.0,0.0,0.0,0.0,0.0,0.0,0.0,0.0,0.0,0.0,0.0,0.0,0.0,0.0,0.0,0.0,0.0,0.0,0.0,0.0,0.0,0.0,0.0,0.0,0.0,0.0,0.0,0.0,0.0,0.0,0.0,0.0,0.0,0.0,0.0,0.0,0.0,0.0,0.0,0.0,0.0,0.0,0.0,0.0,0.0,0.0,0.0,0.0,0.0,0.0,0.0,0.0,0.0,0.0,0.0,0.0,0.0,0.0,0.0,0.0,0.0,0.0,0.0,0.0,0.0,0.0,0.0,0.0,0.0,0.0,0.0,0.0,0.0,0.0,0.0,0.0,0.0,0.0,0.0,0.0,0.0,0.0,0.0,0.0,0.0,0.0,0.0,0.0,0.0,0.0,0.0,0.0,0.0,0.0,0.0,0.0,0.0,0.0,0.0,0.0,0.0,0.0,0.0,0.0,0.0,0.0,0.0,0.0,0.0,0.0,0.0,0.0,0.0,0.0,0.0,0.0,0.0,0.0,0.0,0.0,0.0,0.0,0.0,0.0,0.0,0.0,0.0,0.0,0.0,0.0,0.0,0.0,0.0,0.0,0.0,0.0,0.0,0.0,0.0,0.0,0.0,0.0,0.0,0.0,0.0,0.0,0.0,0.0,0.0,0.0,0.0,0.0,0.0,0.0,0.0,0.0,0.0,0.0,0.0,0.0,0.0,0.0,0.0,0.0,0.0,0.0,0.0,0.0,0.0,0.0,0.0,0.0,0.0,0.0,0.0,0.0,0.0,0.0,0.0,0.0,0.0,0.0,0.0,0.0,0.0,0.0,0.0,0.0,0.0,0.0,0.0,0.0,0.0,0.0,0.0,0.0,0.0,0.0,0.0,0.0,0.0,0.0,0.0,0.0,0.0,0.0,0.0,0.0,0.0,0.0,0.0,0.0,0.0,0.0,0.0,0.0,0.0,0.0,0.0,0.0,0.0,0.0,0.0,0.0,0.0,0.0,0.0,0.0,0.0,0.0,0.0,0.0,0.0,0.0,0.0,0.0,0.0,0.0,0.0,0.0,0.0,0.0,0.0,0.0,0.0,0.0,0.0,0.0,0.0,0.0,0.0,0.0,0.0,0.0,0.0,0.0,0.0,0.0,0.0,0.0,0.0,0.0,0.0,0.0,0.0,0.0,0.0,0.0,0.0,0.0,0.0,0.0,0.0,0.0,0.0,0.0,0.0,0.0,0.0,0.0,0.0,0.0,0.0,0.0,0.0,0.0,0.0,0.0,0.0,0.0,0.0,0.0,0.0,0.0,0.0,0.0,0.0,0.0,0.0,0.0,0.0,0.0,0.0,0.0,0.0,0.0,0.0,0.0,0.0,0.0,0.0,0.0,0.0,0.0,0.0,0.0,0.0,0.0,0.0,0.0,0.0,0.0,0.0,0.0,0.0,0.0,0.0,0.0,0.0,0.0,0.0,0.0,0.0,0.0,0.0,0.0,0.0,0.0,0.0,0.0,0.0,0.0,0.0,0.0,0.0,0.0,0.0,0.0,0.0,0.0,0.0,0.0,0.0,0.0,0.0,0.0,0.0,0.0,0.0,0.0,0.0,0.0,0.0,0.0,0.0,0.0,0.0,0.0,0.0,0.0,0.0,0.0,0.0,0.0,0.0,0.0,0.0,0.0,0.0,0.0,0.0,0.0,0.0,0.0,0.0,0.0,0.0,0.0,0.0,0.0,0.0,0.0,0.0,0.0,0.0,0.0,0.0,0.0,0.0,0.0,0.0,0.0,0.0,0.0,0.0,0.0,0.0,0.0,0.0,0.0,0.0,0.0,0.0,0.0,0.0,0.0,0.0,0.0,0.0,0.0,0.0,0.0,0.0,0.0,0.0,0.0,0.0,0.0,0.0,0.0,0.0,0.0,0.0,0.0,0.0,0.0,0.0,0.0,0.0,0.0,0.0,0.0,0.0,0.0,0.0,0.0,0.0,0.0,0.0,0.0,0.0,0.0,0.0,0.0,0.0,0.0,0.0,0.0,0.0,0.0,0.0,0.0,0.0,0.0,0.0,0.0,0.0,0.0,0.0,0.0,0.0,0.0,0.0,0.0,0.0,0.0,0.0,0.0,0.0,0.0,0.0,0.0,0.0,0.0,0.0,0.0,0.0,0.0,0.0,0.0,0.0,0.0,0.0,0.0,0.0,0.0,0.0,0.0,0.0,0.0,0.0,0.0,0.0,0.0,0.0,0.0,0.0,0.0,0.0,0.0,0.0,0.0,0.0,0.0,0.0,0.0,0.0,0.0,0.0,0.0,0.0,0.0,0.0,0.0,0.0,0.0,0.0,0.0,0.0,0.0,0.0,0.0,0.0,0.0,0.0,0.0,0.0,0.0,0.0,0.0,0.0,0.0,0.0,0.0,0.0,0.0,0.0,0.0,0.0,0.0,0.0,0.0,0.0,0.0,0.0,0.0,0.0,0.0,0.0,0.0,0.0,0.0,0.0,0.0,0.0,0.0,0.0,0.0,0.0,0.0,0.0,0.0,0.0,0.0,0.0,0.0,0.0,0.0,0.0,0.0,0.0,0.0,0.0,0.0,0.0,0.0,0.0,0.0,0.0,0.0,0.0,0.0,0.0,0.0,0.0,0.0,0.0,0.0,0.0,0.0,0.0,0.0,0.0,0.0,0.0,0.0,0.0,0.0,0.0,0.0,0.0,0.0,0.0,0.0,0.0,0.0,0.0,0.0,0.0,0.0,0.0,0.0,0.0,0.0,0.0,0.0,0.0,0.0,0.0,0.0,0.0,0.0,0.0,0.0,0.0,0.0,0.0,0.0,0.0,0.0,0.0,0.0,0.0,0.0,0.0,0.0,0.0,0.0,0.0,0.0,0.0,0.0,0.0,0.0,0.0,0.0,0.0,0.0,0.0,0.0,0.0,0.0,0.0,0.0,0.0,0.0,0.0,0.0,0.0,0.0,0.0,0.0,0.0,0.0,0.0,0.0,0.0,0.0,0.0,0.0,0.0,0.0,0.0,0.0,0.0,0.0,0.0,0.0,0.0,0.0,0.0,0.0,0.0,0.0,0.0,0.0,0.0,0.0,0.0,0.0,0.0,0.0,0.0,0.0,0.0,0.0,0.0,0.0,0.0,0.0,0.0,0.0,0.0,0.0,0.0,0.0,0.0,0.0,0.0,0.0,0.0,0.0,0.0,0.0,0.0,0.0,0.0,0.0,0.0,0.0,0.0,0.0,0.0,0.0,0.0,0.0,0.0,0.0,0.0,0.0,0.0,0.0,0.0,0.0,0.0,0.0,0.0,0.0,0.0,0.0,0.0,0.0,0.0,0.0,0.0,0.0,0.0,0.0,0.0,0.0,0.0,0.0,0.0,0.0,0.0,0.0,0.0,0.0,0.0,0.0,0.0,0.0,0.0,0.0,0.0,0.0,0.0,0.0,0.0,0.0,0.0,0.0,0.0,0.0,0.0,0.0,0.0,0.0,0.0,0.0,0.0,0.0,0.0,0.0,0.0,0.0,0.0,0.0,0.0,0.0,0.0,0.0,0.0,0.0,0.0,0.0,0.0,0.0,0.0,0.0,0.0,0.0,0.0,0.0,0.0,0.0,0.0,0.0,0.0,0.0,0.0,0.0,0.0,0.0,0.0,0.0,0.0,0.0,0.0,0.0,0.0,0.0,0.0,0.0,0.0,0.0,0.0,0.0,0.0,0.0,0.0,0.0,0.0,0.0,0.0,0.0,0.0,0.0,0.0,0.0,0.0,0.0,0.0,0.0,0.0,0.0,0.0,0.0,0.0,0.0,0.0,0.0,0.0,0.0,0.0,0.0,0.0,0.0,0.0,0.0,0.0,0.0,0.0,0.0,0.0,0.0,0.0,0.0,0.0,0.0,0.0,0.0,0.0,0.0,0.0,0.0,0.0,0.0,0.0,0.0,0.0,0.0,0.0,0.0,0.0,0.0,0.0,0.0,0.0,0.0,0.0,0.0,0.0,0.0,0.0,0.0,0.0,0.0,0.0,0.0,0.0,0.0,0.0,0.0,0.0,0.0,0.0,0.0,0.0,0.0,0.0,0.0,0.0,0.0,0.0,0.0,0.0,0.0,0.0,0.0,0.0,0.0,0.0,0.0,0.0,0.0,0.0,0.0,0.0,0.0,0.0,0.0,0.0,0.0,0.0,0.0,0.0,0.0,0.0,0.0,0.0,0.0,0.0,0.0,0.0,0.0,0.0,0.0,0.0,0.0,0.0,0.0,0.0,0.0,0.0,0.0,0.0,0.0,0.0,0.0,0.0,0.0,0.0,0.0,0.0,0.0,0.0,0.0,0.0,0.0,0.0,0.0,0.0,2.8812,2.8593,0.0,0.0,0.0,0.0,0.0,0.0,0.0,0.0,0.0,0.0,0.0,0.0,0.0,0.0,0.0,0.0,0.0,0.0,0.0,0.0,0.0,0.0,0.0,0.0,0.0,0.0,0.0,0.0,0.0,0.0,0.0,0.0,0.0,0.0,0.0,0.0,0.0,0.4929,0.4845,0.4785,0.4755,0.4905,0.5008,0.5068,0.0,0.0,0.0,0.0,0.0,0.0,0.0,0.0,0.0,0.0,0.0,0.0,0.0,0.0,0.0,0.0,0.0,0.0,0.0,0.0,0.0,0.0,0.0,0.0,0.0,0.0,0.0,0.0,0.0,0.0,0.0,0.0,0.0,0.0,0.0,0.0,0.0,0.0,0.0,0.0,0.0,0.0,0.0,0.0,0.0,0.0,0.0,0.0,0.0,0.0,0.0,0.0,0.0,0.0,0.0,0.0,0.0,0.0,0.0,0.0,0.0,0.0,0.0,0.0,0.0,0.0,0.0,0.0,0.0,0.0,3.0393,2.9705,0.0,0.0,0.0,0.0,0.0,0.0,0.0,0.0,0.0,0.0,0.0,0.0,0.0,0.0,0.0,0.0,0.0,0.0,0.0,0.0,0.0,0.0,0.0,0.4932,0.4997,0.5019,0.5011,0.5011,0.0,0.0,0.0,0.0,0.0,0.0,0.0,0.4959,0.4954,0.4989,0.4842,0.4807,0.4801,0.4997,0.5063,0.5082,0.503,0.0,0.0,0.0,0.0,0.0,0.0,0.0,0.0,0.0,0.0,0.0,0.0,0.0,0.0,0.0,0.0,0.0,0.0,0.0,0.0,0.0,0.0,0.0,0.0,0.0,0.0,0.0,0.0,0.0,0.0,0.0,0.0,0.0,0.0,0.0,0.0,0.0,0.0,0.0,0.0,0.0,0.0,0.0,0.0,0.0,0.0,0.0,0.0,0.0,0.0,0.0,0.0,0.0,0.0,0.0,0.0,0.0,0.0,0.0,0.0,0.0,0.0,0.0,3.2997,3.3451,3.4051,3.3627,3.3554,3.37,3.2895,3.1651,3.0217,3.0466,0.0,0.0,0.0,0.0,0.0,0.0,0.0,0.0,0.0,0.0,0.0,0.0,0.0,0.0,0.0,0.0,0.0,0.0,0.0,0.0,0.0,0.4783,0.491,0.5011,0.4976,0.4967,0.5016,0.0,0.0,0.0,0.0,0.0,0.4946,0.494,0.4913,0.4793,0.4845,0.4891,0.5,0.5123,0.5234,0.5324,0.5063,0.5038,0.5177,0.0,0.0,0.0,0.0,0.0,0.0,0.0,0.0,0.0,0.0,0.0,0.0,0.0,0.0,0.0,0.0,0.0,0.0,0.0,0.0,0.0,0.0,0.0,0.0,0.0,0.0,0.0,0.0,0.0,0.0,0.0,0.0,0.0,0.0,0.0,0.0,0.0,0.0,0.0,0.0,0.0,2.5344,2.5344,0.0,0.0,0.0,0.0,0.0,0.0,0.0,0.0,0.0,0.0,0.0,0.0,0.0,3.0744,3.2368,3.3305,3.3978,3.4402,3.5792,3.6085,3.5412,3.588,3.5968,3.5734,3.5602,0.0,3.1432,3.0115,0.0,0.0,0.0,0.0,0.0,0.0,0.0,0.0,0.0,0.0,0.0,0.0,0.0,0.0,0.0,0.0,0.0,0.0,0.0,0.0,0.0,0.4916,0.4976,0.4927,0.5055,0.5076,0.4932,0.4967,0.0,0.0,0.0,0.4834,0.4935,0.4937,0.4924,0.482,0.4997,0.509,0.5175,0.5229,0.5319,0.551,0.6317,0.6536,0.6414,0.72,0.0,0.0,0.0,0.0,0.0,0.0,0.0,0.0,0.0,0.0,0.0,0.0,0.0,0.0,0.0,0.0,0.0,0.0,0.0,0.0,0.0,0.0,0.0,0.0,0.0,0.0,0.0,0.0,0.0,0.0,0.0,0.0,0.0,0.0,0.0,0.0,0.0,0.0,0.0,2.5666,2.6222,2.5125,2.6208,2.6574,0.0,0.0,0.0,0.0,0.0,0.0,0.0,0.0,0.0,3.1446,3.2163,3.3129,3.4373,3.5529,3.6275,3.6612,3.7665,3.7958,3.7548,3.7841,3.7782,3.7475,3.7285,3.629,3.4622,3.2646,3.1373,3.0583,0.0,0.0,0.0,0.0,2.9705,3.0012,0.0,0.0,0.0,0.0,0.0,0.0,0.0,0.0,0.0,0.0,0.0,0.0,0.482,0.4981,0.5055,0.4967,0.5123,0.5136,0.4927,0.4951,0.4929,0.4826,0.485,0.4875,0.4891,0.4935,0.4981,0.5027,0.5191,0.5303,0.5363,0.5392,0.5455,0.5623,0.7387,0.7889,0.7524,0.9016,1.0457,1.1972,0.0,0.0,0.0,0.0,0.0,0.0,0.0,0.0,0.0,0.0,0.0,0.0,0.0,0.0,0.0,0.0,0.0,0.0,0.0,0.0,0.0,0.0,0.0,0.0,0.0,0.0,0.0,0.0,0.0,0.0,0.0,0.0,0.0,0.0,0.0,0.0,0.0,2.6486,2.7056,2.5271,2.7071,2.7686,0.0,0.0,0.0,0.0,0.0,0.0,3.029,3.1285,3.2485,3.3949,3.4783,3.5705,3.6744,3.7709,3.8368,3.869,3.9173,3.9392,3.9392,3.9392,3.9217,3.8895,3.866,3.8148,3.727,3.4856,3.31,3.1841,3.0949,3.0495,3.0378,3.0539,3.0803,3.1124,0.0,0.0,0.0,0.0,0.0,0.0,0.0,0.0,0.0,0.0,0.0,0.4695,0.4976,0.5019,0.509,0.5256,0.5125,0.5052,0.5095,0.4785,0.4649,0.4829,0.4706,0.4706,0.4837,0.4929,0.5101,0.5275,0.5401,0.5491,0.5548,0.5665,0.5722,0.5814,0.7673,0.8321,0.8121,0.9299,1.0684,1.2106,1.2142,0.0,0.0,0.0,0.0,0.0,0.0,0.0,0.0,0.0,0.0,0.0,0.0,0.0,0.0,0.0,0.0,0.0,0.0,0.0,0.0,0.0,0.0,0.0,0.0,0.0,0.0,0.0,0.0,0.0,0.0,0.0,0.0,0.0,0.0,0.0,0.0,0.0,0.0,2.6559,2.9193,0.0,0.0,0.0,0.0,2.9208,3.0115,3.1359,3.2968,3.3978,3.5383,3.727,3.768,3.8485,3.9773,3.9846,4.0036,4.0358,4.0402,4.0402,4.0402,4.0402,4.0241,3.9919,3.9904,3.9348,3.8251,3.5368,3.3963,3.3451,3.1871,3.1446,3.1666,3.1373,3.1461,3.171,0.0,0.0,0.0,0.0,0.0,0.0,0.0,0.0,0.4746,0.4768,0.4793,0.4902,0.5008,0.5229,0.5363,0.5352,0.5363,0.5294,0.5123,0.4954,0.4848,0.4815,0.4793,0.4845,0.4981,0.5085,0.5226,0.5412,0.5529,0.5638,0.5736,0.5739,0.5782,0.5944,0.9049,1.0259,1.0135,1.1462,1.2741,1.3964,1.3754,1.4364,0.0,0.0,0.0,0.0,0.0,0.0,0.0,0.0,0.0,0.0,0.0,0.0,0.0,0.0,0.0,0.0,0.0,0.0,0.0,0.0,0.0,0.0,0.0,0.0,0.0,0.0,0.0,0.0,0.0,0.0,0.0,0.0,0.0,0.0,0.0,0.0,0.0,2.991,3.1841,0.0,2.9998,3.0364,3.0905,3.1227,3.2544,3.3934,3.5339,3.6729,3.79,3.8792,3.9348,3.9846,4.0314,4.0724,4.0885,4.0812,4.1207,4.1177,4.0812,4.0812,4.0519,3.9992,3.9992,3.9568,3.8748,3.7504,3.6187,3.4871,3.3875,3.3305,3.3027,3.291,3.3071,3.3334,0.0,0.0,0.0,0.0,0.0,0.0,0.0,0.0,0.4665,0.4665,0.4837,0.5,0.5101,0.5382,0.5553,0.5537,0.5515,0.5398,0.5158,0.4992,0.4867,0.4788,0.4845,0.494,0.5079,0.5221,0.5373,0.5534,0.5632,0.5722,0.5801,0.576,0.5796,0.598,0.9135,1.0773,1.1444,1.2977,1.4151,1.5027,1.4854,1.515,1.5759,0.0,0.0,0.0,0.0,0.0,0.0,0.0,0.0,0.0,0.0,0.0,0.0,0.0,0.0,0.0,0.0,0.0,0.0,0.0,0.0,0.0,0.0,0.0,0.0,0.0,0.0,0.0,0.0,0.0,0.0,0.0,0.0,0.0,0.0,3.0407,3.2002,3.212,3.4036,3.4549,3.2485,3.2983,3.3554,3.3875,3.5207,3.6466,3.7534,3.8924,3.9831,4.0153,4.068,4.0973,4.0973,4.1368,4.1368,4.0973,4.1382,4.1251,4.0651,4.0651,4.0343,3.9846,3.9948,3.9626,3.9012,3.8792,3.7753,3.6231,3.5602,3.5017,3.4519,3.4417,3.4446,3.4519,0.0,0.0,0.0,0.0,0.0,0.0,0.0,0.4665,0.4665,0.4665,0.4777,0.497,0.5267,0.5461,0.5643,0.5823,0.5561,0.5335,0.5215,0.4867,0.4668,0.4676,0.4842,0.4967,0.5036,0.5324,0.5534,0.5742,0.5711,0.5741,0.5741,0.5744,0.5774,0.5919,0.7823,0.9717,1.159,1.3549,1.4725,1.5244,1.5127,1.5544,1.6286,0.0,0.0,0.0,0.0,0.0,0.0,0.0,0.0,0.0,0.0,0.0,0.0,0.0,0.0,0.0,0.0,0.0,0.0,0.0,0.0,0.0,0.0,0.0,0.0,0.0,0.0,0.0,0.0,0.0,0.0,0.0,0.0,0.0,2.893,3.2046,3.3949,3.3071,3.5749,3.6802,3.4592,3.5792,3.6831,3.7124,3.8046,3.8865,3.9509,4.0446,4.1133,4.1411,4.1733,4.1894,4.1865,4.1865,4.1543,4.0929,4.0929,4.0563,3.9948,3.9963,3.9787,3.9495,3.9831,3.9597,3.8997,3.8997,3.8441,3.7519,3.6875,3.6407,3.6085,3.5763,3.5427,3.5105,0.0,0.0,0.0,0.0,0.0,0.0,0.0,0.4517,0.4665,0.4665,0.4921,0.5185,0.5401,0.5662,0.5878,0.6014,0.5632,0.5371,0.5338,0.4913,0.4741,0.4916,0.4932,0.5085,0.5403,0.5452,0.5553,0.5717,0.5733,0.5741,0.5741,0.5788,0.5793,0.5859,0.7856,0.9876,1.1787,1.3592,1.5221,1.6563,1.594,1.5883,1.6156,0.0,0.0,0.0,0.0,0.0,0.0,0.0,0.0,0.0,0.0,0.0,0.0,0.0,0.0,0.0,0.0,0.0,0.0,0.0,0.0,0.0,0.0,0.0,0.0,0.0,0.0,0.0,0.0,0.0,0.0,0.0,2.9866,3.1593,3.1988,3.389,3.5763,3.7139,3.8719,3.926,3.8163,3.8675,3.8909,3.8529,3.9187,3.9773,4.0197,4.0929,4.1251,4.109,4.1616,4.169,4.1221,4.1221,4.0768,3.9919,3.9919,3.9568,3.8953,3.9187,3.9114,3.8821,3.9158,3.8924,3.8324,3.8324,3.8031,3.7534,3.7124,3.6612,3.6085,3.5763,3.5295,3.4812,0.0,0.0,0.0,0.0,0.0,0.0,0.0,0.4314,0.4517,0.4665,0.5,0.5281,0.5387,0.5689,0.5891,0.591,0.5564,0.5305,0.5204,0.491,0.4801,0.4943,0.506,0.5237,0.548,0.5553,0.5638,0.5741,0.5741,0.5741,0.5741,0.5804,0.5826,0.5911,0.7933,1.0009,1.2013,1.3789,1.5716,1.7445,1.7259,1.7111,1.6921,1.6526,1.6655,1.6963,1.6405,1.6405,1.6594,1.6112,0.0,0.0,0.0,0.0,0.0,0.0,0.0,0.0,0.0,0.0,0.0,0.0,0.0,0.0,0.0,0.0,0.0,0.0,0.0,0.0,0.0,0.0,0.0,0.0,3.2002,3.4066,3.547,3.6466,3.7709,3.9436,4.0373,4.0724,4.0358,4.0475,4.0387,3.9875,4.0314,4.0563,4.049,4.109,4.1294,4.0973,4.1455,4.1455,4.0973,4.0855,4.0402,3.9714,3.9436,3.9041,3.8543,3.8602,3.8441,3.8148,3.8485,3.8339,3.7856,3.7856,3.7665,3.7358,0.0,0.0,0.0,0.0,3.5207,3.4871,0.0,0.0,0.0,0.0,0.0,0.0,0.0,0.4106,0.4226,0.4592,0.5019,0.5273,0.5273,0.5578,0.5741,0.564,0.5392,0.5153,0.494,0.4799,0.4793,0.4924,0.5234,0.5417,0.5444,0.5654,0.5758,0.5752,0.5752,0.5747,0.5741,0.5809,0.5867,0.6008,0.8121,1.0165,1.2212,1.4181,1.6088,1.7984,1.8574,1.8611,1.8152,1.7895,1.8172,1.8475,1.7464,1.6925,1.667,1.6556,0.0,0.0,0.0,0.0,0.0,0.0,0.0,0.0,0.0,0.0,0.0,0.0,0.0,0.0,0.0,0.0,0.0,0.0,0.0,0.0,0.0,0.0,0.0,0.0,3.411,3.5983,3.8748,3.9202,3.9582,4.049,4.1163,4.1529,4.1485,4.1485,4.1368,4.1046,4.1251,4.1133,4.0563,4.109,0.0,0.0,0.0,4.128,4.0929,4.0563,4.0168,3.9773,3.9114,3.8631,3.8309,3.8061,3.7782,3.749,3.7812,3.7768,3.7461,3.7431,3.7226,3.6919,3.6919,3.6758,3.6378,3.5456,3.5105,3.5061,0.0,0.0,0.0,0.0,0.0,0.0,0.0,0.3697,0.4153,0.4226,0.4791,0.5147,0.5147,0.5341,0.5482,0.5507,0.5155,0.4913,0.4791,0.4777,0.5016,0.5403,0.5488,0.5619,0.5815,0.5864,0.5864,0.5815,0.5815,0.579,0.5744,0.5853,0.5886,0.5947,0.8061,1.0193,1.2195,1.4354,1.6284,1.8016,1.9003,1.8803,1.7943,1.856,1.8503,1.8078,1.736,1.7483,1.7861,1.7029,1.6991,1.7284,1.7161,1.6462,0.0,0.0,0.0,0.0,0.0,0.0,0.0,0.0,0.0,0.0,0.0,0.0,0.0,0.0,0.0,0.0,0.0,0.0,0.0,3.351,3.5675,3.768,3.9553,4.0255,4.0768,4.1207,4.1821,4.2099,4.185,4.1821,4.169,4.1368,4.1177,4.1016,4.0885,4.1002,4.1046,4.0973,4.128,4.1163,4.0563,3.9992,3.9275,3.8426,3.7782,0.0,3.6992,3.7183,3.7109,3.6817,3.7139,3.7095,3.6773,3.6509,3.6217,3.5924,3.5924,3.588,3.5749,3.5046,3.4797,3.4783,0.0,0.0,0.0,0.0,0.0,0.0,0.0,0.3266,0.3587,0.3856,0.442,0.4795,0.4795,0.5193,0.5346,0.5256,0.4946,0.4793,0.4809,0.5003,0.5229,0.5589,0.5692,0.5826,0.6006,0.5954,0.5924,0.5924,0.5861,0.5818,0.5788,0.588,0.6457,0.7435,0.9585,1.1763,1.3846,1.6081,1.7389,1.8286,1.9117,1.8892,1.8259,1.9084,1.9184,1.8758,1.8229,1.8106,1.8125,1.7605,1.7492,1.752,1.7209,1.6755,1.6453,0.0,0.0,0.0,0.0,0.0,0.0,0.0,0.0,0.0,0.0,0.0,0.0,0.0,0.0,2.7715,2.9339,0.0,3.3071,3.55,3.7534,3.9187,4.0329,4.1046,4.1499,4.1646,4.1938,4.2143,4.2143,4.185,4.1616,4.1441,4.1163,4.0899,4.0724,4.0724,4.0724,4.0724,4.0724,4.0475,4.0007,3.9348,3.8704,3.8061,3.7402,3.7007,3.6846,3.6846,3.6758,3.6612,3.6773,3.6758,3.6583,3.6246,3.5924,3.5728,3.5566,3.5493,3.5339,3.4871,3.471,3.471,0.0,0.0,0.0,0.0,0.0,0.0,0.0,0.2912,0.3014,0.3458,0.4042,0.4443,0.4431,0.495,0.5191,0.497,0.4785,0.4779,0.5008,0.5215,0.545,0.5725,0.5902,0.6036,0.6131,0.6041,0.6011,0.6049,0.5948,0.5894,0.5883,0.5935,0.6796,0.8482,1.0944,1.3074,1.5036,1.7504,1.8476,1.8596,1.9028,1.9015,1.8777,1.9426,1.9585,1.9514,1.9136,1.8522,1.7936,1.7942,1.7747,1.7331,1.7114,1.7076,1.7037,1.66,1.8288,0.0,0.0,0.0,0.0,0.0,0.0,0.0,0.0,0.0,2.6837,2.8461,2.9027,2.9998,3.2076,3.3407,3.5002,3.7461,3.9012,4.0138,4.0768,4.1294,4.1616,4.1616,4.1733,4.1894,4.2187,4.169,4.1324,4.1251,4.1016,4.0724,4.0402,4.0446,4.049,4.049,4.0168,3.9846,3.9509,3.8807,3.828,3.7958,3.7314,3.6992,3.6992,3.6729,3.6597,3.6597,3.6539,3.6436,3.6305,3.6041,3.5749,3.5441,3.5178,3.5075,3.5031,3.4797,3.471,3.471,0.0,0.0,0.0,0.0,0.0,0.0,0.0,0.0,0.2932,0.3048,0.3886,0.4396,0.4271,0.4588,0.485,0.4717,0.4804,0.4913,0.5308,0.5412,0.5632,0.603,0.6172,0.6245,0.6259,0.6245,0.6215,0.6169,0.6155,0.612,0.6068,0.6074,0.6202,0.6635,1.0474,1.236,1.3046,1.6876,1.855,1.868,1.9078,1.9175,1.9151,1.896,1.9087,1.9182,1.9025,1.8343,1.7549,1.7848,1.7643,1.7227,1.7747,1.7539,1.7272,1.8363,1.8213,1.8327,2.108,2.2786,2.4218,2.5915,2.5696,2.6029,0.0,0.0,2.9837,3.1461,3.228,3.3129,3.4549,3.5383,3.6509,3.8529,3.926,3.9802,4.0446,4.0607,4.0651,4.0651,4.1163,4.1529,4.1529,4.1251,4.0885,4.0607,4.0563,4.0402,4.0065,4.0329,4.049,4.049,4.0168,3.9846,3.9509,3.8587,3.7958,3.7622,3.6963,3.6656,3.6656,3.6626,3.6597,3.6583,3.629,3.5851,3.5324,3.528,3.509,3.4812,3.4768,3.4753,3.4753,3.471,3.471,3.471,0.0,0.0,0.0,0.0,0.0,0.0,0.0,0.0,0.0,0.257,0.3379,0.3957,0.3937,0.4467,0.4826,0.4774,0.4728,0.488,0.5305,0.5452,0.5711,0.6131,0.6267,0.6349,0.6384,0.6316,0.6185,0.5899,0.6126,0.5985,0.5673,0.6054,0.6833,0.811,1.0998,1.312,1.4652,1.7522,1.8809,1.8858,1.8871,1.8703,1.8441,1.8258,1.7836,1.7302,1.7789,1.7579,0.0,1.7029,1.6953,1.6953,1.7095,1.7038,1.6987,1.7164,1.7614,1.8698,2.1551,2.3174,2.451,2.6082,2.7042,2.8139,3.0334,3.0905,3.1505,3.3319,3.4197,3.5046,3.6334,3.7256,3.8134,3.9143,3.9904,4.0329,4.0212,4.0036,3.9641,3.888,3.9026,3.9568,4.0519,3.9963,3.9582,3.9626,3.9816,3.986,3.9729,4.0212,4.0402,4.0212,3.989,3.9377,3.8675,3.8075,3.7519,3.7007,3.6729,3.6597,3.6597,3.6597,3.6495,3.6305,3.5983,3.5573,3.5163,3.5163,3.4973,3.471,3.471,3.471,3.471,3.471,3.471,3.471,0.0,0.0,0.0,0.0,0.0,0.0,0.0,0.0,0.0,0.0,0.3111,0.3739,0.395,0.4424,0.4815,0.4796,0.4747,0.4872,0.5243,0.545,0.5733,0.6123,0.6273,0.6382,0.6461,0.6274,0.5953,0.5595,0.5715,0.5678,0.5482,0.5856,0.6924,0.8596,1.0648,1.2878,1.5099,1.7179,1.8469,1.9037,1.8761,1.8355,1.7835,1.7397,1.6666,1.594,1.6662,1.6665,1.623,1.6084,1.6093,1.6226,1.6358,1.6547,1.6686,1.6586,1.7648,1.921,2.0873,2.2841,2.4716,2.6274,2.8279,3.0261,3.1593,3.2324,3.3232,3.5002,3.5734,3.6378,3.7504,3.8207,3.8792,3.929,3.9904,4.0168,3.9787,3.929,3.8558,3.7446,3.6992,3.7285,3.8543,3.8426,3.8441,3.8865,3.9114,3.9319,3.9509,3.9963,4.0153,4.0007,3.9597,3.8997,3.8207,3.7782,3.73,3.6744,3.6641,3.6597,3.6597,3.6509,3.6246,3.5836,3.5602,3.5324,3.5031,3.5031,3.4856,3.4578,3.4578,3.4578,3.4563,3.4475,3.4549,3.4695,0.0,0.0,0.0,0.0,0.0,0.0,0.0,0.0,0.0,0.0,0.0,0.0,0.0,0.4687,0.4807,0.4676,0.4774,0.4946,0.5188,0.5428,0.5698,0.6006,0.6188,0.6338,0.6458,0.5952,0.5748,0.5649,0.5143,0.5143,0.5645,0.5592,0.5996,0.6648,0.8591,1.0769,1.314,1.4853,1.7059,1.9207,1.8671,1.8241,1.7762,1.6349,1.5781,1.5727,1.6304,1.5393,1.4134,1.5242,1.5186,1.4874,1.5876,1.633,1.6731,1.7984,1.8857,1.9309,1.8542,2.1074,2.4507,2.656,2.9159,3.1841,3.408,3.4827,3.5427,3.6744,3.7036,3.7256,3.7929,3.7812,3.7929,3.888,3.8792,3.8719,3.9012,3.8236,3.7387,3.6714,3.5544,3.4929,3.5295,3.6714,3.787,3.85,3.8558,3.8836,3.948,3.9538,3.9685,3.9992,3.9377,3.888,3.8529,3.79,3.7402,3.7065,3.6758,3.6597,3.6597,3.6275,3.5792,3.5192,3.5178,3.5002,3.4724,3.4724,3.4534,3.4241,3.4241,3.4241,3.4197,3.3875,3.4168,3.4666,0.0,0.0,0.0,0.0,0.0,0.0,0.0,0.0,0.0,0.0,0.0,0.0,0.0,0.0,0.0,0.0,0.4785,0.4888,0.5125,0.5294,0.5482,0.5703,0.5924,0.5889,0.568,0.5558,0.5234,0.46,0.4702,0.4917,0.515,0.5532,0.5937,0.6559,0.8606,1.0002,1.0949,1.4262,1.6091,1.6729,1.7451,1.7461,1.6901,1.5691,1.4834,1.4156,0.0,1.4445,1.4061,1.4238,1.4279,1.4279,1.4629,1.4978,1.5329,1.5931,1.6672,1.7482,1.8357,2.1632,2.5353,2.7891,3.1077,3.3993,3.5602,3.6041,3.6305,3.6963,3.6246,3.5573,3.5792,3.5749,3.5909,3.6656,3.7417,3.7943,3.8046,3.7782,3.6861,3.4929,3.49,0.0,0.0,3.4651,0.0,3.6846,3.7329,3.7768,3.8207,3.8836,3.9041,3.8719,3.85,3.8134,3.7578,3.7358,3.7095,3.6758,3.6436,3.6173,3.5953,3.5631,3.5368,3.5149,3.4944,3.4797,3.4695,3.4475,3.4446,3.4505,3.4066,3.4022,3.4212,3.4095,3.4197,3.4373,0.0,0.0,0.0,0.0,0.0,0.0,0.0,0.0,0.0,0.0,0.0,0.0,0.0,0.0,0.0,0.0,0.0,0.4861,0.5038,0.5161,0.53,0.5458,0.5657,0.5519,0.5118,0.5002,0.4589,0.3783,0.4,0.4219,0.4341,0.4758,0.5378,0.6103,0.7443,0.8611,0.9705,1.2266,1.3983,1.5036,1.5831,1.612,1.5983,1.4903,1.3985,0.0,1.3444,1.3669,1.3798,1.3751,1.3835,1.4024,1.4099,1.4402,1.4808,1.5158,1.58,1.6812,1.8501,2.1805,2.5368,2.8422,3.161,3.4482,3.6196,3.6422,3.6217,3.6085,3.4885,3.3773,3.3539,3.3202,3.3305,3.4285,3.5149,3.5924,3.6612,3.6524,3.5807,3.4256,3.4432,3.4256,0.0,0.0,0.0,3.5836,3.6656,3.7226,3.7563,3.828,3.85,3.8075,3.7958,3.7636,3.7095,3.7095,3.6934,3.6597,3.6275,3.5953,3.5728,3.531,3.5105,3.4988,3.4797,3.471,3.468,3.4358,3.4271,3.43,3.3773,3.3685,3.3861,3.3744,3.3846,3.4066,0.0,0.0,0.0,0.0,0.0,0.0,0.0,0.0,0.0,0.0,0.0,0.0,0.0,0.0,0.0,0.0,0.0,0.0,0.4924,0.5036,0.5147,0.5256,0.5384,0.5306,0.4925,0.4414,0.3968,0.3418,0.2965,0.3083,0.3613,0.3688,0.422,0.523,0.518,0.6564,0.893,0.8932,1.0942,1.4062,1.3787,1.4238,1.4911,1.3946,1.3401,1.3069,1.3052,1.3154,1.3385,1.3611,1.3863,1.4081,1.427,1.4629,1.5101,1.5753,1.6405,1.7275,1.8928,2.1602,2.476,2.8212,3.104,3.3507,3.5888,3.5915,3.5251,3.4271,3.2983,3.1827,0.0,0.0,3.0276,3.19,3.2266,3.3027,3.4914,3.471,3.4446,3.468,3.4197,0.0,0.0,3.3495,0.0,3.5625,3.648,3.7139,3.749,3.7826,3.8017,3.8017,3.7695,3.7387,3.7095,3.708,3.689,3.6553,3.6246,3.5924,3.5684,3.528,3.4973,3.471,3.471,3.4695,3.4651,3.4344,3.4022,3.37,3.3363,3.3246,3.3202,3.2924,3.3202,3.3773,0.0,0.0,0.0,0.0,0.0,0.0,0.0,0.0,0.0,0.0,0.0,0.0,0.0,0.0,0.0,0.0,0.0,0.0,0.4801,0.4872,0.4888,0.4828,0.5025,0.4723,0.398,0.4003,0.3568,0.2837,0.2686,0.2958,0.3495,0.3514,0.3877,0.4589,0.4575,0.5009,0.6049,0.7492,0.861,0.9657,1.1829,1.2733,1.2867,1.3121,1.3173,1.3086,1.3199,1.3356,1.3607,1.3992,1.4298,1.4487,1.4534,1.5044,1.581,1.6745,1.769,1.8721,2.0081,2.2759,2.5526,2.6915,3.0131,3.2991,3.3347,3.3681,3.351,3.2295,3.0261,2.8432,2.7539,2.7759,0.0,3.0217,3.2105,0.0,3.531,3.5997,0.0,3.4841,3.5178,3.5236,3.4519,3.4388,0.0,3.5669,3.5661,3.5909,3.6466,3.7036,3.7344,3.7344,3.7022,3.6934,3.7095,3.6846,3.6451,3.5895,3.5807,3.547,3.4944,3.4856,3.4783,3.471,3.471,3.4563,3.4329,3.4256,3.4022,3.37,3.3363,3.3246,3.3261,3.3422,3.3597,3.3817,0.0,0.0,0.0,0.0,0.0,0.0,0.0,0.0,0.0,0.0,0.0,0.0,0.0,0.0,0.0,0.0,0.0,0.0,0.0,0.4763,0.4725,0.463,0.4752,0.4434,0.3509,0.3639,0.3313,0.243,0.2496,0.2669,0.3034,0.3034,0.3292,0.3807,0.4429,0.4914,0.5419,0.667,0.7562,0.0,0.0,1.1051,1.1664,1.2616,1.2978,1.3004,1.3229,1.3629,0.0,0.0,0.0,1.5082,1.5356,1.6075,1.7029,1.8068,0.0,2.0044,2.1206,2.3012,2.4954,2.6232,2.8349,3.0192,3.0818,3.104,3.0736,2.9472,2.7715,2.612,2.514,2.552,2.6603,0.0,0.0,0.0,3.4739,3.5719,3.6012,0.0,3.6041,0.0,3.5397,3.5324,3.5529,3.6027,3.5778,3.5807,3.6305,3.6817,3.7095,3.7095,3.6773,3.67,3.6875,3.6553,3.6275,3.6056,3.5631,3.5324,3.5105,3.4827,3.471,3.471,3.471,3.4592,3.4417,3.4285,3.4022,3.37,3.3363,3.3158,3.3056,3.3246,3.3305,3.3378,0.0,0.0,0.0,0.0,0.0,0.0,0.0,0.0,0.0,0.0,0.0,0.0,0.0,0.0,0.0,0.0,0.0,0.0,0.0,0.0,0.4616,0.4564,0.457,0.4211,0.3414,0.3381,0.305,0.2322,0.2289,0.2301,0.2354,0.235,0.26,0.3109,0.4267,0.5092,0.5594,0.5843,0.6833,0.825,0.8611,0.9632,1.1075,0.0,1.2774,1.284,1.3235,1.3792,0.0,0.0,1.5468,1.5867,1.639,1.7331,1.8422,1.9457,2.0304,2.1132,2.2245,2.2835,2.3667,2.554,2.6061,2.6543,2.813,2.8228,2.7608,2.6445,2.5403,2.4437,2.3457,2.3691,2.4788,2.7159,0.0,3.0978,3.3993,3.4885,3.5456,3.61,3.6685,3.6817,3.629,3.6173,3.6275,3.6641,3.6334,3.6261,3.6583,3.6875,3.7051,3.7095,3.6861,3.6714,3.667,3.6348,3.6305,3.6524,3.5646,3.5449,3.5654,3.4973,3.471,3.471,3.471,3.468,3.4622,3.4388,3.4036,3.3641,3.3407,3.3115,3.2837,3.2837,3.2866,3.2939,0.0,0.0,0.0,0.0,0.0,0.0,0.0,0.0,0.0,0.0,0.2303,0.2326,0.0,0.0,0.0,0.0,0.0,0.0,0.0,0.0,0.0,0.4499,0.4548,0.4173,0.3322,0.3349,0.3022,0.219,0.2206,0.2196,0.223,0.2206,0.2268,0.2415,0.2616,0.2891,0.3312,0.3636,0.478,0.6529,0.8045,0.9491,1.0871,1.2246,0.0,0.0,1.3235,0.0,0.0,0.0,1.5812,1.6842,1.6837,1.8061,1.9711,2.029,2.0831,2.1389,2.2735,2.3063,2.2922,2.3165,2.4214,2.5158,2.506,2.5357,0.0,0.0,2.372,2.2754,2.1803,2.2754,2.4598,2.7408,2.9222,3.1461,3.4914,3.5581,3.5792,0.0,3.6626,3.6744,3.6905,3.6436,0.0,0.0,3.6451,3.6261,3.6583,3.6656,3.6817,3.708,3.73,3.727,3.7007,3.6685,3.6407,3.6202,3.5763,3.5552,3.5236,3.4871,3.471,3.471,3.471,3.4549,3.4314,3.4534,3.411,3.3349,3.3568,3.3451,3.3158,3.3158,3.3334,3.3612,0.0,0.0,0.0,0.0,0.0,0.0,0.0,0.0,0.1392,0.2232,0.2353,0.2357,0.2297,0.0,0.0,0.0,0.0,0.0,0.0,0.0,0.0,0.0,0.0,0.0,0.361,0.3677,0.3283,0.248,0.0,0.2383,0.2222,0.2176,0.2223,0.2223,0.2961,0.3362,0.3631,0.4702,0.577,0.6902,0.8706,0.9975,1.0836,0.0,0.0,0.0,0.0,0.0,0.0,0.0,1.5552,1.6594,1.7199,1.8515,2.0061,2.0946,2.1343,2.1649,2.2738,2.2816,2.2437,2.1926,2.2023,2.2118,2.1768,0.0,0.0,2.2025,2.1838,2.1568,2.1715,2.2754,0.0,2.6354,2.7627,2.9647,3.3378,3.4036,0.0,3.6173,3.6802,3.7036,0.0,3.6553,3.6542,3.6882,3.6531,3.6583,3.708,3.727,3.7285,3.7095,3.7241,3.7168,3.6846,3.6509,3.6363,3.6363,3.5705,3.5493,3.5397,3.4914,3.471,3.471,3.471,3.4622,3.4475,3.4636,3.4329,3.3773,3.3919,3.3788,3.348,3.3305,3.3451,3.3758,0.0,0.0,0.0,0.0,0.0,0.0,0.0,0.0419,0.0993,0.2225,0.2403,0.2382,0.23,0.2281,0.2543,0.0,0.0,0.0,0.0,0.0,0.0,0.0,0.0,0.0,0.0,0.0,0.0,0.2776,0.2745,0.0,0.0,0.0,0.0,0.0,0.3362,0.3833,0.3964,0.577,0.6894,0.0,0.0,1.0551,0.0,0.0,0.0,0.0,0.0,0.0,0.0,0.0,1.4823,1.5653,1.6875,1.84,2.0023,2.0955,2.1343,2.1678,2.2482,2.2404,2.1882,2.1116,2.0272,1.9491,1.9172,1.855,0.0,1.9561,2.0204,2.0788,2.1598,2.2643,2.3852,0.0,2.5947,2.7669,3.1637,3.2427,3.3478,0.0,3.6817,0.0,3.6656,3.667,0.0,3.681,3.6823,3.7109,3.7548,3.7958,3.787,3.7212,3.7197,3.7036,3.6714,3.6378,3.6348,3.6597,3.5763,3.547,3.5713,3.5061,3.4768,3.471,3.471,3.471,3.471,3.471,3.4519,3.4212,3.4212,3.4066,3.3802,3.3466,3.3554,3.3832,0.0,0.0,0.0,0.0,0.0,0.0,0.0,0.1239,0.2115,0.2401,0.2398,0.2358,0.2297,0.2335,0.2455,0.0,0.0,0.0,0.0,0.0,0.0,0.0,0.0,0.0,0.0,0.0,0.0,0.2808,0.2731,0.0,0.0,0.0,0.0,0.0,0.0,0.2423,0.249,0.423,0.0,0.0,0.0,0.0,0.0,0.0,0.0,0.0,0.0,0.0,0.0,0.0,0.0,1.3943,1.4718,1.7052,1.9529,1.9683,0.0,0.0,2.2181,2.1994,2.136,2.0603,1.9577,1.8727,1.8644,0.0,1.7194,1.8173,1.9424,2.0301,2.0322,2.1596,2.3325,2.5227,2.5548,2.7052,0.0,0.0,0.0,0.0,0.0,0.0,3.6612,3.6875,3.7065,3.7024,3.7636,3.7826,3.7592,3.8163,3.8192,3.7548,3.7534,3.7373,3.7051,3.6714,3.6583,3.6597,3.6217,3.5895,3.5728,3.528,3.4958,3.471,3.471,3.471,3.471,3.471,3.4519,3.4212,3.4212,3.4197,3.4139,3.3802,3.389,3.4168,0.0,0.0,0.0,0.0,0.0,0.0,0.0,-0.0613,0.0069,0.1039,0.1964,0.2417,0.2375,0.2391,0.2475,0.0,0.0,0.0,0.0,0.0,0.0,0.0,0.0,0.0,0.0,0.0,0.3794,0.3008,0.3044,0.0,0.0,0.0,0.0,0.0,0.0,0.2692,0.3564,0.5366,0.0,0.0,0.0,0.0,0.0,0.0,0.0,0.0,0.0,0.0,1.2653,0.0,0.0,0.0,1.336,1.4819,0.0,0.0,1.8998,1.9608,2.1041,2.1079,2.0567,1.9941,1.8534,1.7298,1.6907,0.0,1.5089,1.6252,1.7854,1.9211,1.984,2.1422,2.2821,2.3328,2.3321,2.4237,2.7244,0.0,0.0,0.0,3.4254,0.0,0.0,0.0,3.7068,3.6853,3.7323,3.7444,3.7234,3.7897,3.8046,3.7592,3.7387,3.7124,3.6802,3.667,3.6597,3.6597,3.6085,3.5763,3.5728,3.5119,3.4827,3.471,3.471,3.471,3.471,3.471,3.4622,3.4505,3.4505,3.4505,3.4475,3.4139,3.4227,3.4475,0.0,0.0,0.0,0.0,0.0,-0.4661,-0.2635,-0.1763,-0.09,0.0221,0.1585,0.2433,0.2413,0.2379,0.2373,0.25,0.0,0.0,0.0,0.0,0.0,0.0,0.0,0.0,0.0,0.0,0.3888,0.3228,0.3228,0.2825,0.0,0.0,0.2223,0.2223,0.0,0.0,0.0,0.0,0.0,0.0,0.0,0.0,0.0,0.0,0.0,0.0,0.0,0.0,0.0,0.0,0.0,0.0,0.0,0.0,0.0,0.0,1.7717,1.8457,1.9729,2.0049,1.9922,1.9264,1.7754,1.6286,1.5743,1.4378,1.3509,1.4543,1.6138,1.7656,1.8551,2.0442,2.176,2.1548,2.1685,2.2553,2.4552,2.5285,0.0,0.0,0.0,3.3466,0.0,3.6458,3.6998,3.6803,3.7116,3.7188,3.6663,3.7309,3.7607,3.7375,3.7142,3.6822,3.6612,3.6597,3.6597,3.6597,3.6041,3.5734,3.5728,3.509,3.4797,3.471,3.471,3.471,3.471,3.471,3.471,3.471,3.471,3.471,3.468,3.4446,3.4505,3.4666,0.0,0.0,0.0,0.0,0.0,0.0,0.0,-0.1495,0.021,0.0369,0.156,0.2379,0.2379,0.2273,0.2214,0.2171,0.0,0.0,0.0,0.0,0.0,0.0,0.0,0.0,0.0,0.0,0.3684,0.3228,0.3228,0.2825,0.2223,0.2223,0.2223,0.2223,0.0,0.0,0.0,0.0,0.0,0.0,0.0,0.0,1.2774,0.0,0.0,0.0,0.0,0.0,0.0,0.0,0.0,0.0,0.0,1.232,1.2701,0.0,1.6251,1.7779,1.8526,1.9096,1.9394,1.8866,1.738,1.5943,1.5604,1.4083,1.288,1.3241,1.4476,1.5597,1.6139,1.8363,2.012,2.0146,2.1208,2.2636,2.4273,2.5347,0.0,0.0,0.0,3.1325,3.393,3.6045,3.713,3.6935,3.7382,0.0,3.6033,3.6491,3.6765,3.675,3.6736,3.6637,3.6612,3.6597,3.6597,3.6597,3.6275,3.5953,3.5728,3.531,3.4988,3.471,3.471,3.471,3.471,3.471,3.471,3.471,3.471,3.471,3.471,3.4695,3.4695,3.471,0.0,0.0,0.0,0.0,0.0,0.0,0.0,-0.2951,-0.1182,-0.109,0.0836,0.2273,0.2313,0.2248,0.2213,0.2173,0.0,0.0,0.0,0.0,0.0,0.0,0.0,0.0,0.0,0.0,0.3801,0.3686,0.3686,0.3345,0.2596,0.2596,0.2582,0.2559,0.2559,0.4031,0.0,0.0,0.0,0.0,0.0,1.1853,1.2653,0.0,0.0,0.0,0.0,0.0,0.0,0.0,0.0,0.0,0.0,0.0,0.0,1.2856,1.4153,1.5593,1.6518,1.705,1.725,1.6966,1.591,1.4854,1.4654,1.3464,1.2493,1.262,1.3913,1.5047,1.5002,1.7559,1.9814,1.9946,2.1155,2.2304,0.0,0.0,0.0,2.8158,3.1973,3.5078,0.0,0.0,3.6871,3.6551,3.6941,3.6566,3.5224,3.6058,3.6453,3.6139,3.5717,3.5706,3.6004,3.6004,3.61,3.6261,3.5939,3.5631,3.539,3.4988,3.4797,3.471,3.471,3.471,3.471,3.471,3.471,3.471,3.471,3.471,3.471,3.471,3.471,3.471,0.0,0.0,0.0,0.0,0.0,0.0,0.0,-0.3293,-0.1712,-0.1163,0.0794,0.2176,0.2248,0.2181,0.2162,0.2169,0.0,0.0,0.0,0.0,0.0,0.0,0.0,0.0,0.3566,0.3566,0.3668,0.3878,0.3897,0.3627,0.3072,0.2947,0.2848,0.2782,0.3236,0.4554,0.0,0.0,0.0,0.0,1.1607,1.1972,1.267,0.0,0.0,0.0,0.0,0.0,0.0,0.0,0.0,0.0,0.0,0.0,0.0,0.0,1.2791,1.3839,1.4806,1.548,1.5861,1.5683,1.4879,1.4107,1.4002,1.3108,1.2392,1.2584,1.3285,1.3913,1.3985,1.6002,1.7859,1.8489,1.984,2.1092,0.0,0.0,0.0,2.8136,0.0,0.0,0.0,3.6532,3.6528,3.6537,3.65,3.601,3.5017,3.5603,3.5758,3.5156,3.5,3.5081,3.5337,3.5535,3.5658,3.5647,3.5521,3.5449,3.5149,3.4841,3.471,3.471,3.471,3.471,0.0,3.471,3.471,3.471,3.471,3.471,3.471,3.471,3.471,3.471,0.0,0.0,0.0,0.0,0.0,0.0,0.0,0.0,0.0,0.0,0.1211,0.209,0.2174,0.2083,0.2074,0.0,0.0,0.0,0.0,0.0,0.0,0.0,0.0,0.0,0.3161,0.3228,0.3477,0.3925,0.398,0.3863,0.351,0.319,0.3002,0.2891,0.399,0.4594,0.5057,0.8448,1.0201,1.0667,1.208,1.2676,0.0,0.0,0.0,0.0,0.0,0.0,0.0,0.0,0.0,0.0,0.0,0.0,0.0,0.0,0.0,0.0,0.0,1.4375,1.4984,1.4822,1.4156,1.3477,1.3477,1.2897,0.0,1.2939,1.2656,1.2477,1.3178,1.3871,1.4841,1.6254,1.7716,1.9224,2.0919,2.3073,0.0,0.0,3.1957,0.0,3.4207,3.528,3.6097,3.6606,3.6199,3.5587,3.5075,3.5323,3.4941,3.3788,3.4321,3.4551,3.4563,3.4913,3.5049,3.4832,3.5009,3.5149,3.5119,3.4827,3.471,0.0,3.471,3.471,3.471,3.471,3.471,3.471,3.471,3.471,3.471,3.471,3.471,3.471,0.0,0.0,0.0,0.0,0.0,0.0,0.0,0.0,0.0,0.0,0.1182,0.2005,0.2027,0.2004,0.2009,0.0,0.0,0.0,0.0,0.0,0.0,0.0,0.0,0.0,0.3161,0.3228,0.3614,0.4343,0.4403,0.431,0.3916,0.3567,0.3303,0.3277,0.3467,0.4438,0.6009,0.7617,0.9084,1.0381,1.079,1.1565,0.0,0.0,0.0,0.0,1.2564,1.2491,0.0,0.0,0.0,0.0,0.0,0.0,0.0,0.0,1.1955,1.2117,1.2247,0.0,1.2986,1.2946,1.2775,1.2621,0.0,1.2345,1.2109,1.2212,1.2188,1.2196,1.2532,1.3385,1.4742,1.6819,1.7177,1.8359,2.1621,2.4863,0.0,3.0698,3.3205,3.4795,3.478,3.5662,3.6292,3.6392,3.5888,3.5271,3.4446,3.4684,3.425,3.2978,3.3278,3.3616,3.3959,3.3823,3.4045,3.4503,3.4622,3.4653,3.4812,3.4739,3.471,3.471,3.471,3.471,3.471,3.471,3.471,3.471,3.471,3.471,3.471,3.471,3.471,3.471,0.0,0.0,0.0,0.0,0.0,0.0,0.0,0.0,0.0,0.0,0.0,0.0,0.0,0.0,0.0,0.0,0.0,0.0,0.0,0.0,0.0,0.0,0.0,0.2625,0.2961,0.3297,0.3693,0.4032,0.4226,0.4281,0.4116,0.3551,0.3337,0.3398,0.3062,0.3997,0.5988,0.7161,0.835,0.9557,1.087,0.0,0.0,0.0,0.0,0.0,1.2629,1.2467,0.0,1.2588,1.2475,1.219,0.0,0.0,0.0,0.0,1.1955,1.1996,1.1825,1.1971,1.2182,1.2182,1.2182,1.2199,1.2288,1.2166,1.2052,1.232,1.2147,1.206,1.2353,1.2706,1.3533,1.5506,1.5757,1.7402,2.2157,0.0,2.7812,3.1245,3.3261,3.4486,0.0,3.5137,3.5592,3.6132,3.5111,3.4433,3.4405,3.4234,3.3619,3.2656,3.2438,3.2633,3.306,3.3284,3.3627,3.3889,3.4282,3.4501,3.449,3.4636,3.4622,3.449,3.4636,3.471,3.471,3.471,3.471,3.471,3.471,3.471,3.471,3.471,3.471,3.471,0.0,0.0,0.0,0.0,0.0,0.0,0.0,0.0,0.0,0.0,0.0,0.0,0.0,0.0,0.0,0.0,0.0,0.0,0.0,0.0,0.0,0.0,0.0,0.263,0.2702,0.3302,0.3568,0.3494,0.3842,0.4045,0.4173,0.3549,0.3224,0.3347,0.273,0.3452,0.5233,0.6864,0.7838,0.8516,1.1441,0.0,0.0,0.0,0.0,0.0,0.0,0.0,0.0,1.245,1.2304,1.202,1.2207,0.0,0.0,0.0,0.0,0.0,1.1882,1.1979,1.2093,1.2012,1.2012,1.206,1.2199,1.2101,1.209,1.2557,1.2279,1.2065,1.246,1.2184,1.235,1.3782,1.4974,1.7439,2.2514,2.4721,2.7175,3.0981,3.239,0.0,3.455,3.3823,3.413,3.6061,3.4227,3.3489,3.4535,3.3766,3.31,3.2576,3.1998,3.181,3.1971,3.2777,3.31,3.3023,3.3938,3.4304,3.4227,3.4549,3.4534,3.4241,3.4563,0.0,3.4636,3.468,3.471,3.471,3.471,3.471,3.471,3.471,3.471,3.471,0.0,0.0,0.0,0.0,0.0,0.0,0.0,0.0,0.0,0.0,0.0,0.0,0.0,0.0,0.0,0.0,0.0,0.0,0.0,0.0,0.0,0.2114,0.2209,0.2438,0.2673,0.2779,0.3074,0.3446,0.3498,0.3803,0.4303,0.3822,0.3455,0.3169,0.2511,0.2755,0.3951,0.6243,0.7416,0.8027,1.1268,0.0,0.0,0.0,0.0,0.0,0.0,0.0,0.0,1.2499,1.2231,1.1849,1.202,0.0,0.0,0.0,0.0,0.0,1.215,1.2353,1.2377,1.1931,1.1922,1.2004,1.1882,1.1833,1.1825,1.191,1.1894,1.1857,1.2065,1.2142,1.2763,1.4309,1.8046,2.1221,2.2718,2.6151,2.895,3.0378,0.0,3.1699,3.3426,3.1425,3.1822,3.6184,3.3449,3.2511,3.4451,3.3855,3.3031,3.2198,3.2078,3.1824,3.137,3.1302,3.1618,3.2393,3.2845,3.3408,3.4227,3.4549,3.4534,3.4241,3.4563,3.4549,3.4314,3.4592,3.471,3.471,3.471,3.471,3.471,3.471,3.471,3.4739,0.0,0.0,0.0,0.0,0.0,0.0,0.0,0.0,0.0,0.0,0.0,0.0,0.0,0.0,0.0,0.0,0.0,0.0,0.0,0.0,0.0,0.2108,0.2139,0.2304,0.2405,0.2841,0.3053,0.2882,0.3181,0.3403,0.3697,0.3525,0.3274,0.289,0.2719,0.2831,0.3332,0.5139,0.6638,0.7954,0.0,0.0,0.0,0.0,0.0,0.0,0.0,0.0,0.0,0.0,1.2134,1.1792,1.1866,0.0,0.0,0.0,0.0,0.0,1.1979,1.2142,1.2215,1.1971,1.2117,1.2272,1.2101,1.1914,1.1833,1.202,1.1987,1.1996,1.2272,1.2548,1.3203,1.4611,1.6964,1.9533,2.2088,2.443,2.7071,0.0,0.0,3.0385,3.1894,2.9838,2.9554,3.2319,3.0979,3.0619,3.2128,3.2078,3.181,3.141,3.1396,3.1183,3.0755,3.0897,3.1446,3.2345,3.2945,3.3389,3.37,3.4036,3.3993,3.3715,3.4227,3.4358,3.4241,3.4578,3.471,3.471,3.471,3.471,3.471,3.471,3.4914,3.5236,0.0,0.0,0.0,0.0,0.0,0.0,0.0,0.0,0.0,0.0,0.0,0.0,0.0,0.0,0.0,0.0,0.0,0.0,0.0,0.0,0.2064,0.2087,0.2131,0.2185,0.2251,0.2854,0.2956,0.25,0.2935,0.3301,0.3504,0.3507,0.3369,0.2986,0.3021,0.3003,0.3118,0.4416,0.5863,0.7424,0.0,0.0,0.0,0.0,0.0,0.0,0.0,0.0,0.0,0.0,0.0,0.0,0.0,0.0,0.0,1.1776,1.1776,1.1792,1.1882,1.1996,1.2093,1.2093,1.2272,1.245,1.2483,1.2247,1.2134,1.254,1.2475,1.2418,1.2645,1.3084,1.379,1.496,1.6193,1.828,2.2087,2.3544,2.5867,3.038,2.9468,2.9174,3.0708,2.8165,2.7118,2.8813,2.8774,2.902,3.009,3.0848,3.1062,3.0902,3.0889,3.0807,3.055,3.1081,3.1512,3.2029,3.3038,3.33,3.3171,3.3583,3.3554,3.3276,3.3934,3.4168,3.4139,3.4534,3.471,3.471,3.471,3.4753,3.4797,3.4724,3.5105,3.5742,0.0,0.0,0.0,0.0,0.0,0.0,0.0,0.0,0.0,0.0,0.0,0.0,0.0,0.0,0.0,0.0,0.0,0.0,0.0,0.0,0.2023,0.2024,0.2108,0.2234,0.2403,0.2356,0.2417,0.2596,0.315,0.3834,0.4454,0.4345,0.4109,0.3909,0.3345,0.3063,0.3215,0.4619,0.5368,0.5773,0.8827,0.0,0.0,0.0,0.0,0.0,0.0,0.0,0.0,0.0,0.0,0.0,0.0,0.0,1.1776,1.1776,1.1776,1.1849,1.2182,1.228,1.2288,1.2288,1.2174,1.2239,1.2889,1.2897,1.2913,1.3372,1.3401,1.323,1.3084,1.3758,1.4635,1.5561,1.7953,2.0764,2.3672,0.0,2.819,3.1134,2.8508,2.7615,3.034,2.5725,2.4297,2.8536,2.8164,2.8548,3.021,3.1515,3.1934,3.1196,3.1196,3.1101,3.1081,3.152,3.1651,3.1385,3.2233,3.2826,3.3171,3.3583,3.3554,3.3276,3.3934,3.4051,3.3817,3.4446,3.471,3.471,3.471,3.4871,3.509,3.4812,3.5105,3.5742,0.0,0.0,0.0,0.0,0.0,0.0,0.0,0.0,0.0,0.0,0.0,0.0,0.0,0.0,0.0,0.0,0.0,0.0,0.0,0.2003,0.2027,0.2046,0.2098,0.2202,0.2364,0.2418,0.2534,0.2716,0.3144,0.3751,0.4399,0.4108,0.3949,0.377,0.3486,0.3219,0.3076,0.3635,0.4383,0.5383,0.6859,0.8524,0.0,0.0,0.0,0.0,0.0,0.0,0.0,0.0,1.2069,1.1776,1.1776,1.1776,1.1776,1.1776,1.1776,1.1809,1.1939,1.2052,1.2134,1.2134,1.2166,1.2361,1.2954,1.3043,1.3214,1.3905,1.4083,1.4042,1.4091,1.4651,1.5366,1.6146,1.7533,1.9482,2.2403,2.4443,2.6295,2.8235,2.7214,2.6513,2.6981,2.3976,2.2595,2.4377,2.4904,2.6111,2.8159,2.8985,2.9952,3.1134,3.1134,3.1035,3.0794,3.1797,3.2086,3.1788,3.2549,3.2965,3.2954,3.329,3.3246,3.2983,3.3641,3.3846,3.3773,3.4432,3.471,3.471,3.471,3.4885,3.5149,3.5031,3.5397,3.5939,0.0,0.0,0.0,0.0,0.0,0.0,0.0,0.0,0.0,0.0,0.0,0.0,0.0,0.0,0.0,0.0,0.0,0.0,0.1977,0.1994,0.2015,0.2035,0.2074,0.2157,0.2288,0.2428,0.2583,0.2755,0.3257,0.3824,0.4312,0.4199,0.4073,0.401,0.3826,0.3572,0.328,0.3232,0.3758,0.4603,0.5372,0.7131,0.0,0.0,0.0,0.0,0.0,0.0,0.0,0.0,1.202,1.1776,1.1776,1.1776,1.1776,1.1776,1.1695,1.1606,1.1606,1.1646,1.1719,1.1833,1.2044,1.2434,1.3254,1.3482,1.3807,1.4814,1.4846,1.4741,1.4927,1.5268,1.5748,1.6462,1.7177,1.8573,2.1525,2.2841,2.4275,2.62,2.5719,2.5102,2.4534,2.2759,2.1593,2.1593,2.2869,2.4301,2.5749,2.7202,2.8719,3.0181,3.0922,3.1146,3.0923,3.1968,3.2326,3.2088,3.2863,3.3085,3.2778,3.2997,3.2983,3.2807,3.3451,3.3729,3.3773,3.4432,3.471,3.471,3.471,3.4885,3.5163,3.5163,3.5558,3.6114,0.0,0.0,0.0,0.0,0.0,0.0,0.0,0.0,0.0,0.0,0.0,0.0,0.0,0.0,0.0,0.0,0.0,0.0,0.1977,0.1977,0.1977,0.1977,0.2033,0.2106,0.2196,0.2375,0.254,0.2691,0.3569,0.415,0.439,0.4686,0.4793,0.4649,0.4414,0.4169,0.3913,0.3754,0.3492,0.3231,0.4669,0.6104,0.7471,0.0,0.0,0.0,0.0,0.0,0.0,0.0,1.1914,1.1776,1.1776,1.1776,1.1776,1.1776,1.1516,1.1232,1.1232,1.1102,1.1118,1.1419,1.1776,1.2418,1.3855,1.431,1.4789,1.6048,1.574,1.5301,1.5488,1.552,1.5756,1.6462,1.7177,1.8573,2.1515,2.1673,2.2614,2.5496,2.4149,2.3167,2.3619,2.222,2.1168,2.1168,2.2769,2.3545,2.3331,2.6725,2.8678,2.8424,3.0619,3.1662,3.1596,3.2212,3.2479,3.2295,3.2939,3.3071,3.2778,3.2778,3.2778,3.2807,3.3451,3.3729,3.3788,3.4432,3.471,3.471,3.471,3.4885,3.5163,3.5163,3.5558,3.6114,0.0,0.0,0.0,0.0,0.0,0.0,0.0,0.0,0.0,0.0,0.0,0.0,0.0,0.0,0.0,0.0,0.0,0.0,0.1977,0.1977,0.1977,0.1977,0.2012,0.2045,0.2072,0.2208,0.2533,0.3084,0.3443,0.3781,0.4138,0.4445,0.4488,0.4349,0.409,0.3895,0.3651,0.3637,0.3567,0.3507,0.4262,0.5912,0.8063,0.0,0.0,0.0,0.0,0.0,0.0,0.0,0.0,0.0,1.1716,1.1857,1.1931,1.1809,1.1784,1.176,1.1646,1.1484,1.1459,1.1947,1.2337,1.2839,1.4091,1.4497,1.5017,1.6405,1.6316,1.6008,1.6056,1.5967,1.604,1.6503,1.6966,1.7834,1.9653,2.0729,2.1581,2.205,2.2499,2.2409,2.1521,2.0958,2.0724,2.0724,2.12,2.1971,2.3171,2.4039,2.5795,2.8488,2.9109,3.0123,3.1596,3.1903,3.2077,3.228,3.2471,3.2632,3.2778,3.2997,3.31,3.3129,3.3554,3.3861,3.411,3.4534,3.471,3.471,3.471,3.4885,3.5192,3.5412,3.5763,3.6144,0.0,0.0,0.0,0.0,0.0,0.0,0.0,0.0,0.0,0.0,0.1949,0.1977,0.0,0.0,0.0,0.0,0.0,0.0,0.0,0.1977,0.1977,0.1977,0.1993,0.2024,0.2072,0.2157,0.2406,0.2771,0.3145,0.3423,0.3728,0.4203,0.4485,0.4436,0.4366,0.4231,0.3952,0.3939,0.3828,0.3709,0.4619,0.6074,0.7867,0.0,0.0,0.0,0.0,0.0,0.0,0.0,0.0,0.0,1.1526,1.1659,1.1691,1.157,1.1533,1.1459,1.1289,1.1216,1.1362,1.2117,1.2678,1.3384,1.4676,1.5277,1.5845,1.686,1.6714,1.6454,1.66,1.6365,0.0,1.6633,1.6925,1.7538,1.8742,1.9649,2.0153,2.0176,2.1028,2.1225,2.0264,2.0318,2.0384,2.0299,2.0365,2.0817,2.191,2.259,2.4363,2.7521,2.8289,2.9499,3.1281,3.1597,3.1768,3.171,3.1973,3.2266,3.2588,3.291,3.3129,3.3276,3.3729,3.411,3.4432,3.4622,3.471,3.471,3.471,3.4812,3.5031,3.5581,3.5763,3.5997,0.0,0.0,0.0,0.0,0.0,0.0,0.0,0.0,0.0,0.0,0.1939,0.1977,0.0,0.0,0.0,0.0,0.0,0.0,0.0,0.0,0.1977,0.1977,0.1979,0.2031,0.2207,0.2169,0.2169,0.2206,0.2648,0.2998,0.3155,0.4003,0.4496,0.4747,0.4918,0.4864,0.4632,0.4504,0.4286,0.4079,0.5398,0.6506,0.7531,0.9092,0.0,0.0,0.0,0.0,0.0,0.0,0.0,0.0,1.1148,1.1269,1.1275,1.1253,1.1021,1.0712,1.059,1.0655,1.1029,1.2125,1.2986,1.3961,1.548,1.6332,1.6909,1.7283,0.0,1.6706,1.7047,1.6682,1.6438,1.6771,1.6958,1.7413,1.8287,1.8462,1.8748,1.9418,1.9741,1.9788,1.959,1.9911,2.0062,1.9873,2.0034,2.0138,2.005,2.1787,2.3796,2.5962,2.7779,2.936,3.0788,3.1344,3.1344,3.0788,3.1417,3.19,3.2251,3.2573,3.2939,3.3319,3.3949,3.4402,3.471,3.471,3.471,3.471,3.471,3.4724,3.4812,3.5383,3.5728,3.5778,0.0,0.0,0.0,0.0,0.0,0.0,0.0,0.0,0.0,0.0,0.0,0.0,0.0,0.0,0.0,0.0,0.0,0.0,0.0,0.0,0.1977,0.1977,0.1997,0.2022,0.2048,0.2054,0.2044,0.2015,0.246,0.2687,0.2739,0.3754,0.4233,0.4189,0.4607,0.4679,0.4444,0.4275,0.4763,0.5695,0.4929,0.6606,0.941,0.845,0.9243,0.0,0.0,0.0,0.0,0.0,0.0,0.0,1.1088,1.1269,1.1322,1.1619,1.1395,1.1159,1.1419,1.1411,0.0,1.284,1.4107,1.5252,1.6016,1.6308,1.6568,1.7063,1.6966,1.686,1.7071,1.6787,1.6544,1.6625,1.6665,1.6947,1.746,1.7801,1.821,1.876,1.9146,1.941,1.9373,1.9439,1.9477,1.9439,1.9477,1.9325,1.8974,1.9656,2.1524,2.4708,2.5287,2.7158,3.0451,3.0334,3.0334,3.0451,3.0846,3.1344,3.1915,3.2237,3.2837,3.3656,3.4051,3.4402,3.471,3.471,3.471,3.471,3.471,3.4856,3.5075,3.5207,3.5588,3.6041,0.0,0.0,0.0,0.0,0.0,0.0,0.0,0.0,0.0,0.0,0.0,0.0,0.0,0.0,0.0,0.0,0.0,0.0,0.0,0.0,0.1977,0.1977,0.2004,0.2012,0.1999,0.2011,0.2005,0.1977,0.2231,0.2399,0.2612,0.3501,0.3984,0.4085,0.4638,0.4619,0.4223,0.4011,0.4242,0.483,0.5447,0.6919,0.8794,0.9182,0.9955,1.0785,1.0604,0.0,0.0,0.0,0.0,0.0,0.0,0.0,1.0957,1.1177,1.1197,1.1126,1.1224,0.0,0.0,1.3636,0.0,1.5861,1.6219,1.6235,1.6308,1.6763,1.6787,1.6755,1.6844,1.6706,1.6527,1.6349,1.6397,1.6557,1.6801,1.7351,1.7829,1.8237,1.8745,1.9004,1.9004,1.9089,1.9015,1.8671,1.9184,1.9184,1.8475,1.9917,2.1874,2.4449,2.5322,2.7146,2.9881,2.9866,2.9866,2.9881,3.0217,3.0788,3.1593,3.2383,3.3027,3.3524,3.4007,3.4314,3.449,3.4636,3.471,3.471,3.471,3.4797,3.4958,3.5105,3.547,3.5909,0.0,0.0,0.0,0.0,0.0,0.0,0.0,0.0,0.0,0.0,0.0,0.0,0.0,0.0,0.0,0.0,0.0,0.0,0.0,0.0,0.0,0.1977,0.1999,0.2,0.1977,0.1999,0.2,0.1977,0.1977,0.2157,0.2535,0.3211,0.3686,0.4001,0.4437,0.4336,0.3904,0.3694,0.3726,0.3981,0.6145,0.7292,0.7997,1.0102,1.0805,1.0732,1.0732,1.0732,1.0671,1.0301,0.0,0.0,0.0,0.0,1.0465,1.0674,1.0817,1.0851,1.085,0.0,1.2653,1.4302,1.5333,0.0,1.6211,1.6146,1.6129,1.643,1.6487,1.6495,1.6527,1.6511,1.6381,1.6056,1.6121,1.6179,1.6266,1.6837,1.7421,1.7747,1.8235,1.8579,1.8617,1.8739,1.8594,1.8128,1.8885,1.9016,1.8174,2.0326,2.2382,2.4232,2.5727,2.7431,2.9295,2.9559,2.9559,2.9295,2.9734,3.0422,3.1344,3.2529,3.3173,3.3349,3.3846,3.4139,3.4314,3.4534,3.4651,3.471,3.471,3.471,3.4739,3.4988,3.5324,3.569,0.0,0.0,0.0,0.0,0.0,0.0,0.0,0.0,0.0,0.0,0.1866,0.1887,0.0,0.0,0.0,0.0,0.0,0.0,0.0,0.0,0.0,0.1977,0.1979,0.1981,0.1977,0.1981,0.1981,0.1977,0.1977,0.2063,0.2297,0.2733,0.3066,0.3139,0.3468,0.3543,0.3426,0.3169,0.4394,0.6495,0.5678,0.7436,1.0447,0.9568,0.9718,1.0368,1.0368,1.0368,1.0308,1.0004,1.0065,0.0,0.0,0.0,1.0191,1.076,1.0654,1.0492,0.0,0.0,1.3433,0.0,1.5147,1.5675,0.0,0.0,1.6056,0.0,1.6113,1.6162,1.6316,1.6219,1.6048,1.5845,1.5829,1.5772,1.5657,1.6367,1.6863,1.6942,1.7658,1.8201,1.838,1.8258,1.8149,1.83,1.8225,1.799,1.7536,1.839,2.0178,2.3064,2.3847,2.5792,2.8959,2.9003,2.9003,2.8973,2.9866,3.0642,3.1329,3.2076,3.2866,3.3656,3.3466,3.3861,3.4622,3.4388,3.4446,3.471,3.471,3.471,3.471,3.4753,3.5134,3.5742,0.0,0.0,0.0,0.0,0.0,0.0,0.0,0.0,0.0,0.0,0.0,0.1842,0.0,0.0,0.0,0.0,0.0,0.0,0.0,0.0,0.0,0.1926,0.1925,0.1933,0.1951,0.1951,0.1959,0.1977,0.1977,0.206,0.2221,0.2377,0.2736,0.3079,0.325,0.3215,0.2976,0.2772,0.3669,0.5341,0.5447,0.7007,0.9296,0.9358,0.9754,1.0308,1.0308,1.0429,1.0543,1.0186,1.0186,1.0247,1.0065,0.0,0.0,0.0,1.0573,1.086,1.1687,1.2426,1.3157,0.0,1.4741,1.5187,1.5642,0.0,1.578,1.5869,1.5813,1.5804,1.5975,1.5943,1.5804,1.552,1.5561,1.5569,1.5382,1.5917,1.6345,1.6449,1.7081,1.7608,1.8003,1.8013,1.7897,1.7691,1.7686,1.7487,1.71,1.8274,2.02,2.2853,2.4046,2.5936,2.856,2.8798,2.8886,2.89,2.9881,3.0598,3.1066,3.19,3.2617,3.3202,3.3232,3.3597,3.4168,3.4197,3.4402,3.471,3.471,3.471,3.471,3.471,3.4988,3.5493,0.0,0.0,0.0,0.0,0.0,0.0,0.0,0.0,0.0,0.0,0.0,0.0,0.0,0.0,0.0,0.0,0.0,0.0,0.0,0.0,0.0,0.1887,0.1894,0.1907,0.187,0.1871,0.1947,0.1977,0.1977,0.2065,0.2234,0.2241,0.2484,0.2962,0.3036,0.2904,0.2577,0.2815,0.3482,0.458,0.5823,0.7145,0.8424,0.9398,0.9889,1.013,1.0172,1.0361,1.0611,1.0308,1.0247,1.024,0.9842,0.9813,0.0,0.0,0.0,0.0,0.0,0.0,1.258,1.3482,1.4034,1.4513,0.0,0.0,1.5423,0.0,1.5536,1.5472,1.5553,1.5642,1.5593,1.5228,1.5285,1.5293,1.5065,1.5504,1.5863,1.5922,1.6593,1.7102,1.7381,1.7539,1.7501,1.6994,1.706,1.6952,1.6416,1.7804,1.9786,2.2484,2.403,2.5905,2.8355,2.8739,2.8886,2.89,2.9382,2.9767,3.0095,3.1124,3.174,3.2143,3.2834,3.3407,3.3875,3.4022,3.4329,3.471,3.471,3.471,3.471,3.471,3.49,3.5192,0.0,0.0,0.0,0.0,0.0,0.0,0.0,0.0,0.0,0.0,0.0,0.0,0.1797,0.1797,0.1809,0.1783,0.1786,0.0,0.0,0.0,0.0,0.1887,0.1913,0.0,0.1871,0.1871,0.1947,0.1977,0.1977,0.2097,0.2324,0.2199,0.2371,0.2587,0.2406,0.2294,0.2303,0.3424,0.4692,0.6101,0.7121,0.8295,0.9499,0.9559,0.9618,0.9639,0.9774,1.0065,1.0247,0.9943,1.0065,1.0219,0.9779,0.9618,0.961,0.0,0.0,0.0,0.0,1.1477,0.0,1.2304,0.0,0.0,0.0,0.0,0.0,1.5228,1.5182,1.5204,1.5041,1.5293,1.5407,1.5041,1.4992,1.4871,1.4521,1.5149,1.5528,1.5166,1.612,1.6721,1.656,1.6768,1.6805,1.656,1.6387,1.5972,1.524,1.5961,1.7883,2.1153,2.2431,2.4803,2.8355,2.8739,2.8886,2.89,2.807,2.7829,2.8052,2.9092,2.9743,3.0128,3.2054,3.3319,3.4168,3.3875,3.4139,3.471,3.471,3.471,3.471,3.471,3.49,3.5163,0.0,0.0,0.0,0.0,0.0,0.0,0.0,0.0,0.0,0.0,0.0,0.0,0.0,0.1842,0.1857,0.1869,0.1888,0.0,0.0,0.0,0.0,0.1887,0.1896,0.1911,0.187,0.1871,0.1947,0.1977,0.1977,0.2049,0.2189,0.2207,0.2273,0.2371,0.2233,0.2253,0.2276,0.3415,0.4755,0.606,0.7165,0.8408,0.9591,0.9395,0.9374,0.9456,0.9408,0.9576,0.9806,0.9686,0.9808,0.993,0.9761,0.9747,0.978,0.0,0.0,0.0,0.0,0.0,0.0,1.2012,1.241,1.2824,1.336,1.3815,1.4196,1.4497,1.4562,1.457,1.4619,1.4732,1.4773,1.4643,1.4529,1.4456,1.4432,1.4654,1.4802,1.4654,1.5254,1.5703,1.5812,1.5952,1.599,1.5821,1.5458,1.5263,1.5106,1.5085,1.6385,1.9245,2.0102,2.2489,2.6835,2.7153,2.7323,2.7516,2.6419,2.6133,2.651,2.7234,2.7774,2.8141,3.0128,3.1982,3.3597,3.37,3.3993,3.4417,3.4622,3.471,3.471,3.471,3.4768,3.49,0.0,0.0,0.0,0.0,0.0,0.0,0.0,0.0,0.0,0.1809,0.0,0.0,0.0,0.0,0.1889,0.19,0.191,0.1911,0.1902,0.1919,0.1922,0.1902,0.1911,0.1925,0.1945,0.1947,0.1956,0.1977,0.1977,0.2027,0.2125,0.2155,0.2202,0.2259,0.2218,0.2217,0.2377,0.4023,0.5245,0.6193,0.768,0.8881,0.9734,0.953,0.9551,0.9673,0.9678,0.97,0.9808,0.9659,0.9673,0.9734,0.9632,0.9598,0.9657,0.9947,0.0,0.0,1.0755,0.0,0.0,0.0,0.0,1.2085,1.2613,0.0,1.3384,1.3742,1.3863,1.3945,1.405,1.3977,1.3953,1.4067,1.4075,1.4042,1.4148,1.4237,1.4334,1.4245,1.47,1.5044,1.5089,1.5354,1.5328,1.5089,1.4868,0.0,1.4692,1.4465,1.5502,1.821,2.0092,2.2306,2.4946,2.5872,2.6122,2.5667,2.4673,2.4272,2.4615,2.5306,2.5815,2.615,2.8051,2.984,3.1325,3.2923,3.3451,3.3286,3.4167,3.4607,3.471,3.471,3.471,3.4739,0.0,0.0,0.0,0.0,0.0,0.0,0.0,0.0,0.1808,0.178,0.0,0.0,0.0,0.0,0.0,0.1932,0.1907,0.1902,0.193,0.1933,0.1933,0.1933,0.0,0.0,0.1977,0.1977,0.1977,0.1977,0.1977,0.2035,0.2216,0.212,0.217,0.2279,0.2162,0.2189,0.2467,0.5143,0.6333,0.6566,0.8709,0.9788,0.9997,0.9977,1.0127,1.0283,1.0419,1.0385,1.0209,0.9768,0.9618,0.9578,0.9323,0.9228,0.9277,0.9511,0.9953,0.0,0.0,0.0,0.0,0.0,0.0,0.0,1.1882,0.0,1.2637,1.2986,1.3214,1.3344,1.3344,1.3068,1.2928,1.3453,1.3542,1.3542,1.355,1.3899,1.4106,1.3935,1.4537,1.483,1.4474,1.4759,1.4839,1.4474,1.4474,1.4332,1.3904,1.4083,1.5441,1.8033,2.2388,2.411,2.2819,2.4992,2.5317,2.3736,2.2621,2.2246,2.2503,2.3286,2.3737,2.4145,2.6048,2.702,2.7536,3.1492,3.2401,3.1449,3.3457,3.4417,3.471,3.471,3.471,3.471,0.0,0.0,0.0,0.0,0.0,0.0,0.1832,0.1847,0.1864,0.0,0.0,0.0,0.1918,0.1956,0.1985,0.1993,0.1986,0.1977,0.1964,0.1964,0.1964,0.1964,0.1973,0.1977,0.1977,0.1977,0.1977,0.1977,0.1977,0.1993,0.2026,0.2038,0.2074,0.2127,0.2114,0.2132,0.23,0.4933,0.6748,0.7959,0.9155,0.9917,1.031,0.9768,0.9727,0.9937,0.9876,1.0039,1.0229,0.9876,0.991,1.0039,0.9734,0.9564,0.9503,0.9664,0.9863,1.004,1.045,0.0,0.0,0.0,0.0,0.0,1.1256,1.1541,1.1898,1.2247,1.2475,1.2637,1.2767,1.2702,1.2645,1.267,1.2783,1.2905,1.3043,1.3233,1.3448,1.3498,1.3776,1.3978,1.403,1.4118,1.4189,0.0,1.4047,1.4047,1.3904,1.4196,1.4852,1.6033,1.9234,2.0912,2.0765,2.2043,2.252,2.2306,2.0782,2.0324,2.0832,2.1097,2.1382,2.1827,2.3806,2.3946,2.3364,2.8833,3.1063,3.1153,3.3372,3.4417,3.471,3.471,3.471,3.471,0.0,0.0,0.0,0.0,0.0,0.1909,0.1866,0.1885,0.1904,0.0,0.0,0.0,0.1984,0.2039,0.206,0.2022,0.2019,0.2007,0.1978,0.1977,0.1977,0.1977,0.1977,0.1977,0.1977,0.1977,0.1977,0.1977,0.1977,0.1977,0.1977,0.1993,0.2011,0.2029,0.2046,0.2374,0.3007,0.5036,0.6531,0.7652,0.9274,1.0168,1.0555,1.0243,1.027,1.0466,1.0385,1.0521,1.067,1.0175,1.0005,0.9944,0.9639,0.9571,0.9625,0.9707,0.9831,1.0111,1.0502,1.0709,0.0,1.1344,0.0,0.0,1.1078,1.1118,1.124,0.0,1.1671,1.1801,1.1971,1.2004,1.1971,1.1874,1.2004,1.2288,1.2767,1.2986,1.3165,1.3352,1.3465,1.3595,1.3774,1.379,1.3823,1.3896,1.3904,1.3904,1.3904,1.4172,1.4482,1.4877,1.754,1.8757,1.8406,2.0013,2.0617,2.0239,1.9622,1.9533,1.9968,2.0138,2.0403,2.0724,2.197,2.1908,2.1413,2.5926,2.8524,2.9819,3.196,3.3529,3.471,3.471,3.471,3.471,0.0,0.0,0.0,0.1454,0.1959,0.1959,0.1909,0.1924,0.1943,0.0,0.1978,0.2018,0.2074,0.219,0.2121,0.2035,0.2026,0.2009,0.1978,0.1977,0.1977,0.1977,0.1977,0.1977,0.1977,0.1977,0.1977,0.1977,0.1977,0.1977,0.1977,0.1977,0.1977,0.1977,0.1977,0.0,0.3753,0.5111,0.0,0.6192,0.9118,1.0377,1.0571,1.1022,1.1204,1.1177,1.1318,1.1389,1.128,1.0568,1.0039,0.9632,0.9378,0.9415,0.9632,0.9632,0.9901,1.0308,1.0664,1.0868,1.1121,1.1715,1.1492,0.0,1.1191,1.0964,1.0777,1.0964,1.098,1.1021,1.1191,1.1224,1.1224,1.1224,1.1378,1.1784,1.2605,1.2881,1.3076,1.3262,1.3319,1.3409,1.3526,1.3612,1.3677,1.3831,1.3863,1.3872,1.3872,1.4066,1.4245,1.4399,1.671,1.7356,1.6185,1.8688,1.9323,1.8046,1.8829,1.9382,1.9609,1.9977,2.0289,2.0554,2.0733,2.0837,2.0995,2.3118,2.5563,2.8136,3.003,3.2445,3.471,3.471,3.471,3.471,0.0,0.0,0.0,0.1534,0.1973,0.1979,0.199,0.1997,0.2019,0.2068,0.2101,0.2133,0.217,0.2162,0.2138,0.2095,0.2069,0.2033,0.1979,0.1977,0.1977,0.1977,0.1977,0.1977,0.1977,0.1977,0.1977,0.1977,0.1977,0.1977,0.1977,0.1977,0.1977,0.1977,0.1977,0.216,0.2471,0.0,0.0,0.4716,0.8782,1.0034,0.957,1.0869,1.0511,0.9541,1.0895,1.1389,1.1314,1.0806,1.0419,1.0093,0.9788,0.9734,0.9781,0.9781,0.9802,0.9943,1.0308,1.0589,1.0906,1.1144,1.1323,0.0,1.1248,1.1062,1.0964,0.0,1.1062,1.1021,1.1191,1.1224,1.1224,1.1224,1.1378,1.1614,1.1939,1.2255,1.2523,1.2702,1.297,1.3222,1.3409,1.3425,1.3441,1.3474,1.3612,1.3693,1.3693,1.4002,1.4196,1.4229,1.5462,1.6078,1.592,1.7447,1.8216,1.8256,1.8838,1.9231,1.9599,1.9684,2.0015,2.0544,2.0582,2.079,2.1204,2.165,2.4212,2.816,3.0251,3.2547,3.471,3.471,3.471,3.471,0.0,0.0,0.0,0.0,0.2009,0.2024,0.2039,0.2054,0.208,0.2125,0.2196,0.2238,0.2223,0.2208,0.2169,0.2093,0.2059,0.2023,0.1979,0.1977,0.1977,0.1977,0.1977,0.1977,0.1977,0.1977,0.1977,0.1977,0.1977,0.1977,0.1977,0.1977,0.196,0.1933,0.1963,0.196,0.0,0.0,0.4011,0.4315,0.729,0.0,0.7831,0.8844,0.8663,0.8054,0.8934,0.9623,1.0152,1.0412,1.0453,1.0304,0.9856,0.9815,0.9876,0.9876,0.9883,0.9883,1.0186,1.0429,1.0649,1.1048,1.1209,0.0,0.0,1.1094,1.0964,1.0956,1.0818,1.0729,1.081,0.0,1.0803,1.0948,1.111,1.133,1.1598,1.1874,1.2109,1.228,1.245,1.271,1.3068,1.31,1.3181,1.336,1.3457,1.3547,1.3566,1.3815,1.3993,1.4172,1.4745,1.5184,1.5549,1.6466,1.7117,1.7504,1.8265,1.8801,1.9098,1.9467,1.9883,2.0384,2.0497,2.0715,2.1026,2.1234,2.383,2.7779,2.898,3.1529,3.4475,3.4651,3.471,3.471,-0.246,0.0,0.0,0.0,0.0,0.2059,0.2071,0.2083,0.2106,0.2216,0.2253,0.2307,0.2259,0.2174,0.2202,0.2116,0.2048,0.2011,0.2011,0.1984,0.1967,0.1967,0.1974,0.1974,0.1967,0.1974,0.1977,0.1977,0.1977,0.1977,0.1977,0.1977,0.1951,0.1904,0.2191,0.231,0.0,0.0,0.0,0.431,0.0,0.579,0.6115,0.6793,0.6885,0.6628,0.6906,0.7775,0.8969,0.9698,1.0265,1.048,0.9917,0.9903,1.0031,1.0031,1.0005,0.9971,1.0217,1.0381,1.0595,1.1149,1.1239,1.1228,0.0,0.0,0.0,0.0,0.0,0.0,0.0,0.0,0.0,0.0,0.0,0.0,0.0,1.1476,0.0,1.1996,1.1971,1.2125,1.2564,1.2653,1.2767,1.3084,1.3181,1.3295,1.3413,1.3555,1.3742,1.4066,1.4237,1.4586,1.513,1.5822,1.6275,1.6647,1.766,1.8273,1.8557,1.9098,1.9683,2.0176,2.0431,2.0567,2.0875,2.1708,2.4077,2.742,2.7784,3.0504,3.4256,3.4578,3.471,3.471,-0.2271,-0.197,0.0,0.0,0.0,0.0,0.0,0.0,0.2059,0.221,0.2237,0.2293,0.2286,0.2237,0.2221,0.2262,0.2091,0.2024,0.2195,0.2009,0.1936,0.1936,0.1962,0.1964,0.1937,0.1963,0.1977,0.1977,0.1977,0.1977,0.1977,0.1977,0.1973,0.2026,0.3034,0.3669,0.0,0.0,0.3986,0.0,0.309,0.3452,0.0,0.6624,0.6389,0.5168,0.6459,0.7908,0.9105,0.0,0.9692,1.0745,0.0,1.0229,1.0256,1.0256,0.0,0.0,1.0292,1.0677,1.1142,1.1243,1.1583,1.1909,1.1888,0.0,1.1435,1.1411,0.0,0.0,0.0,0.0,0.0,0.0,0.0,0.0,1.0777,1.0802,1.1118,1.1931,1.1752,1.1711,1.2085,1.1987,1.1979,1.2166,1.2475,1.2735,1.2855,1.323,1.3498,1.3631,1.3872,1.4221,1.4765,1.5571,1.6089,1.6461,1.7138,1.7826,1.8356,1.8632,1.9124,1.9977,2.0374,2.0567,2.0948,2.2994,2.5103,2.7087,2.7905,3.0675,3.4256,3.4578,3.471,3.471,-0.2274,-0.1345,0.0,0.0,0.0,0.0,0.0,0.0,0.2208,0.223,0.2327,0.2387,0.2369,0.2313,0.2274,0.2266,0.2151,0.2079,0.2076,0.2001,0.1958,0.1958,0.197,0.1971,0.1958,0.197,0.1977,0.1977,0.1977,0.1977,0.1977,0.1977,0.1958,0.1984,0.2469,0.0,0.3828,0.0,0.3195,0.0,0.0,0.255,0.0,0.4087,0.3961,0.3414,0.4905,0.6337,0.7672,0.0,0.9425,0.0,0.0,0.0,0.0,1.0283,0.0,0.0,0.0,0.0,1.0892,1.0876,1.1146,1.1483,1.1549,1.145,1.1383,1.1457,0.0,0.0,0.0,0.0,0.0,0.0,1.0972,0.0,0.0,0.0,1.0761,0.0,0.0,0.0,1.1687,1.1752,1.1809,1.1874,1.2117,1.2377,1.2661,1.2921,1.3189,1.3474,1.3758,1.4107,1.4546,1.5163,1.566,1.6023,1.6695,1.7295,1.7987,1.8427,1.9152,2.011,2.0412,2.0724,2.122,2.3208,2.5241,2.7208,2.8964,3.1392,3.3993,3.4519,3.471,3.471,-0.172,0.0,0.0,0.0,0.0,0.0,0.0,0.0,0.227,0.2266,0.2349,0.2409,0.241,0.2372,0.2342,0.2333,0.2247,0.2168,0.2109,0.2039,0.1986,0.1954,0.1967,0.1969,0.1952,0.1969,0.1977,0.1977,0.1977,0.1977,0.1977,0.1977,0.1952,0.1971,0.2295,0.294,0.372,0.0,0.304,0.3842,0.2685,0.2192,0.2206,0.2259,0.2259,0.23,0.3377,0.4934,0.6673,0.7365,0.905,1.0717,1.0287,1.0283,1.0337,0.0,0.0,0.0,0.987,0.0,1.0245,1.0099,1.0294,1.0619,1.1218,1.1417,1.1531,1.157,1.1695,0.0,0.0,0.0,0.0,0.0,0.0,1.107,0.0,0.0,0.0,0.0,0.0,0.0,0.0,1.1492,1.1606,1.1557,1.176,1.2044,1.2402,1.2588,1.2873,1.3279,1.3595,1.3953,1.4359,1.4895,1.5342,1.5707,1.6261,1.6848,1.7399,1.7989,1.879,1.9711,1.9947,2.038,2.1083,2.3035,2.515,2.7196,2.9677,3.1881,3.3802,3.4461,3.471,3.471,-0.0306,0.0,0.0,0.0,0.0,0.0,0.0,0.0,0.2138,0.2195,0.2232,0.2285,0.2371,0.2378,0.2424,0.254,0.2388,0.2297,0.2322,0.2158,0.2009,0.1894,0.1945,0.1949,0.1889,0.1947,0.1977,0.1977,0.1977,0.1977,0.1977,0.1977,0.1975,0.2036,0.3202,0.3905,0.4145,0.3841,0.3973,0.4144,0.2744,0.2174,0.2203,0.0,0.2228,0.2202,0.2269,0.0,0.0,0.6522,0.8443,1.0847,1.0751,0.0,0.0,0.0,0.0,0.0,0.0,0.8872,0.919,0.897,0.9067,0.9586,1.1135,1.1783,1.2012,1.1813,1.2174,1.2369,1.1849,0.0,0.0,1.1492,0.0,0.0,0.0,0.0,0.0,0.0,0.0,0.0,0.0,1.1037,1.1175,1.1061,1.1321,1.1671,1.2028,1.2223,1.2564,1.3084,1.3287,1.3644,1.418,1.4708,1.5163,1.5528,1.5878,1.6295,1.6715,1.7171,1.7699,1.8268,1.8929,1.9481,2.0327,2.2413,2.4785,2.7184,2.9456,3.1686,3.3802,3.4461,3.471,3.471,0.0,0.0,0.0,0.0,0.0,0.0,0.0,0.2165,0.2266,0.2365,0.2455,0.2545,0.2637,0.2646,0.2646,0.2647,0.2538,0.2439,0.2367,0.2232,0.2136,0.2095,0.2075,0.2045,0.2004,0.2023,0.2015,0.1977,0.1791,0.1791,0.1977,0.1791,0.1791,0.2037,0.2382,0.3062,0.0,0.0,0.0,0.0,0.0,0.2226,0.2282,0.0,0.2184,0.2143,0.2162,0.3432,0.5072,0.5028,0.6321,0.7875,0.7766,0.769,0.772,0.772,0.7727,0.768,0.7242,0.744,0.7672,0.7208,0.7484,0.8158,0.9405,1.0251,1.0934,1.1386,1.2065,1.2402,1.1622,0.0,0.0,0.0,0.0,0.0,0.0,0.0,0.0,0.0,0.0,0.0,0.0,0.0,1.085,1.0794,1.0899,1.1118,1.1476,1.1792,1.2199,1.2726,1.3035,1.3449,1.3985,1.4643,1.5147,1.552,1.5878,1.6287,1.6706,1.7078,1.7682,1.8435,1.9249,1.9744,2.0318,2.278,2.4957,2.7006,2.9365,3.1673,3.3788,3.4227,3.4519,3.471,0.0558,0.0,0.0,0.0,0.1985,0.2015,0.2083,0.2214,0.2345,0.2455,0.2572,0.2686,0.2788,0.2799,0.2784,0.2744,0.2688,0.2581,0.2406,0.2342,0.2274,0.2188,0.2157,0.2123,0.208,0.2069,0.2035,0.1853,0.1614,0.1614,0.1791,0.1606,0.1668,0.1977,0.0,0.2396,0.3088,0.2345,0.2504,0.0,0.0,0.2218,0.0,0.0,0.2163,0.2154,0.0,0.3107,0.4281,0.4323,0.5212,0.6356,0.63,0.6261,0.6309,0.6309,0.6322,0.6279,0.5822,0.594,0.6058,0.5612,0.6219,0.7277,0.8409,0.9672,1.076,1.111,1.1728,1.2099,0.0,0.0,0.0,0.0,0.0,0.0,0.0,1.1224,0.0,0.0,0.0,0.0,0.0,0.0,1.0915,1.0534,1.0737,1.098,0.0,1.1573,1.202,1.2612,1.297,1.3392,1.3807,1.4578,1.5114,1.5423,1.5845,1.6122,1.646,1.6835,1.7339,1.7912,1.8644,1.9275,1.9843,2.1664,2.4099,2.6771,2.8487,3.1031,3.3773,3.4095,3.4432,3.471,0.1762,0.2019,0.2012,0.1988,0.2004,0.2033,0.2065,0.2222,0.2372,0.2467,0.2585,0.2706,0.2826,0.2838,0.2837,0.2836,0.283,0.2716,0.2457,0.2488,0.2414,0.2254,0.2198,0.2183,0.2121,0.2087,0.1913,0.1486,0.1441,0.144,0.1482,0.1482,0.1668,0.1978,0.2005,0.0,0.1984,0.2071,0.2091,0.2135,0.2197,0.2224,0.2223,0.212,0.2162,0.2225,0.2106,0.299,0.4202,0.4204,0.5103,0.616,0.616,0.6172,0.612,0.612,0.6168,0.6005,0.4486,0.4275,0.4401,0.4149,0.5279,0.6774,0.8049,0.9958,1.1445,1.1069,0.0,0.0,0.0,0.0,0.0,0.0,0.0,0.0,0.0,0.0,1.1459,0.0,0.0,0.0,0.0,1.133,1.1347,1.0335,1.0802,1.1183,0.0,1.1549,1.1996,1.2596,1.3068,1.3441,1.3582,1.4529,1.5065,1.526,1.5707,1.5966,1.5974,1.6422,1.6682,1.6782,1.7234,1.8015,1.9094,1.937,2.2232,2.6645,2.6846,2.9754,3.3773,3.4124,3.4432,3.471,0.1959,0.2037,0.2057,0.2072,0.2063,0.2078,0.2154,0.2298,0.2457,0.2615,0.2759,0.2885,0.2984,0.2975,0.2951,0.293,0.2846,0.2755,0.2662,0.2589,0.2521,0.2535,0.2398,0.2338,0.2277,0.1928,0.1726,0.1594,0.1002,0.0867,0.1111,0.0,0.1296,0.0,0.0,0.0,0.2011,0.2056,0.2084,0.2101,0.2206,0.2181,0.2211,0.0,0.2119,0.2168,0.2091,0.2311,0.262,0.2648,0.2879,0.3177,0.3177,0.3246,0.3259,0.3259,0.3321,0.3313,0.2874,0.2813,0.2881,0.2738,0.411,0.5794,0.7013,0.903,1.069,1.0926,1.1373,1.1575,1.0871,1.1019,0.0,0.0,0.0,0.0,0.0,0.0,0.0,1.202,0.0,0.0,1.1321,1.098,1.0777,1.0761,1.0558,1.0607,1.1013,0.0,1.1671,1.2353,1.2767,1.3254,1.3831,1.4586,1.5122,1.5447,1.5853,1.5966,1.5974,1.6422,1.6682,1.6877,1.7579,1.8297,1.8884,1.9437,2.2368,2.6379,2.6645,2.957,3.3802,3.4373,3.4636,3.471,0.2041,0.2084,0.2133,0.2163,0.2187,0.2214,0.2252,0.2352,0.2478,0.2632,0.2773,0.2882,0.2947,0.2973,0.2969,0.2927,0.2861,0.2782,0.2684,0.2653,0.2615,0.2562,0.2511,0.2448,0.2373,0.1977,0.1617,0.1354,0.0814,0.0679,0.0988,0.0,0.0,0.0,0.0,0.2007,0.202,0.205,0.2089,0.2129,0.2133,0.2147,0.0,0.209,0.2076,0.2089,0.2042,0.2023,0.202,0.2038,0.2074,0.2109,0.2109,0.2162,0.2225,0.2225,0.2259,0.2223,0.2223,0.2223,0.2429,0.3024,0.4477,0.6106,0.7282,0.9086,1.0524,1.0667,1.0863,1.0927,1.053,1.0843,0.0,0.0,0.0,0.0,0.0,0.0,0.0,0.0,1.1752,0.0,1.1614,1.111,1.0737,1.0677,1.0604,1.0669,0.0,0.0,1.1606,1.2166,1.284,1.3384,1.3782,1.4732,1.5268,1.5398,1.5837,1.5966,1.5974,1.6332,1.656,1.6747,1.7202,1.7902,1.8681,1.9151,2.158,2.526,2.7553,3.0573,3.3802,3.4461,3.471,3.471,0.208,0.2151,0.2221,0.2247,0.2324,0.238,0.2369,0.2423,0.2503,0.2612,0.2731,0.2816,0.2844,0.2908,0.293,0.2879,0.2863,0.2789,0.263,0.269,0.2686,0.2582,0.257,0.2525,0.2438,0.1999,0.1554,0.1102,0.069,0.0679,0.0926,0.0,0.0,0.0,0.0,0.0,0.0,0.2046,0.2154,0.2202,0.2112,0.2086,0.2059,0.2059,0.2039,0.2009,0.1985,0.1992,0.2012,0.2012,0.205,0.2098,0.2102,0.2146,0.2195,0.2199,0.2222,0.2175,0.2175,0.2175,0.2524,0.3778,0.5381,0.694,0.7925,0.9467,1.0649,1.0392,1.0181,1.0108,1.0356,0.0,0.0,0.0,0.0,0.0,1.1833,0.0,0.0,0.0,0.0,0.0,1.1744,1.1395,1.0915,1.0347,1.0696,0.0,0.0,0.0,1.1671,1.2052,1.3068,1.3598,1.3712,1.4911,1.5431,1.535,1.574,1.5966,1.5974,1.6227,1.6389,1.6544,1.6653,1.7373,1.8479,1.8593,2.0676,2.4275,2.9274,3.2225,3.3802,3.4461,3.471,3.471,0.2166,0.2229,0.0,0.0,0.2357,0.2447,0.254,0.2627,0.2699,0.2746,0.2856,0.2932,0.2938,0.2909,0.2885,0.2875,0.2806,0.2748,0.2716,0.2705,0.2691,0.2671,0.2622,0.2564,0.25,0.1745,0.1309,0.1203,0.0697,0.0556,0.0617,0.1173,0.0,0.0,0.0,0.0,0.2019,0.2024,0.0,0.2044,0.2064,0.2053,0.2026,0.2026,0.2008,0.1984,0.1978,0.1979,0.1984,0.1984,0.2007,0.2038,0.2064,0.2113,0.2168,0.2192,0.2222,0.2175,0.2175,0.2175,0.2245,0.2524,0.4686,0.6766,0.694,0.8923,1.0704,1.0656,1.026,1.0053,1.0108,1.0476,0.0,0.0,0.0,0.0,1.2012,0.0,0.0,0.0,0.0,1.1857,0.0,1.1175,1.0858,1.1021,1.085,1.0794,0.0,0.0,1.1736,0.0,1.3011,1.3774,0.0,0.0,1.5496,1.582,1.5917,1.5966,1.5974,1.6227,1.6316,1.6357,1.6842,1.7545,1.8277,1.888,2.1802,2.6479,3.129,3.335,3.3802,3.4461,3.471,3.471,0.2278,0.0,0.0,0.0,0.2491,0.2575,0.268,0.2759,0.2791,0.2743,0.2787,0.2822,0.2822,0.284,0.2844,0.2829,0.2773,0.2731,0.2716,0.2701,0.2692,0.2692,0.2649,0.259,0.2517,0.168,0.125,0.1225,0.076,0.0615,0.075,0.1116,0.142,0.0,0.0,0.2027,0.0,0.0,0.0,0.2042,0.2041,0.2023,0.1999,0.2012,0.2001,0.1977,0.1977,0.1977,0.1977,0.1977,0.1994,0.2023,0.2054,0.2095,0.2138,0.2168,0.2187,0.2199,0.2199,0.2199,0.2403,0.3088,0.4387,0.5614,0.6361,0.8076,0.9461,0.9388,0.98,1.0231,1.0357,1.0794,1.1209,1.1555,1.2009,1.2215,1.1939,0.0,1.2223,0.0,0.0,0.0,0.0,0.0,0.0,0.0,0.0,1.0923,1.0834,0.0,1.176,0.0,0.0,0.0,1.4432,0.0,1.5642,1.5902,1.5999,1.5966,1.5966,1.6129,1.6219,1.63,1.6467,1.718,1.8328,2.0472,2.3356,2.6706,3.0667,3.2888,3.4036,3.4534,3.471,3.471,0.2149,0.2253,0.0,0.0,0.2464,0.2614,0.2591,0.2742,0.284,0.2743,0.2725,0.2721,0.2721,0.2774,0.28,0.2776,0.2746,0.2718,0.2694,0.2692,0.269,0.2683,0.266,0.2521,0.235,0.1686,0.126,0.1095,0.0699,0.0618,0.088,0.0997,0.1301,0.0,0.0,0.0,0.0,0.0,0.196,0.2044,0.2019,0.1996,0.1979,0.2001,0.1996,0.1977,0.1977,0.1977,0.1977,0.1977,0.1992,0.2016,0.2052,0.208,0.2105,0.2136,0.2217,0.222,0.2214,0.2217,0.249,0.3564,0.4099,0.4702,0.6101,0.7426,0.8443,0.8601,0.9525,1.041,1.0721,1.1038,1.1303,1.1379,1.187,1.2182,1.1764,0.0,0.0,0.0,0.0,0.0,1.1825,0.0,0.0,0.0,1.1183,1.1126,1.0769,1.1403,1.1792,0.0,0.0,1.401,1.4343,0.0,1.574,1.5886,1.5991,1.5966,1.5966,1.5966,1.6121,1.6243,1.6188,1.6952,1.8494,2.1893,2.4464,2.6504,2.9664,3.22,3.4256,3.4578,3.471,3.471,0.0,0.0,0.0,0.0,0.0,0.2591,0.2144,0.2553,0.287,0.2859,0.2833,0.2815,0.2815,0.2774,0.2746,0.2743,0.2714,0.2695,0.2692,0.2692,0.268,0.2653,0.2566,0.2431,0.1933,0.156,0.1065,0.0675,0.0522,0.0507,0.0557,0.0877,0.1064,0.0,0.0,0.0,0.155,0.1548,0.1734,0.1985,0.1982,0.1979,0.1977,0.1979,0.1979,0.1977,0.1977,0.1977,0.1977,0.1977,0.1978,0.199,0.211,0.213,0.2074,0.2105,0.2133,0.2216,0.2121,0.2133,0.2223,0.2356,0.3362,0.4702,0.6101,0.7426,0.8725,1.0019,1.0307,1.041,1.0721,1.1038,1.124,1.1068,1.1744,0.0,0.0,0.0,1.1906,1.1565,0.0,0.0,1.1338,1.1866,0.0,0.0,1.137,1.1321,1.0964,1.1476,1.1849,1.2004,1.3017,1.4058,1.4887,1.5155,1.561,1.6251,1.6113,1.5966,1.5966,1.5966,1.5974,1.6064,1.646,1.7365,1.8698,2.177,2.4459,2.6938,2.9948,3.2394,3.4256,3.4578,3.471,3.471,0.1341,0.1681,0.1879,0.177,0.2309,0.2684,0.2549,0.2746,0.284,0.2822,0.2825,0.274,0.2475,0.2601,0.2566,0.2395,0.2541,0.2692,0.2692,0.2692,0.2679,0.2566,0.2385,0.2098,0.1873,0.1195,0.0788,0.0,0.0532,0.0518,0.0508,0.0632,0.0689,0.0679,0.0926,0.1173,0.1482,0.1482,0.1668,0.1977,0.1977,0.1977,0.1977,0.1977,0.1977,0.1977,0.1977,0.1977,0.1979,0.1996,0.2001,0.2005,0.203,0.2061,0.2094,0.2106,0.2131,0.2218,0.2139,0.2213,0.2223,0.2223,0.2625,0.3354,0.4715,0.6066,0.7486,0.8926,0.9928,1.0606,1.0743,1.1192,1.1531,1.1359,1.1964,0.0,0.0,0.0,0.0,1.1344,0.0,1.1343,0.0,1.1589,0.0,0.0,0.0,1.1663,1.1305,1.1801,1.2125,1.219,0.0,1.4075,1.4635,1.5147,1.5658,1.6146,1.6081,1.5966,1.5966,1.5966,1.6105,1.6202,1.681,1.7179,1.7783,2.1343,2.4026,2.6285,2.9584,3.2242,3.4256,3.4578,3.471,3.471,0.0982,0.1484,0.1756,0.1736,0.2263,0.2706,0.2662,0.274,0.2807,0.2787,0.2793,0.2626,0.2364,0.2583,0.2554,0.2298,0.2536,0.2692,0.2692,0.2684,0.2665,0.2635,0.2206,0.0,0.1729,0.098,0.0584,0.0428,0.041,0.0331,0.0325,0.0381,0.0375,0.0373,0.0619,0.0926,0.1358,0.1358,0.1606,0.1977,0.1977,0.1977,0.1978,0.1986,0.1984,0.1978,0.1996,0.1996,0.1993,0.2022,0.2038,0.2045,0.2045,0.2075,0.2109,0.2109,0.2131,0.222,0.2144,0.2214,0.222,0.2143,0.2216,0.2682,0.4355,0.562,0.685,0.8772,0.9981,1.0772,1.0731,1.1314,1.1724,1.1423,1.2001,0.0,0.0,1.1799,0.0,1.1347,1.1324,1.1383,1.1271,1.1516,0.0,0.0,0.0,1.1866,1.1671,1.2069,0.0,0.0,0.0,0.0,1.4505,1.513,1.5642,1.5966,1.5966,1.5966,1.5966,1.6097,1.6186,1.6316,1.6891,1.7046,1.7222,2.0276,2.3205,2.5945,2.8716,3.1699,3.4388,3.4622,3.471,3.471,0.0501,0.1103,0.1377,0.0792,0.1961,0.2763,0.2182,0.2523,0.2784,0.2784,0.2758,0.2739,0.2653,0.2712,0.2692,0.2692,0.2692,0.2692,0.2692,0.2664,0.2634,0.0,0.0,0.1771,0.1336,0.092,0.0451,0.0,0.0,0.0,0.0,0.0,0.0,0.0,0.0,0.037,0.0988,0.0988,0.142,0.1977,0.1977,0.1977,0.1979,0.2007,0.2001,0.1985,0.2106,0.2044,0.2023,0.2053,0.2083,0.2108,0.2108,0.2109,0.2109,0.2109,0.2131,0.2216,0.2119,0.2132,0.2214,0.2117,0.2132,0.295,0.5737,0.651,0.7524,1.0257,1.0873,1.0833,1.0751,1.1314,1.1658,1.1099,1.1716,0.0,0.0,1.1713,0.0,1.1526,1.1932,1.2085,1.1549,1.1817,0.0,0.0,0.0,0.0,0.0,0.0,0.0,1.262,1.3271,0.0,1.47,1.5065,1.5433,1.5966,1.5966,1.5966,1.5974,1.6219,1.63,1.6324,1.669,1.7055,1.7502,1.8399,2.1806,2.6421,2.7263,3.0496,3.4695,3.471,3.471,3.4753,0.0588,0.1111,0.147,0.1643,0.2282,0.2734,0.2502,0.2666,0.2744,0.2724,0.2713,0.2706,0.2706,0.2698,0.2608,0.0,0.2524,0.2692,0.0,0.2664,0.2469,0.2198,0.179,0.1293,0.0796,0.0391,0.0153,0.0,0.0,0.0,0.0,0.0,0.0,0.0,0.0256,0.0573,0.1017,0.1259,0.1567,0.2004,0.1984,0.1977,0.1979,0.2008,0.2012,0.2008,0.2026,0.2039,0.205,0.2126,0.2084,0.2113,0.2133,0.214,0.2136,0.2116,0.2131,0.222,0.2143,0.2214,0.222,0.2143,0.2883,0.4093,0.6,0.8158,0.996,1.0765,1.1029,1.105,1.09,1.1126,1.1395,1.1358,1.1908,0.0,1.202,0.0,1.2123,1.1883,1.1877,1.1845,1.1549,1.1719,0.0,0.0,0.0,0.0,0.0,0.0,0.0,0.0,1.3807,0.0,1.4879,1.5358,1.5756,1.5966,1.5966,1.6105,1.6227,1.6276,1.6438,1.669,1.6925,1.7337,1.794,1.8854,2.2007,2.65,2.7424,3.049,3.4402,3.4622,3.4841,3.5031,0.0681,0.121,0.1746,0.2081,0.2444,0.2795,0.2746,0.2728,0.2714,0.2695,0.2692,0.2692,0.2692,0.2692,0.2608,0.2272,0.2524,0.2692,0.2692,0.2664,0.2387,0.2035,0.154,0.105,0.0644,0.0237,0.0,0.0,0.0,0.0,0.0,0.0,0.0,0.0,0.0195,0.0581,0.1031,0.1213,0.1585,0.2018,0.2012,0.2003,0.1997,0.2037,0.2045,0.2038,0.2061,0.2075,0.2083,0.2159,0.211,0.2129,0.2216,0.2223,0.2218,0.2132,0.2139,0.2223,0.2223,0.2231,0.2169,0.2225,0.2848,0.4032,0.61,0.9032,1.1226,1.1131,1.1138,1.1118,1.0907,1.1087,1.1219,1.1374,1.1723,1.2026,1.2073,0.0,1.2175,0.0,0.0,1.2004,1.1667,1.1659,1.1585,0.0,0.0,0.0,0.0,0.0,1.2913,1.3457,1.4099,1.4635,1.5065,1.5536,1.5861,1.5966,1.5966,1.6137,1.6308,1.6373,1.6568,1.6782,1.7112,1.7493,1.7951,1.8789,2.1977,2.6314,2.7292,3.0359,3.4256,3.4578,3.4827,3.5017,0.0781,0.1578,0.2207,0.2119,0.254,0.2776,0.2743,0.2714,0.2695,0.2692,0.2692,0.2692,0.2692,0.2692,0.2692,0.2692,0.2692,0.2692,0.2692,0.2581,0.2387,0.1954,0.1532,0.1047,0.0569,0.0158,0.0,0.0,0.0,0.0,0.0,0.0,0.0,0.0,0.0066,0.0454,0.1036,0.1034,0.141,0.2027,0.2053,0.2046,0.2027,0.2087,0.2091,0.214,0.2197,0.2135,0.2116,0.2143,0.222,0.2223,0.2223,0.2223,0.2223,0.2223,0.2223,0.2223,0.2223,0.2177,0.2193,0.2232,0.2341,0.3309,0.6319,0.9329,1.1402,1.1396,1.1267,1.1124,1.0989,1.102,1.1167,1.1167,1.1366,1.1583,1.1805,1.1953,1.211,1.2289,0.0,1.2506,1.1845,1.1604,1.1449,0.0,0.0,0.0,0.0,0.0,1.3073,1.3615,1.4213,1.4741,1.5268,1.5618,1.5886,1.5982,1.5982,1.6162,1.6349,1.6519,1.6706,1.6822,1.7258,1.7502,1.7763,1.85,2.1617,2.6179,2.698,3.0067,3.4285,3.4592,3.471,3.4827,0.1646,0.1917,0.227,0.2532,0.2719,0.28,0.2746,0.2732,0.2718,0.2695,0.2692,0.2692,0.2692,0.2692,0.2692,0.2692,0.2692,0.2692,0.2692,0.2331,0.1976,0.1466,0.0982,0.0573,0.0163,0.0081,0.0,0.0,0.0,0.0,0.0,0.0,0.0,0.0,0.0617,0.0948,0.1082,0.1654,0.1963,0.2086,0.2071,0.206,0.2057,0.2095,0.2105,0.2101,0.2114,0.2131,0.2142,0.2125,0.2135,0.2223,0.2223,0.2223,0.2223,0.2223,0.2223,0.2223,0.2223,0.2177,0.2199,0.2191,0.4043,0.6234,0.7944,1.0048,1.1531,1.1416,1.1267,1.122,1.1118,1.0872,1.0743,1.1004,1.1099,1.1279,1.1843,1.2006,1.2175,0.0,1.2503,1.2292,1.2009,1.169,1.1577,0.0,0.0,1.1808,1.233,1.2734,1.3341,1.4156,1.4765,1.5236,1.5642,1.5869,1.6064,1.6243,1.6243,1.6414,1.6636,1.6771,1.6958,1.7274,1.7486,1.7862,1.85,1.9156,2.2397,2.698,2.7529,3.0583,3.4592,3.468,3.4856,3.5105,0.208,0.227,0.2545,0.2822,0.2827,0.273,0.2436,0.2422,0.2408,0.2394,0.2381,0.2459,0.2713,0.2701,0.2692,0.2692,0.2692,0.2608,0.2356,0.2174,0.1742,0.1067,0.0743,0.0413,0.0,0.0,0.0,0.0,0.0,0.0,0.0,0.0,0.0,0.0,0.0557,0.0962,0.1167,0.168,0.1989,0.2109,0.2106,0.2097,0.2089,0.2119,0.2129,0.2129,0.2129,0.214,0.222,0.2135,0.2142,0.2224,0.2172,0.2176,0.2178,0.2192,0.2187,0.2178,0.2192,0.2218,0.2245,0.2258,0.463,0.7103,0.7832,0.9846,1.1599,1.1511,1.1375,1.1246,1.1241,1.0853,1.0661,1.0857,1.0795,1.1012,1.1652,1.1782,1.2045,1.275,1.251,1.2231,1.2018,1.1688,1.1534,1.1621,1.16,0.0,1.2462,1.279,1.3197,1.3839,1.4576,1.5098,1.5448,1.5795,1.6129,1.63,1.63,1.6495,1.6766,1.6766,1.7047,1.7396,1.7567,1.7837,1.8384,1.9317,2.1869,2.5422,2.7237,2.9984,3.3168,3.4262,3.49,3.5207,0.2173,0.2544,0.2833,0.2868,0.2853,0.2657,0.221,0.2192,0.2178,0.2088,0.2068,0.2224,0.2652,0.271,0.2692,0.2692,0.2692,0.2524,0.2018,0.1934,0.1507,0.0746,0.0663,0.0415,0.0,0.0,0.0,0.0,0.0,0.0,0.0,0.0,0.0,0.0,0.042,0.0761,0.1106,0.1496,0.1878,0.2125,0.2146,0.2139,0.2119,0.2144,0.2223,0.2223,0.2223,0.2225,0.223,0.223,0.2232,0.2173,0.2199,0.2207,0.2213,0.2244,0.2234,0.2218,0.217,0.2267,0.2297,0.2326,0.4509,0.668,0.697,0.9219,1.1325,1.1548,1.1497,1.1348,1.1219,1.0914,1.0697,1.0717,1.0555,1.0626,1.1292,0.0,1.172,1.2553,1.2418,1.217,1.197,1.1675,1.15,1.1596,1.1441,1.172,1.2698,1.2835,1.3036,1.3176,1.4136,1.4851,1.5291,1.5761,1.6186,1.6389,1.6414,1.6592,1.6806,1.6863,1.7136,1.7437,1.7607,1.7786,1.8065,1.9259,2.1021,2.3354,2.6678,2.9292,3.1463,3.383,3.49,3.5207,0.2718,0.2717,0.2808,0.2864,0.287,0.268,0.2212,0.2472,0.2549,0.2177,0.2412,0.2652,0.2652,0.271,0.2692,0.2692,0.2692,0.2524,0.2018,0.1598,0.1172,0.0746,0.0334,0.0084,0.0,0.0,0.0,0.0,0.0,0.0,0.0,0.0,0.0,0.0,0.072,0.1067,0.1136,0.1801,0.2122,0.2184,0.2163,0.2218,0.2216,0.222,0.2223,0.2223,0.2223,0.2172,0.2193,0.2193,0.221,0.2232,0.2167,0.2169,0.2244,0.2275,0.2281,0.2273,0.218,0.2267,0.2297,0.2326,0.3714,0.538,0.668,0.8348,1.0017,1.1325,1.1497,1.1382,1.1362,1.09,1.0568,1.0697,1.0378,1.0287,1.0806,0.0,1.133,1.1894,1.1887,1.1783,1.1743,1.1525,1.1586,1.2073,1.2037,1.2308,1.2824,1.297,1.3042,1.3051,1.4296,1.538,1.6135,1.6251,1.643,1.6685,1.6917,1.7015,1.708,1.738,1.7551,1.7607,1.7794,1.7973,1.8245,1.9449,2.132,2.3685,2.6839,2.9489,3.1759,3.3916,3.49,3.5207,0.2729,0.2553,0.2468,0.2507,0.2245,0.1883,0.1427,0.1783,0.1953,0.1757,0.2085,0.2497,0.2653,0.271,0.2692,0.2692,0.2692,0.2356,0.1682,0.143,0.1007,0.0334,0.0084,0.0,0.0,0.0,0.0,0.0,0.0,0.0,0.0,0.0,0.0,0.0,0.0802,0.1081,0.1144,0.1892,0.2225,0.2222,0.2191,0.2178,0.2177,0.2228,0.2232,0.2178,0.2178,0.2199,0.2225,0.2225,0.2245,0.2273,0.2288,0.2304,0.2323,0.2353,0.235,0.2331,0.2301,0.2315,0.2337,0.2334,0.3496,0.5093,0.668,0.8203,0.9723,1.1253,1.1565,1.1491,1.1409,1.1029,1.0785,1.0934,1.0521,1.0383,1.0933,1.102,1.1228,1.1822,1.1779,1.181,1.2066,1.1801,1.1766,1.2143,1.2234,1.24,1.2685,1.2936,1.3086,1.3152,1.4282,1.517,1.583,1.6176,1.6438,1.6706,1.6885,1.7071,1.7266,1.7429,1.7607,1.7794,1.7884,1.8014,1.8286,1.9492,2.0724,2.2049,2.5297,2.7938,3.0185,3.23,3.4041,3.5537,0.2557,0.2297,0.2039,0.2331,0.1975,0.1436,0.1077,0.1436,0.1699,0.1593,0.2014,0.2339,0.2656,0.271,0.2692,0.2692,0.2608,0.2188,0.1346,0.1178,0.0842,0.0,0.0,0.0,0.0,0.0,0.0,0.0,0.0,0.0,0.0,0.0,0.0076,0.015,0.0815,0.1169,0.1298,0.1922,0.2191,0.2253,0.2222,0.221,0.2208,0.2185,0.2191,0.221,0.221,0.223,0.2258,0.2192,0.2286,0.2316,0.2345,0.2369,0.2393,0.2417,0.2412,0.2393,0.2363,0.2371,0.2383,0.236,0.3227,0.4606,0.613,0.7349,0.8786,1.0671,1.1063,1.1188,1.1399,1.1233,1.1077,1.1151,0.0,1.0524,1.1021,1.1108,1.1252,1.1772,1.1795,1.1931,1.229,1.2065,1.1999,1.2155,1.2305,1.2467,1.2651,1.2881,1.3078,1.322,1.416,1.4999,1.5498,1.6049,1.6479,1.6706,1.6893,1.712,1.7388,1.7429,1.7616,1.7916,1.7916,1.8014,1.8286,1.9544,2.0209,2.0655,2.395,2.6563,2.8752,3.0929,3.3406,3.5757,0.2028,0.1767,0.1773,0.2689,0.2425,0.2156,0.2066,0.2515,0.2595,0.2124,0.2451,0.2772,0.2742,0.271,0.2692,0.2692,0.2272,0.185,0.1346,0.0926,0.0505,0.0,0.0,0.0,0.0,0.0,0.0,0.0,0.0,0.0,0.0,0.0,0.0231,0.0538,0.0987,0.1425,0.1777,0.212,0.2311,0.2285,0.2255,0.2171,0.2171,0.217,0.217,0.2171,0.2171,0.2262,0.2292,0.2318,0.2346,0.2378,0.2408,0.2418,0.2421,0.2423,0.2442,0.2455,0.2425,0.2418,0.242,0.2417,0.247,0.2966,0.4519,0.4991,0.5887,0.8858,0.9602,1.0085,1.1338,1.147,1.1314,1.1255,0.0,0.0,1.0717,1.107,1.1405,1.1425,1.1807,1.208,1.2115,1.2176,1.2318,1.2461,1.261,1.282,1.3105,1.3146,1.3227,1.3376,1.4217,1.5112,1.5848,1.6382,1.673,1.7071,1.7258,1.7364,1.7396,1.7551,1.7729,1.7916,1.7916,1.8014,1.8294,1.969,2.0332,2.0664,2.4135,2.6721,2.8776,3.1138,3.3573,3.5786,0.1962,0.1517,0.1251,0.2333,0.1795,0.1347,0.1616,0.2156,0.2416,0.2124,0.2466,0.28,0.2769,0.2755,0.2748,0.2748,0.2319,0.1884,0.1361,0.0935,0.0509,0.0,0.0,0.0,0.0,0.0,0.0,0.0,0.0,0.0,0.0,0.0,0.0079,0.0234,0.0924,0.1293,0.1502,0.2077,0.2354,0.2342,0.2312,0.2228,0.2228,0.2228,0.2228,0.2228,0.2228,0.2319,0.2346,0.2357,0.2394,0.2436,0.2448,0.2465,0.248,0.248,0.2502,0.2523,0.2511,0.248,0.2447,0.2428,0.2414,0.2782,0.4354,0.471,0.5289,0.7512,0.7983,0.8542,1.022,1.0278,1.0462,1.169,0.0,1.1199,1.1382,1.1477,1.1565,1.1653,1.1898,1.2101,1.2196,1.2338,1.2481,1.263,1.2868,1.3051,1.3166,1.3261,1.3342,1.3397,1.4401,1.5013,1.5309,1.6291,1.682,1.6958,1.725,1.7445,1.7551,1.7729,1.7908,1.8079,1.8079,1.8176,1.8457,1.9759,2.0325,2.065,2.2761,2.5572,2.868,2.9804,3.2514,3.5786,0.1526,0.1167,0.0988,0.2066,0.1616,0.1257,0.1616,0.1975,0.2147,0.2124,0.2209,0.2465,0.2787,0.2695,0.2609,0.2784,0.2261,0.1731,0.1455,0.0853,0.0339,0.0,0.0,0.0,0.0,0.0,0.0,0.0,0.0,0.0,0.0,0.0,0.008,0.0237,0.094,0.1315,0.1446,0.2114,0.2401,0.2391,0.2369,0.2361,0.2361,0.2361,0.2361,0.2361,0.2361,0.2375,0.2394,0.2403,0.244,0.2485,0.2495,0.2518,0.2542,0.2542,0.2556,0.2572,0.2572,0.2542,0.2506,0.2485,0.2473,0.2771,0.3754,0.4045,0.4487,0.6074,0.6394,0.6964,0.8636,0.9319,0.9963,1.1326,1.1635,1.1809,1.2013,1.1999,1.2006,1.2101,1.225,1.2386,1.2494,1.2589,1.2705,1.2861,1.3057,1.3193,1.3241,1.3342,1.3424,1.3471,1.4539,1.5093,1.5198,1.6238,1.6798,1.6933,1.7242,1.7478,1.7648,1.777,1.7957,1.8176,1.8176,1.8282,1.8563,1.9663,2.0228,2.0465,2.1725,2.4212,2.7418,2.8535,3.1438,3.4889,0.0628,0.0718,0.0988,0.2066,0.2245,0.2245,0.2245,0.2245,0.2147,0.2124,0.1679,0.1761,0.2699,0.2349,0.2262,0.2784,0.1913,0.1385,0.137,0.0508,0.0,0.0,0.0,0.0,0.0,0.0,0.0,0.0,0.0,0.0,0.0,0.0,0.0243,0.064,0.112,0.1499,0.1852,0.2315,0.2451,0.2424,0.2424,0.2424,0.2424,0.2424,0.2424,0.2424,0.2424,0.2424,0.2429,0.2459,0.2489,0.2521,0.2551,0.2579,0.2601,0.2601,0.2601,0.2602,0.2602,0.2602,0.2602,0.2601,0.2581,0.2552,0.2522,0.2492,0.2932,0.4465,0.4895,0.5405,0.6889,0.8771,0.9992,0.9869,1.1333,1.2508,1.2508,1.2637,1.2732,1.2732,1.2868,1.2963,1.2963,1.2963,1.3024,1.3159,1.3173,1.3241,1.3397,1.3403,1.3478,1.3627,1.4713,1.5463,1.5697,1.6419,1.6942,1.712,1.7299,1.7478,1.764,1.7648,1.7843,1.8176,1.8176,1.8282,1.8579,1.9413,1.9759,1.9873,2.1138,2.2857,2.5098,2.7953,3.0565,3.2922,0.1178,0.1271,0.1546,0.2565,0.2463,0.227,0.2632,0.2435,0.2152,0.2146,0.1698,0.1607,0.2314,0.1956,0.1778,0.2313,0.1502,0.0785,0.0428,0.0169,0.0,0.0,0.0,0.0,0.0,0.0337,0.0337,0.0,0.0336,0.0335,0.0,0.0,0.0082,0.0246,0.0967,0.136,0.152,0.2203,0.2495,0.2487,0.2487,0.2474,0.2458,0.2478,0.2474,0.2455,0.2455,0.2469,0.2488,0.2497,0.2534,0.2577,0.2586,0.2596,0.2601,0.2601,0.2616,0.2634,0.2634,0.2649,0.2656,0.2612,0.2596,0.2586,0.2578,0.2568,0.2722,0.32,0.3289,0.3868,0.552,0.7282,0.8875,1.0131,1.1758,1.282,1.282,1.2861,1.2895,1.2895,1.2935,1.2963,1.2963,1.3051,1.3125,1.3166,1.337,1.3512,1.3559,1.3654,1.3899,1.4295,1.5044,1.5609,1.6056,1.6865,1.7315,1.7486,1.7672,1.7786,1.7843,1.7965,1.807,1.8184,1.8314,1.8476,1.8663,1.9464,1.9835,2.006,2.1192,2.2857,2.5098,2.7953,3.0565,3.2895,0.1092,0.1368,0.1738,0.2586,0.257,0.2553,0.2644,0.2169,0.1885,0.1885,0.1257,0.1077,0.1795,0.1436,0.1347,0.1795,0.1156,0.0526,0.0,0.0,0.0,0.0,0.0,0.0,0.0,0.0253,0.0253,0.0,0.0253,0.0253,0.0,0.0,0.0,0.0,0.0734,0.1056,0.1057,0.1924,0.2225,0.2296,0.2464,0.2532,0.2508,0.2537,0.2537,0.2521,0.2521,0.2533,0.2549,0.2549,0.2581,0.2622,0.2634,0.2638,0.2638,0.2638,0.265,0.2665,0.2665,0.2679,0.2684,0.2646,0.2638,0.2634,0.2622,0.2619,0.2619,0.2619,0.2619,0.3121,0.4977,0.6769,0.8479,1.0272,1.2037,1.3132,1.3132,1.3132,1.3132,1.3132,1.3132,1.3132,1.3132,1.3214,1.3288,1.3349,1.358,1.3709,1.3709,1.3797,1.3957,1.4363,1.5147,1.5692,1.6091,1.6983,1.7502,1.7543,1.7794,1.7916,1.7924,1.8095,1.8217,1.8298,1.8476,1.8663,1.8842,1.9403,1.9642,1.9849,2.0826,2.2084,2.3638,2.7364,2.9882,3.177,0.073,0.128,0.1743,0.2223,0.2667,0.2741,0.2377,0.1813,0.1441,0.1441,0.063,0.036,0.1259,0.0899,0.0809,0.1257,0.0978,0.0528,0.0,0.0,0.0085,0.0,0.0,0.0,0.0,0.0,0.0,0.0,0.0,0.0,0.0,0.0,0.0,0.0,0.0414,0.0577,0.0653,0.1549,0.1944,0.1927,0.2433,0.2589,0.2567,0.2592,0.2601,0.2601,0.2601,0.2604,0.2607,0.2609,0.2628,0.2656,0.2684,0.2692,0.2692,0.2692,0.2692,0.2692,0.2692,0.2692,0.2692,0.2608,0.2608,0.2602,0.2574,0.2569,0.2569,0.2569,0.2569,0.3157,0.5028,0.6794,0.8632,1.0388,1.2229,1.3403,1.3417,1.341,1.3403,1.3417,1.341,1.3403,1.3403,1.341,1.3478,1.362,1.3777,1.3865,1.3865,1.3871,1.3946,1.4176,1.5046,1.563,1.6032,1.701,1.7485,1.7437,1.7778,1.7949,1.7973,1.8127,1.8298,1.8485,1.8671,1.8834,1.8996,1.9183,1.9256,1.9355,2.0432,2.0826,2.1406,2.6431,2.8765,3.0045,0.1305,0.2054,0.2716,0.2837,0.2913,0.2987,0.2802,0.2406,0.1931,0.1564,0.1012,0.0642,0.0819,0.0454,0.0362,0.0809,0.08,0.0528,0.0,0.0347,0.0345,0.0,0.0,0.0,0.0,0.0337,0.0337,0.0,0.0337,0.0337,0.0,0.0,0.0,0.0,0.0416,0.0665,0.0752,0.1572,0.1976,0.2054,0.2471,0.2619,0.2593,0.26,0.2601,0.2601,0.2601,0.2617,0.2641,0.2665,0.2677,0.2684,0.269,0.2692,0.2692,0.2692,0.2692,0.2692,0.2692,0.2692,0.2608,0.2272,0.2188,0.227,0.26,0.2683,0.2683,0.2683,0.2683,0.3269,0.5033,0.6794,0.8632,1.0388,1.2229,1.3444,1.3559,1.3478,1.3444,1.3566,1.3471,1.3403,1.3403,1.3512,1.3593,1.3627,1.3871,1.4021,1.4021,1.4136,1.4386,1.4766,1.503,1.5565,1.6569,1.6837,1.7333,1.7802,1.8022,1.8192,1.8338,1.8379,1.8493,1.8671,1.885,1.8948,1.8996,1.9183,1.9256,1.9355,2.0432,2.0826,2.121,2.4806,2.7398,2.9749,0.15,0.2161,0.2733,0.3047,0.3026,0.3006,0.3006,0.2329,0.1759,0.1575,0.0834,0.037,0.0368,0.0184,0.0092,0.0365,0.0632,0.0536,0.0,0.0264,0.0262,0.0,0.0,0.0,0.0,0.0253,0.0253,0.0,0.0253,0.0253,0.0,0.0,0.0,0.0,0.0251,0.0335,0.0421,0.1087,0.1497,0.1738,0.2163,0.2402,0.2626,0.2639,0.2645,0.2645,0.2645,0.2656,0.2671,0.2687,0.2692,0.2692,0.2692,0.2692,0.2692,0.2692,0.2692,0.2692,0.2692,0.2524,0.2274,0.2033,0.1865,0.1696,0.195,0.2035,0.2123,0.2391,0.2393,0.3326,0.6177,0.7436,0.8937,1.157,1.2875,1.3539,1.362,1.3559,1.3539,1.362,1.3559,1.3539,1.3607,1.3682,1.3763,1.3838,1.4055,1.4183,1.4183,1.4319,1.4456,1.4653,1.497,1.5495,1.595,1.6734,1.7178,1.7548,1.8002,1.8225,1.8322,1.8506,1.855,1.8736,1.8907,1.9037,1.9126,1.9216,1.9256,1.9355,2.0136,2.053,2.1112,2.4028,2.7352,3.085,0.1411,0.1977,0.255,0.3047,0.3031,0.3014,0.3014,0.2245,0.1583,0.149,0.0745,0.0093,0.0,0.0093,0.0093,0.0092,0.0642,0.0636,0.0,0.0089,0.0088,0.0,0.0,0.0,0.0,0.0,0.0,0.0,0.0,0.0,0.0,0.0,0.0,0.0,0.0,0.0,0.0,0.0505,0.0921,0.1246,0.1761,0.2176,0.2491,0.2683,0.2692,0.2692,0.2692,0.2692,0.2692,0.2692,0.2692,0.2692,0.2692,0.2692,0.2692,0.2692,0.2692,0.2692,0.2692,0.2356,0.194,0.1877,0.1539,0.1198,0.1117,0.1203,0.1462,0.1909,0.2,0.3291,0.7273,0.8114,0.9281,1.2907,1.358,1.3675,1.3702,1.3682,1.3675,1.3702,1.3682,1.3709,1.3831,1.3865,1.3946,1.4102,1.4251,1.434,1.434,1.4475,1.4482,1.434,1.4958,1.5237,1.5312,1.6484,1.7111,1.7258,1.7965,1.8241,1.8273,1.846,1.8639,1.8826,1.8964,1.9118,1.9256,1.9256,1.9256,1.9355,1.984,2.0235,2.1013,2.3716,2.7461,3.1302,0.1522,0.2284,0.3047,0.3051,0.3048,0.3046,0.3046,0.2568,0.1994,0.152,0.1045,0.0473,0.0094,0.0372,0.0646,0.0732,0.1095,0.0999,0.009,0.0359,0.0444,0.0,0.0,0.0,0.0,0.0,0.0,0.0,0.0,0.0,0.0,0.0,0.0,0.0,0.0,0.0,0.0,0.0505,0.0757,0.084,0.1682,0.2017,0.2098,0.2523,0.2692,0.2692,0.2692,0.2692,0.2692,0.2692,0.2692,0.2692,0.2692,0.2692,0.2692,0.2692,0.2692,0.2692,0.2692,0.2356,0.194,0.1535,0.1112,0.0688,0.0263,0.0786,0.1302,0.1391,0.1739,0.3212,0.7001,0.8035,0.9497,1.318,1.3797,1.3858,1.3994,1.3899,1.3865,1.3994,1.3892,1.3817,1.3838,1.396,1.4102,1.4258,1.4401,1.4482,1.4482,1.4624,1.4638,1.4489,1.4652,1.5068,1.5632,1.6236,1.6956,1.7608,1.8206,1.8501,1.8655,1.8834,1.9013,1.9191,1.9216,1.9232,1.9256,1.9256,1.9256,1.9355,1.984,2.0038,2.0522,2.3521,2.5744,2.7619,0.1515,0.2375,0.3148,0.3148,0.3148,0.3148,0.3148,0.267,0.2098,0.1526,0.1049,0.0571,0.0095,0.0755,0.0938,0.0371,0.1015,0.1099,0.0091,0.018,0.0179,0.0,0.0,0.0,0.0,0.0,0.0,0.0,0.0,0.0,0.0,0.0,0.0,0.0,0.0,0.0,0.0,0.0253,0.0421,0.0758,0.1095,0.1599,0.2018,0.2272,0.244,0.2692,0.2692,0.2692,0.2692,0.2692,0.2692,0.2695,0.2713,0.2718,0.2721,0.2739,0.2743,0.2657,0.24,0.2057,0.1547,0.1043,0.061,0.0262,0.0089,0.0268,0.0713,0.1241,0.1505,0.3001,0.7261,0.8213,0.959,1.3244,1.3987,1.4122,1.419,1.4143,1.4089,1.4075,1.3933,1.3905,1.4082,1.4156,1.4258,1.4407,1.4557,1.4604,1.4516,1.474,1.476,1.4516,1.4821,1.5077,1.5334,1.6161,1.6883,1.7307,1.8169,1.8647,1.8728,1.8907,1.9029,1.911,1.9216,1.9256,1.9256,1.9256,1.9256,1.9355,1.9553,1.9939,2.0629,2.2378,2.4319,2.6573]}]]